<?xml version="1.0" encoding="UTF-8" standalone="no" ?>
<gpx xmlns="http://www.topografix.com/GPX/1/1" xmlns:xsi="http://www.w3.org/2001/XMLSchema-instance" xsi:schemaLocation="http://www.topografix.com/GPX/1/1 http://www.topografix.com/GPX/1/1/gpx.xsd" version="1.1" creator="VisuGPX - https://www.visugpx.com">
  <metadata>
    <name>Marche nordique du 16/02/2013</name>
    <desc><![CDATA[Avec le groupe de 8h à 10h.
]]></desc>
  </metadata>
  <trk>
    <name><![CDATA[16/02/2013 8:02]]></name>
    <desc><![CDATA[]]></desc>
    <trkseg>
      <trkpt lat="47.31857" lon="4.92659">
        <ele>325</ele>
        <time>2013-02-16T07:04:10.000Z</time>
      </trkpt>
      <trkpt lat="47.31859" lon="4.92655">
        <ele>323.3</ele>
        <time>2013-02-16T07:04:11.000Z</time>
      </trkpt>
      <trkpt lat="47.3186" lon="4.92652">
        <ele>321.6</ele>
        <time>2013-02-16T07:04:12.000Z</time>
      </trkpt>
      <trkpt lat="47.31861" lon="4.92658">
        <ele>320</ele>
        <time>2013-02-16T07:07:03.000Z</time>
      </trkpt>
      <trkpt lat="47.31861" lon="4.92659">
        <ele>319.9</ele>
        <time>2013-02-16T07:07:04.000Z</time>
      </trkpt>
      <trkpt lat="47.3186" lon="4.92664">
        <ele>319.4</ele>
        <time>2013-02-16T07:07:08.000Z</time>
      </trkpt>
      <trkpt lat="47.31859" lon="4.92665">
        <ele>319.4</ele>
        <time>2013-02-16T07:07:09.000Z</time>
      </trkpt>
      <trkpt lat="47.31856" lon="4.92669">
        <ele>320</ele>
        <time>2013-02-16T07:07:14.000Z</time>
      </trkpt>
      <trkpt lat="47.31855" lon="4.9267">
        <ele>320.2</ele>
        <time>2013-02-16T07:07:15.000Z</time>
      </trkpt>
      <trkpt lat="47.31852" lon="4.92673">
        <ele>321</ele>
        <time>2013-02-16T07:07:23.000Z</time>
      </trkpt>
      <trkpt lat="47.31851" lon="4.92674">
        <ele>321.1</ele>
        <time>2013-02-16T07:07:24.000Z</time>
      </trkpt>
      <trkpt lat="47.31848" lon="4.92678">
        <ele>321.5</ele>
        <time>2013-02-16T07:07:28.000Z</time>
      </trkpt>
      <trkpt lat="47.31848" lon="4.9268">
        <ele>321.7</ele>
        <time>2013-02-16T07:07:29.000Z</time>
      </trkpt>
      <trkpt lat="47.31846" lon="4.92681">
        <ele>322.1</ele>
        <time>2013-02-16T07:07:32.000Z</time>
      </trkpt>
      <trkpt lat="47.31836" lon="4.92685">
        <ele>326.2</ele>
        <time>2013-02-16T07:07:38.000Z</time>
      </trkpt>
      <trkpt lat="47.31838" lon="4.92691">
        <ele>327.5</ele>
        <time>2013-02-16T07:07:40.000Z</time>
      </trkpt>
      <trkpt lat="47.31838" lon="4.92693">
        <ele>327.1</ele>
        <time>2013-02-16T07:07:41.000Z</time>
      </trkpt>
      <trkpt lat="47.3184" lon="4.92698">
        <ele>328</ele>
        <time>2013-02-16T07:07:43.000Z</time>
      </trkpt>
      <trkpt lat="47.31841" lon="4.927">
        <ele>327.8</ele>
        <time>2013-02-16T07:07:44.000Z</time>
      </trkpt>
      <trkpt lat="47.31842" lon="4.92703">
        <ele>329.1</ele>
        <time>2013-02-16T07:07:45.000Z</time>
      </trkpt>
      <trkpt lat="47.31844" lon="4.92706">
        <ele>330</ele>
        <time>2013-02-16T07:07:46.000Z</time>
      </trkpt>
      <trkpt lat="47.31846" lon="4.92711">
        <ele>331.5</ele>
        <time>2013-02-16T07:07:52.000Z</time>
      </trkpt>
      <trkpt lat="47.31847" lon="4.92713">
        <ele>332.4</ele>
        <time>2013-02-16T07:07:53.000Z</time>
      </trkpt>
      <trkpt lat="47.31849" lon="4.92717">
        <ele>333.8</ele>
        <time>2013-02-16T07:07:55.000Z</time>
      </trkpt>
      <trkpt lat="47.3185" lon="4.9272">
        <ele>334.2</ele>
        <time>2013-02-16T07:07:56.000Z</time>
      </trkpt>
      <trkpt lat="47.31853" lon="4.92725">
        <ele>335.3</ele>
        <time>2013-02-16T07:07:58.000Z</time>
      </trkpt>
      <trkpt lat="47.31853" lon="4.92727">
        <ele>335.6</ele>
        <time>2013-02-16T07:07:59.000Z</time>
      </trkpt>
      <trkpt lat="47.31855" lon="4.9273">
        <ele>337</ele>
        <time>2013-02-16T07:08:01.000Z</time>
      </trkpt>
      <trkpt lat="47.31855" lon="4.92733">
        <ele>337</ele>
        <time>2013-02-16T07:08:02.000Z</time>
      </trkpt>
      <trkpt lat="47.31857" lon="4.92738">
        <ele>335.5</ele>
        <time>2013-02-16T07:08:04.000Z</time>
      </trkpt>
      <trkpt lat="47.31857" lon="4.9274">
        <ele>335.1</ele>
        <time>2013-02-16T07:08:05.000Z</time>
      </trkpt>
      <trkpt lat="47.31858" lon="4.92747">
        <ele>334.7</ele>
        <time>2013-02-16T07:08:08.000Z</time>
      </trkpt>
      <trkpt lat="47.31858" lon="4.92749">
        <ele>334.7</ele>
        <time>2013-02-16T07:08:09.000Z</time>
      </trkpt>
      <trkpt lat="47.31859" lon="4.92755">
        <ele>334.1</ele>
        <time>2013-02-16T07:08:12.000Z</time>
      </trkpt>
      <trkpt lat="47.31858" lon="4.92757">
        <ele>334.2</ele>
        <time>2013-02-16T07:08:13.000Z</time>
      </trkpt>
      <trkpt lat="47.31859" lon="4.92763">
        <ele>334.2</ele>
        <time>2013-02-16T07:08:16.000Z</time>
      </trkpt>
      <trkpt lat="47.3186" lon="4.92765">
        <ele>334.2</ele>
        <time>2013-02-16T07:08:17.000Z</time>
      </trkpt>
      <trkpt lat="47.3186" lon="4.92771">
        <ele>333.7</ele>
        <time>2013-02-16T07:08:20.000Z</time>
      </trkpt>
      <trkpt lat="47.3186" lon="4.92772">
        <ele>333.9</ele>
        <time>2013-02-16T07:08:21.000Z</time>
      </trkpt>
      <trkpt lat="47.3186" lon="4.92777">
        <ele>333.8</ele>
        <time>2013-02-16T07:08:24.000Z</time>
      </trkpt>
      <trkpt lat="47.31861" lon="4.92779">
        <ele>333.7</ele>
        <time>2013-02-16T07:08:25.000Z</time>
      </trkpt>
      <trkpt lat="47.31861" lon="4.92785">
        <ele>333.7</ele>
        <time>2013-02-16T07:08:28.000Z</time>
      </trkpt>
      <trkpt lat="47.31862" lon="4.92787">
        <ele>333.9</ele>
        <time>2013-02-16T07:08:29.000Z</time>
      </trkpt>
      <trkpt lat="47.31863" lon="4.92793">
        <ele>334</ele>
        <time>2013-02-16T07:08:31.000Z</time>
      </trkpt>
      <trkpt lat="47.31864" lon="4.92796">
        <ele>334.1</ele>
        <time>2013-02-16T07:08:32.000Z</time>
      </trkpt>
      <trkpt lat="47.31865" lon="4.92809">
        <ele>333</ele>
        <time>2013-02-16T07:08:39.000Z</time>
      </trkpt>
      <trkpt lat="47.31865" lon="4.92815">
        <ele>333.9</ele>
        <time>2013-02-16T07:08:43.000Z</time>
      </trkpt>
      <trkpt lat="47.31866" lon="4.92817">
        <ele>333.9</ele>
        <time>2013-02-16T07:08:44.000Z</time>
      </trkpt>
      <trkpt lat="47.31866" lon="4.92823">
        <ele>332.9</ele>
        <time>2013-02-16T07:08:47.000Z</time>
      </trkpt>
      <trkpt lat="47.31866" lon="4.92824">
        <ele>332.1</ele>
        <time>2013-02-16T07:08:48.000Z</time>
      </trkpt>
      <trkpt lat="47.31867" lon="4.92829">
        <ele>332</ele>
        <time>2013-02-16T07:08:50.000Z</time>
      </trkpt>
      <trkpt lat="47.31867" lon="4.92831">
        <ele>331.3</ele>
        <time>2013-02-16T07:08:51.000Z</time>
      </trkpt>
      <trkpt lat="47.31869" lon="4.92836">
        <ele>331.1</ele>
        <time>2013-02-16T07:08:53.000Z</time>
      </trkpt>
      <trkpt lat="47.3187" lon="4.92838">
        <ele>330.9</ele>
        <time>2013-02-16T07:08:54.000Z</time>
      </trkpt>
      <trkpt lat="47.31871" lon="4.92842">
        <ele>329.1</ele>
        <time>2013-02-16T07:08:56.000Z</time>
      </trkpt>
      <trkpt lat="47.31873" lon="4.92845">
        <ele>328.9</ele>
        <time>2013-02-16T07:08:57.000Z</time>
      </trkpt>
      <trkpt lat="47.31875" lon="4.92849">
        <ele>329.1</ele>
        <time>2013-02-16T07:08:59.000Z</time>
      </trkpt>
      <trkpt lat="47.31876" lon="4.92851">
        <ele>329.2</ele>
        <time>2013-02-16T07:09:00.000Z</time>
      </trkpt>
      <trkpt lat="47.31877" lon="4.92857">
        <ele>329.8</ele>
        <time>2013-02-16T07:09:03.000Z</time>
      </trkpt>
      <trkpt lat="47.31878" lon="4.9286">
        <ele>329.9</ele>
        <time>2013-02-16T07:09:04.000Z</time>
      </trkpt>
      <trkpt lat="47.3188" lon="4.92865">
        <ele>329.9</ele>
        <time>2013-02-16T07:09:06.000Z</time>
      </trkpt>
      <trkpt lat="47.31881" lon="4.92867">
        <ele>330.4</ele>
        <time>2013-02-16T07:09:07.000Z</time>
      </trkpt>
      <trkpt lat="47.31883" lon="4.92871">
        <ele>330.8</ele>
        <time>2013-02-16T07:09:09.000Z</time>
      </trkpt>
      <trkpt lat="47.31885" lon="4.92875">
        <ele>331.2</ele>
        <time>2013-02-16T07:09:10.000Z</time>
      </trkpt>
      <trkpt lat="47.31886" lon="4.9288">
        <ele>331.1</ele>
        <time>2013-02-16T07:09:11.000Z</time>
      </trkpt>
      <trkpt lat="47.31887" lon="4.92885">
        <ele>330.8</ele>
        <time>2013-02-16T07:09:12.000Z</time>
      </trkpt>
      <trkpt lat="47.31888" lon="4.92888">
        <ele>330.9</ele>
        <time>2013-02-16T07:09:13.000Z</time>
      </trkpt>
      <trkpt lat="47.31889" lon="4.92891">
        <ele>330.9</ele>
        <time>2013-02-16T07:09:14.000Z</time>
      </trkpt>
      <trkpt lat="47.31889" lon="4.92897">
        <ele>331.5</ele>
        <time>2013-02-16T07:09:17.000Z</time>
      </trkpt>
      <trkpt lat="47.31889" lon="4.92899">
        <ele>331.8</ele>
        <time>2013-02-16T07:09:18.000Z</time>
      </trkpt>
      <trkpt lat="47.31889" lon="4.92903">
        <ele>331.3</ele>
        <time>2013-02-16T07:09:22.000Z</time>
      </trkpt>
      <trkpt lat="47.31889" lon="4.92905">
        <ele>330.8</ele>
        <time>2013-02-16T07:09:23.000Z</time>
      </trkpt>
      <trkpt lat="47.31891" lon="4.9291">
        <ele>330.6</ele>
        <time>2013-02-16T07:09:27.000Z</time>
      </trkpt>
      <trkpt lat="47.31891" lon="4.92912">
        <ele>330.6</ele>
        <time>2013-02-16T07:09:28.000Z</time>
      </trkpt>
      <trkpt lat="47.31892" lon="4.92917">
        <ele>331.9</ele>
        <time>2013-02-16T07:09:32.000Z</time>
      </trkpt>
      <trkpt lat="47.31903" lon="4.92938">
        <ele>339.4</ele>
        <time>2013-02-16T07:09:41.000Z</time>
      </trkpt>
      <trkpt lat="47.31903" lon="4.92945">
        <ele>338.2</ele>
        <time>2013-02-16T07:09:46.000Z</time>
      </trkpt>
      <trkpt lat="47.31904" lon="4.92946">
        <ele>338.5</ele>
        <time>2013-02-16T07:09:47.000Z</time>
      </trkpt>
      <trkpt lat="47.31906" lon="4.92951">
        <ele>339.8</ele>
        <time>2013-02-16T07:09:51.000Z</time>
      </trkpt>
      <trkpt lat="47.31907" lon="4.92952">
        <ele>339.5</ele>
        <time>2013-02-16T07:09:52.000Z</time>
      </trkpt>
      <trkpt lat="47.31909" lon="4.92956">
        <ele>338.8</ele>
        <time>2013-02-16T07:09:56.000Z</time>
      </trkpt>
      <trkpt lat="47.31911" lon="4.92957">
        <ele>338.6</ele>
        <time>2013-02-16T07:09:57.000Z</time>
      </trkpt>
      <trkpt lat="47.31914" lon="4.92957">
        <ele>337.8</ele>
        <time>2013-02-16T07:10:02.000Z</time>
      </trkpt>
      <trkpt lat="47.31915" lon="4.92958">
        <ele>337.7</ele>
        <time>2013-02-16T07:10:03.000Z</time>
      </trkpt>
      <trkpt lat="47.31918" lon="4.92959">
        <ele>337.9</ele>
        <time>2013-02-16T07:10:05.000Z</time>
      </trkpt>
      <trkpt lat="47.3192" lon="4.92961">
        <ele>337.8</ele>
        <time>2013-02-16T07:10:06.000Z</time>
      </trkpt>
      <trkpt lat="47.31922" lon="4.92963">
        <ele>336.8</ele>
        <time>2013-02-16T07:10:08.000Z</time>
      </trkpt>
      <trkpt lat="47.31924" lon="4.92965">
        <ele>336.6</ele>
        <time>2013-02-16T07:10:09.000Z</time>
      </trkpt>
      <trkpt lat="47.31927" lon="4.92967">
        <ele>336.5</ele>
        <time>2013-02-16T07:10:12.000Z</time>
      </trkpt>
      <trkpt lat="47.31928" lon="4.92968">
        <ele>336.4</ele>
        <time>2013-02-16T07:10:13.000Z</time>
      </trkpt>
      <trkpt lat="47.31931" lon="4.92972">
        <ele>336.1</ele>
        <time>2013-02-16T07:10:16.000Z</time>
      </trkpt>
      <trkpt lat="47.31933" lon="4.92974">
        <ele>336.2</ele>
        <time>2013-02-16T07:10:17.000Z</time>
      </trkpt>
      <trkpt lat="47.31935" lon="4.92977">
        <ele>335.8</ele>
        <time>2013-02-16T07:10:19.000Z</time>
      </trkpt>
      <trkpt lat="47.31936" lon="4.92978">
        <ele>335.7</ele>
        <time>2013-02-16T07:10:20.000Z</time>
      </trkpt>
      <trkpt lat="47.31939" lon="4.9298">
        <ele>335.5</ele>
        <time>2013-02-16T07:10:22.000Z</time>
      </trkpt>
      <trkpt lat="47.31941" lon="4.92981">
        <ele>335.4</ele>
        <time>2013-02-16T07:10:23.000Z</time>
      </trkpt>
      <trkpt lat="47.31943" lon="4.92986">
        <ele>335</ele>
        <time>2013-02-16T07:10:26.000Z</time>
      </trkpt>
      <trkpt lat="47.31944" lon="4.92988">
        <ele>334.6</ele>
        <time>2013-02-16T07:10:27.000Z</time>
      </trkpt>
      <trkpt lat="47.31947" lon="4.92992">
        <ele>334.3</ele>
        <time>2013-02-16T07:10:29.000Z</time>
      </trkpt>
      <trkpt lat="47.31948" lon="4.92994">
        <ele>334.2</ele>
        <time>2013-02-16T07:10:30.000Z</time>
      </trkpt>
      <trkpt lat="47.31949" lon="4.92997">
        <ele>334.3</ele>
        <time>2013-02-16T07:10:32.000Z</time>
      </trkpt>
      <trkpt lat="47.31962" lon="4.93015">
        <ele>341.3</ele>
        <time>2013-02-16T07:10:40.000Z</time>
      </trkpt>
      <trkpt lat="47.31965" lon="4.93016">
        <ele>337.6</ele>
        <time>2013-02-16T07:10:59.000Z</time>
      </trkpt>
      <trkpt lat="47.3197" lon="4.93019">
        <ele>337.9</ele>
        <time>2013-02-16T07:11:00.000Z</time>
      </trkpt>
      <trkpt lat="47.31973" lon="4.9302">
        <ele>337.9</ele>
        <time>2013-02-16T07:11:10.000Z</time>
      </trkpt>
      <trkpt lat="47.31977" lon="4.93024">
        <ele>338.7</ele>
        <time>2013-02-16T07:11:11.000Z</time>
      </trkpt>
      <trkpt lat="47.31981" lon="4.93026">
        <ele>338.8</ele>
        <time>2013-02-16T07:11:14.000Z</time>
      </trkpt>
      <trkpt lat="47.31982" lon="4.93027">
        <ele>338.7</ele>
        <time>2013-02-16T07:11:15.000Z</time>
      </trkpt>
      <trkpt lat="47.31985" lon="4.93031">
        <ele>338.8</ele>
        <time>2013-02-16T07:11:18.000Z</time>
      </trkpt>
      <trkpt lat="47.31986" lon="4.93033">
        <ele>338.7</ele>
        <time>2013-02-16T07:11:19.000Z</time>
      </trkpt>
      <trkpt lat="47.3199" lon="4.93036">
        <ele>338.7</ele>
        <time>2013-02-16T07:11:21.000Z</time>
      </trkpt>
      <trkpt lat="47.31991" lon="4.93038">
        <ele>338.5</ele>
        <time>2013-02-16T07:11:22.000Z</time>
      </trkpt>
      <trkpt lat="47.31994" lon="4.9304">
        <ele>338.2</ele>
        <time>2013-02-16T07:11:24.000Z</time>
      </trkpt>
      <trkpt lat="47.31996" lon="4.93042">
        <ele>338.3</ele>
        <time>2013-02-16T07:11:25.000Z</time>
      </trkpt>
      <trkpt lat="47.31999" lon="4.93044">
        <ele>338.2</ele>
        <time>2013-02-16T07:11:27.000Z</time>
      </trkpt>
      <trkpt lat="47.32001" lon="4.93046">
        <ele>338</ele>
        <time>2013-02-16T07:11:28.000Z</time>
      </trkpt>
      <trkpt lat="47.32004" lon="4.93047">
        <ele>337.8</ele>
        <time>2013-02-16T07:11:30.000Z</time>
      </trkpt>
      <trkpt lat="47.32005" lon="4.93049">
        <ele>337.6</ele>
        <time>2013-02-16T07:11:31.000Z</time>
      </trkpt>
      <trkpt lat="47.32006" lon="4.93051">
        <ele>337.6</ele>
        <time>2013-02-16T07:11:32.000Z</time>
      </trkpt>
      <trkpt lat="47.3201" lon="4.93052">
        <ele>333.8</ele>
        <time>2013-02-16T07:11:40.000Z</time>
      </trkpt>
      <trkpt lat="47.32014" lon="4.93064">
        <ele>332</ele>
        <time>2013-02-16T07:11:41.000Z</time>
      </trkpt>
      <trkpt lat="47.32016" lon="4.93067">
        <ele>331.6</ele>
        <time>2013-02-16T07:11:43.000Z</time>
      </trkpt>
      <trkpt lat="47.32017" lon="4.93069">
        <ele>331</ele>
        <time>2013-02-16T07:11:44.000Z</time>
      </trkpt>
      <trkpt lat="47.3202" lon="4.93074">
        <ele>330</ele>
        <time>2013-02-16T07:11:47.000Z</time>
      </trkpt>
      <trkpt lat="47.32021" lon="4.93076">
        <ele>330.4</ele>
        <time>2013-02-16T07:11:48.000Z</time>
      </trkpt>
      <trkpt lat="47.32024" lon="4.93079">
        <ele>331.2</ele>
        <time>2013-02-16T07:11:52.000Z</time>
      </trkpt>
      <trkpt lat="47.32025" lon="4.9308">
        <ele>331.3</ele>
        <time>2013-02-16T07:11:53.000Z</time>
      </trkpt>
      <trkpt lat="47.32028" lon="4.93082">
        <ele>331.3</ele>
        <time>2013-02-16T07:11:56.000Z</time>
      </trkpt>
      <trkpt lat="47.32029" lon="4.93083">
        <ele>330.7</ele>
        <time>2013-02-16T07:11:57.000Z</time>
      </trkpt>
      <trkpt lat="47.32032" lon="4.93088">
        <ele>331.4</ele>
        <time>2013-02-16T07:12:00.000Z</time>
      </trkpt>
      <trkpt lat="47.32034" lon="4.9309">
        <ele>332.6</ele>
        <time>2013-02-16T07:12:01.000Z</time>
      </trkpt>
      <trkpt lat="47.32037" lon="4.93093">
        <ele>335.2</ele>
        <time>2013-02-16T07:12:04.000Z</time>
      </trkpt>
      <trkpt lat="47.32038" lon="4.93095">
        <ele>335.6</ele>
        <time>2013-02-16T07:12:05.000Z</time>
      </trkpt>
      <trkpt lat="47.32041" lon="4.93098">
        <ele>336.5</ele>
        <time>2013-02-16T07:12:08.000Z</time>
      </trkpt>
      <trkpt lat="47.32042" lon="4.931">
        <ele>336.6</ele>
        <time>2013-02-16T07:12:09.000Z</time>
      </trkpt>
      <trkpt lat="47.32045" lon="4.93104">
        <ele>336</ele>
        <time>2013-02-16T07:12:12.000Z</time>
      </trkpt>
      <trkpt lat="47.32046" lon="4.93105">
        <ele>336.2</ele>
        <time>2013-02-16T07:12:13.000Z</time>
      </trkpt>
      <trkpt lat="47.32049" lon="4.93109">
        <ele>336.3</ele>
        <time>2013-02-16T07:12:15.000Z</time>
      </trkpt>
      <trkpt lat="47.3205" lon="4.93111">
        <ele>336.3</ele>
        <time>2013-02-16T07:12:16.000Z</time>
      </trkpt>
      <trkpt lat="47.32052" lon="4.93114">
        <ele>336.5</ele>
        <time>2013-02-16T07:12:18.000Z</time>
      </trkpt>
      <trkpt lat="47.32054" lon="4.93115">
        <ele>336.7</ele>
        <time>2013-02-16T07:12:19.000Z</time>
      </trkpt>
      <trkpt lat="47.32056" lon="4.93119">
        <ele>336.9</ele>
        <time>2013-02-16T07:12:22.000Z</time>
      </trkpt>
      <trkpt lat="47.32057" lon="4.9312">
        <ele>336.9</ele>
        <time>2013-02-16T07:12:23.000Z</time>
      </trkpt>
      <trkpt lat="47.32059" lon="4.93124">
        <ele>336.5</ele>
        <time>2013-02-16T07:12:26.000Z</time>
      </trkpt>
      <trkpt lat="47.3206" lon="4.93126">
        <ele>336.7</ele>
        <time>2013-02-16T07:12:27.000Z</time>
      </trkpt>
      <trkpt lat="47.32063" lon="4.93129">
        <ele>337.2</ele>
        <time>2013-02-16T07:12:30.000Z</time>
      </trkpt>
      <trkpt lat="47.32065" lon="4.9313">
        <ele>337.3</ele>
        <time>2013-02-16T07:12:31.000Z</time>
      </trkpt>
      <trkpt lat="47.32066" lon="4.93131">
        <ele>337.3</ele>
        <time>2013-02-16T07:12:32.000Z</time>
      </trkpt>
      <trkpt lat="47.32077" lon="4.93152">
        <ele>338.5</ele>
        <time>2013-02-16T07:12:40.000Z</time>
      </trkpt>
      <trkpt lat="47.3208" lon="4.93153">
        <ele>339.7</ele>
        <time>2013-02-16T07:12:43.000Z</time>
      </trkpt>
      <trkpt lat="47.32082" lon="4.93154">
        <ele>340.2</ele>
        <time>2013-02-16T07:12:44.000Z</time>
      </trkpt>
      <trkpt lat="47.32085" lon="4.93156">
        <ele>342.1</ele>
        <time>2013-02-16T07:12:46.000Z</time>
      </trkpt>
      <trkpt lat="47.32086" lon="4.93158">
        <ele>343</ele>
        <time>2013-02-16T07:12:47.000Z</time>
      </trkpt>
      <trkpt lat="47.32089" lon="4.93162">
        <ele>343.4</ele>
        <time>2013-02-16T07:12:50.000Z</time>
      </trkpt>
      <trkpt lat="47.3209" lon="4.93163">
        <ele>343.7</ele>
        <time>2013-02-16T07:12:51.000Z</time>
      </trkpt>
      <trkpt lat="47.32093" lon="4.93165">
        <ele>344.5</ele>
        <time>2013-02-16T07:12:53.000Z</time>
      </trkpt>
      <trkpt lat="47.32094" lon="4.93166">
        <ele>344.3</ele>
        <time>2013-02-16T07:12:54.000Z</time>
      </trkpt>
      <trkpt lat="47.32096" lon="4.93168">
        <ele>343.5</ele>
        <time>2013-02-16T07:12:56.000Z</time>
      </trkpt>
      <trkpt lat="47.321" lon="4.93172">
        <ele>345.6</ele>
        <time>2013-02-16T07:12:57.000Z</time>
      </trkpt>
      <trkpt lat="47.32103" lon="4.93177">
        <ele>344.6</ele>
        <time>2013-02-16T07:13:01.000Z</time>
      </trkpt>
      <trkpt lat="47.32103" lon="4.93178">
        <ele>344.2</ele>
        <time>2013-02-16T07:13:02.000Z</time>
      </trkpt>
      <trkpt lat="47.32105" lon="4.93182">
        <ele>343.8</ele>
        <time>2013-02-16T07:13:06.000Z</time>
      </trkpt>
      <trkpt lat="47.32106" lon="4.93183">
        <ele>344</ele>
        <time>2013-02-16T07:13:07.000Z</time>
      </trkpt>
      <trkpt lat="47.3211" lon="4.93186">
        <ele>344.2</ele>
        <time>2013-02-16T07:13:13.000Z</time>
      </trkpt>
      <trkpt lat="47.32111" lon="4.93187">
        <ele>344</ele>
        <time>2013-02-16T07:13:14.000Z</time>
      </trkpt>
      <trkpt lat="47.32114" lon="4.9319">
        <ele>343.4</ele>
        <time>2013-02-16T07:13:18.000Z</time>
      </trkpt>
      <trkpt lat="47.32115" lon="4.93191">
        <ele>343</ele>
        <time>2013-02-16T07:13:19.000Z</time>
      </trkpt>
      <trkpt lat="47.32118" lon="4.93195">
        <ele>341.7</ele>
        <time>2013-02-16T07:13:23.000Z</time>
      </trkpt>
      <trkpt lat="47.32119" lon="4.93196">
        <ele>341.4</ele>
        <time>2013-02-16T07:13:24.000Z</time>
      </trkpt>
      <trkpt lat="47.32122" lon="4.93201">
        <ele>340.5</ele>
        <time>2013-02-16T07:13:27.000Z</time>
      </trkpt>
      <trkpt lat="47.32123" lon="4.93203">
        <ele>340.2</ele>
        <time>2013-02-16T07:13:28.000Z</time>
      </trkpt>
      <trkpt lat="47.32124" lon="4.93206">
        <ele>339.3</ele>
        <time>2013-02-16T07:13:32.000Z</time>
      </trkpt>
      <trkpt lat="47.32132" lon="4.9322">
        <ele>328</ele>
        <time>2013-02-16T07:13:46.000Z</time>
      </trkpt>
      <trkpt lat="47.32134" lon="4.93225">
        <ele>326.1</ele>
        <time>2013-02-16T07:13:50.000Z</time>
      </trkpt>
      <trkpt lat="47.32134" lon="4.93226">
        <ele>326.6</ele>
        <time>2013-02-16T07:13:51.000Z</time>
      </trkpt>
      <trkpt lat="47.32136" lon="4.93229">
        <ele>328.6</ele>
        <time>2013-02-16T07:13:54.000Z</time>
      </trkpt>
      <trkpt lat="47.32137" lon="4.93231">
        <ele>328.8</ele>
        <time>2013-02-16T07:13:55.000Z</time>
      </trkpt>
      <trkpt lat="47.32139" lon="4.93236">
        <ele>328.9</ele>
        <time>2013-02-16T07:13:58.000Z</time>
      </trkpt>
      <trkpt lat="47.32138" lon="4.93237">
        <ele>329</ele>
        <time>2013-02-16T07:13:59.000Z</time>
      </trkpt>
      <trkpt lat="47.32139" lon="4.93238">
        <ele>330.3</ele>
        <time>2013-02-16T07:14:14.000Z</time>
      </trkpt>
      <trkpt lat="47.32143" lon="4.93241">
        <ele>330.9</ele>
        <time>2013-02-16T07:14:15.000Z</time>
      </trkpt>
      <trkpt lat="47.32146" lon="4.93243">
        <ele>331.3</ele>
        <time>2013-02-16T07:14:17.000Z</time>
      </trkpt>
      <trkpt lat="47.32147" lon="4.93244">
        <ele>331.6</ele>
        <time>2013-02-16T07:14:18.000Z</time>
      </trkpt>
      <trkpt lat="47.32149" lon="4.93247">
        <ele>332.1</ele>
        <time>2013-02-16T07:14:20.000Z</time>
      </trkpt>
      <trkpt lat="47.3215" lon="4.9325">
        <ele>332.2</ele>
        <time>2013-02-16T07:14:21.000Z</time>
      </trkpt>
      <trkpt lat="47.32153" lon="4.93253">
        <ele>332.7</ele>
        <time>2013-02-16T07:14:23.000Z</time>
      </trkpt>
      <trkpt lat="47.32154" lon="4.93254">
        <ele>332.9</ele>
        <time>2013-02-16T07:14:24.000Z</time>
      </trkpt>
      <trkpt lat="47.32158" lon="4.93252">
        <ele>332.2</ele>
        <time>2013-02-16T07:14:26.000Z</time>
      </trkpt>
      <trkpt lat="47.3216" lon="4.93251">
        <ele>331.4</ele>
        <time>2013-02-16T07:14:27.000Z</time>
      </trkpt>
      <trkpt lat="47.32164" lon="4.93251">
        <ele>331.6</ele>
        <time>2013-02-16T07:14:29.000Z</time>
      </trkpt>
      <trkpt lat="47.32166" lon="4.9325">
        <ele>331.6</ele>
        <time>2013-02-16T07:14:30.000Z</time>
      </trkpt>
      <trkpt lat="47.32169" lon="4.93249">
        <ele>331.4</ele>
        <time>2013-02-16T07:14:32.000Z</time>
      </trkpt>
      <trkpt lat="47.3217" lon="4.93248">
        <ele>331.2</ele>
        <time>2013-02-16T07:14:32.000Z</time>
      </trkpt>
      <trkpt lat="47.32174" lon="4.93248">
        <ele>331.6</ele>
        <time>2013-02-16T07:14:35.000Z</time>
      </trkpt>
      <trkpt lat="47.32175" lon="4.93248">
        <ele>331.2</ele>
        <time>2013-02-16T07:14:36.000Z</time>
      </trkpt>
      <trkpt lat="47.32179" lon="4.93248">
        <ele>330.6</ele>
        <time>2013-02-16T07:14:38.000Z</time>
      </trkpt>
      <trkpt lat="47.32181" lon="4.93249">
        <ele>330.4</ele>
        <time>2013-02-16T07:14:39.000Z</time>
      </trkpt>
      <trkpt lat="47.32185" lon="4.93248">
        <ele>329.5</ele>
        <time>2013-02-16T07:14:41.000Z</time>
      </trkpt>
      <trkpt lat="47.32187" lon="4.93249">
        <ele>329.4</ele>
        <time>2013-02-16T07:14:42.000Z</time>
      </trkpt>
      <trkpt lat="47.3219" lon="4.9325">
        <ele>329.5</ele>
        <time>2013-02-16T07:14:44.000Z</time>
      </trkpt>
      <trkpt lat="47.32191" lon="4.9325">
        <ele>329.5</ele>
        <time>2013-02-16T07:14:45.000Z</time>
      </trkpt>
      <trkpt lat="47.32195" lon="4.93252">
        <ele>328.9</ele>
        <time>2013-02-16T07:14:47.000Z</time>
      </trkpt>
      <trkpt lat="47.32196" lon="4.93252">
        <ele>328.9</ele>
        <time>2013-02-16T07:14:48.000Z</time>
      </trkpt>
      <trkpt lat="47.322" lon="4.93253">
        <ele>328.9</ele>
        <time>2013-02-16T07:14:50.000Z</time>
      </trkpt>
      <trkpt lat="47.32202" lon="4.93253">
        <ele>328.9</ele>
        <time>2013-02-16T07:14:51.000Z</time>
      </trkpt>
      <trkpt lat="47.32205" lon="4.93253">
        <ele>328.8</ele>
        <time>2013-02-16T07:14:53.000Z</time>
      </trkpt>
      <trkpt lat="47.32207" lon="4.93254">
        <ele>328.8</ele>
        <time>2013-02-16T07:14:54.000Z</time>
      </trkpt>
      <trkpt lat="47.3221" lon="4.93254">
        <ele>328.5</ele>
        <time>2013-02-16T07:14:56.000Z</time>
      </trkpt>
      <trkpt lat="47.32211" lon="4.93254">
        <ele>328.5</ele>
        <time>2013-02-16T07:14:57.000Z</time>
      </trkpt>
      <trkpt lat="47.32215" lon="4.93255">
        <ele>328.4</ele>
        <time>2013-02-16T07:14:59.000Z</time>
      </trkpt>
      <trkpt lat="47.32216" lon="4.93255">
        <ele>328.4</ele>
        <time>2013-02-16T07:15:00.000Z</time>
      </trkpt>
      <trkpt lat="47.3222" lon="4.93256">
        <ele>328.3</ele>
        <time>2013-02-16T07:15:03.000Z</time>
      </trkpt>
      <trkpt lat="47.32221" lon="4.93256">
        <ele>328.2</ele>
        <time>2013-02-16T07:15:04.000Z</time>
      </trkpt>
      <trkpt lat="47.32224" lon="4.93259">
        <ele>328.4</ele>
        <time>2013-02-16T07:15:07.000Z</time>
      </trkpt>
      <trkpt lat="47.32225" lon="4.9326">
        <ele>328.5</ele>
        <time>2013-02-16T07:15:08.000Z</time>
      </trkpt>
      <trkpt lat="47.32228" lon="4.93262">
        <ele>329</ele>
        <time>2013-02-16T07:15:11.000Z</time>
      </trkpt>
      <trkpt lat="47.32229" lon="4.93263">
        <ele>329.3</ele>
        <time>2013-02-16T07:15:12.000Z</time>
      </trkpt>
      <trkpt lat="47.32232" lon="4.93265">
        <ele>329.6</ele>
        <time>2013-02-16T07:15:14.000Z</time>
      </trkpt>
      <trkpt lat="47.32233" lon="4.93266">
        <ele>329.8</ele>
        <time>2013-02-16T07:15:15.000Z</time>
      </trkpt>
      <trkpt lat="47.32236" lon="4.93267">
        <ele>329.8</ele>
        <time>2013-02-16T07:15:17.000Z</time>
      </trkpt>
      <trkpt lat="47.32238" lon="4.93268">
        <ele>329.7</ele>
        <time>2013-02-16T07:15:18.000Z</time>
      </trkpt>
      <trkpt lat="47.32241" lon="4.9327">
        <ele>329.6</ele>
        <time>2013-02-16T07:15:20.000Z</time>
      </trkpt>
      <trkpt lat="47.32243" lon="4.93272">
        <ele>329.4</ele>
        <time>2013-02-16T07:15:21.000Z</time>
      </trkpt>
      <trkpt lat="47.32246" lon="4.93275">
        <ele>329.5</ele>
        <time>2013-02-16T07:15:23.000Z</time>
      </trkpt>
      <trkpt lat="47.32247" lon="4.93276">
        <ele>329.5</ele>
        <time>2013-02-16T07:15:24.000Z</time>
      </trkpt>
      <trkpt lat="47.32251" lon="4.93279">
        <ele>329.5</ele>
        <time>2013-02-16T07:15:26.000Z</time>
      </trkpt>
      <trkpt lat="47.32252" lon="4.9328">
        <ele>329.6</ele>
        <time>2013-02-16T07:15:27.000Z</time>
      </trkpt>
      <trkpt lat="47.32255" lon="4.93281">
        <ele>329.8</ele>
        <time>2013-02-16T07:15:29.000Z</time>
      </trkpt>
      <trkpt lat="47.32257" lon="4.93282">
        <ele>329.9</ele>
        <time>2013-02-16T07:15:30.000Z</time>
      </trkpt>
      <trkpt lat="47.3226" lon="4.93284">
        <ele>330</ele>
        <time>2013-02-16T07:15:32.000Z</time>
      </trkpt>
      <trkpt lat="47.32261" lon="4.93285">
        <ele>330</ele>
        <time>2013-02-16T07:15:33.000Z</time>
      </trkpt>
      <trkpt lat="47.32265" lon="4.93287">
        <ele>330.3</ele>
        <time>2013-02-16T07:15:36.000Z</time>
      </trkpt>
      <trkpt lat="47.32266" lon="4.93289">
        <ele>330.3</ele>
        <time>2013-02-16T07:15:37.000Z</time>
      </trkpt>
      <trkpt lat="47.3227" lon="4.93291">
        <ele>330.4</ele>
        <time>2013-02-16T07:15:40.000Z</time>
      </trkpt>
      <trkpt lat="47.32271" lon="4.93292">
        <ele>330.5</ele>
        <time>2013-02-16T07:15:41.000Z</time>
      </trkpt>
      <trkpt lat="47.32274" lon="4.93293">
        <ele>330.7</ele>
        <time>2013-02-16T07:15:44.000Z</time>
      </trkpt>
      <trkpt lat="47.32276" lon="4.93294">
        <ele>330.7</ele>
        <time>2013-02-16T07:15:45.000Z</time>
      </trkpt>
      <trkpt lat="47.32279" lon="4.93298">
        <ele>330.8</ele>
        <time>2013-02-16T07:15:48.000Z</time>
      </trkpt>
      <trkpt lat="47.32281" lon="4.93299">
        <ele>330.8</ele>
        <time>2013-02-16T07:15:49.000Z</time>
      </trkpt>
      <trkpt lat="47.32284" lon="4.93303">
        <ele>331</ele>
        <time>2013-02-16T07:15:52.000Z</time>
      </trkpt>
      <trkpt lat="47.32285" lon="4.93304">
        <ele>331.2</ele>
        <time>2013-02-16T07:15:53.000Z</time>
      </trkpt>
      <trkpt lat="47.32289" lon="4.93307">
        <ele>331.8</ele>
        <time>2013-02-16T07:15:56.000Z</time>
      </trkpt>
      <trkpt lat="47.32291" lon="4.93308">
        <ele>331.9</ele>
        <time>2013-02-16T07:15:57.000Z</time>
      </trkpt>
      <trkpt lat="47.32294" lon="4.93309">
        <ele>332.1</ele>
        <time>2013-02-16T07:15:59.000Z</time>
      </trkpt>
      <trkpt lat="47.32296" lon="4.9331">
        <ele>332.2</ele>
        <time>2013-02-16T07:16:00.000Z</time>
      </trkpt>
      <trkpt lat="47.32299" lon="4.93311">
        <ele>332.3</ele>
        <time>2013-02-16T07:16:02.000Z</time>
      </trkpt>
      <trkpt lat="47.32301" lon="4.93311">
        <ele>332.5</ele>
        <time>2013-02-16T07:16:03.000Z</time>
      </trkpt>
      <trkpt lat="47.32305" lon="4.93312">
        <ele>332.4</ele>
        <time>2013-02-16T07:16:05.000Z</time>
      </trkpt>
      <trkpt lat="47.32306" lon="4.93313">
        <ele>332.3</ele>
        <time>2013-02-16T07:16:06.000Z</time>
      </trkpt>
      <trkpt lat="47.3231" lon="4.93316">
        <ele>332.3</ele>
        <time>2013-02-16T07:16:08.000Z</time>
      </trkpt>
      <trkpt lat="47.32312" lon="4.93318">
        <ele>332.3</ele>
        <time>2013-02-16T07:16:09.000Z</time>
      </trkpt>
      <trkpt lat="47.32316" lon="4.93319">
        <ele>332.6</ele>
        <time>2013-02-16T07:16:12.000Z</time>
      </trkpt>
      <trkpt lat="47.32318" lon="4.93319">
        <ele>332.7</ele>
        <time>2013-02-16T07:16:13.000Z</time>
      </trkpt>
      <trkpt lat="47.3232" lon="4.93322">
        <ele>333</ele>
        <time>2013-02-16T07:16:15.000Z</time>
      </trkpt>
      <trkpt lat="47.32322" lon="4.93323">
        <ele>333.1</ele>
        <time>2013-02-16T07:16:16.000Z</time>
      </trkpt>
      <trkpt lat="47.32326" lon="4.93327">
        <ele>333.2</ele>
        <time>2013-02-16T07:16:18.000Z</time>
      </trkpt>
      <trkpt lat="47.32327" lon="4.93328">
        <ele>333.2</ele>
        <time>2013-02-16T07:16:19.000Z</time>
      </trkpt>
      <trkpt lat="47.3233" lon="4.93333">
        <ele>333.3</ele>
        <time>2013-02-16T07:16:21.000Z</time>
      </trkpt>
      <trkpt lat="47.32331" lon="4.93335">
        <ele>333.4</ele>
        <time>2013-02-16T07:16:22.000Z</time>
      </trkpt>
      <trkpt lat="47.32335" lon="4.93339">
        <ele>333.3</ele>
        <time>2013-02-16T07:16:24.000Z</time>
      </trkpt>
      <trkpt lat="47.32336" lon="4.9334">
        <ele>333.4</ele>
        <time>2013-02-16T07:16:25.000Z</time>
      </trkpt>
      <trkpt lat="47.32339" lon="4.93343">
        <ele>333.6</ele>
        <time>2013-02-16T07:16:27.000Z</time>
      </trkpt>
      <trkpt lat="47.3234" lon="4.93345">
        <ele>333.7</ele>
        <time>2013-02-16T07:16:28.000Z</time>
      </trkpt>
      <trkpt lat="47.32343" lon="4.93349">
        <ele>334</ele>
        <time>2013-02-16T07:16:31.000Z</time>
      </trkpt>
      <trkpt lat="47.32345" lon="4.93351">
        <ele>334</ele>
        <time>2013-02-16T07:16:32.000Z</time>
      </trkpt>
      <trkpt lat="47.32365" lon="4.93376">
        <ele>335.9</ele>
        <time>2013-02-16T07:16:39.000Z</time>
      </trkpt>
      <trkpt lat="47.32367" lon="4.93378">
        <ele>338.1</ele>
        <time>2013-02-16T07:16:40.000Z</time>
      </trkpt>
      <trkpt lat="47.32369" lon="4.93379">
        <ele>339.3</ele>
        <time>2013-02-16T07:16:41.000Z</time>
      </trkpt>
      <trkpt lat="47.32373" lon="4.93383">
        <ele>340.7</ele>
        <time>2013-02-16T07:16:43.000Z</time>
      </trkpt>
      <trkpt lat="47.32374" lon="4.93385">
        <ele>340.6</ele>
        <time>2013-02-16T07:16:44.000Z</time>
      </trkpt>
      <trkpt lat="47.32376" lon="4.93389">
        <ele>342.7</ele>
        <time>2013-02-16T07:16:48.000Z</time>
      </trkpt>
      <trkpt lat="47.32377" lon="4.9339">
        <ele>343.4</ele>
        <time>2013-02-16T07:16:49.000Z</time>
      </trkpt>
      <trkpt lat="47.3238" lon="4.93392">
        <ele>345.7</ele>
        <time>2013-02-16T07:16:53.000Z</time>
      </trkpt>
      <trkpt lat="47.32381" lon="4.93393">
        <ele>346.5</ele>
        <time>2013-02-16T07:16:54.000Z</time>
      </trkpt>
      <trkpt lat="47.32384" lon="4.93394">
        <ele>346.6</ele>
        <time>2013-02-16T07:16:56.000Z</time>
      </trkpt>
      <trkpt lat="47.32386" lon="4.93395">
        <ele>346.5</ele>
        <time>2013-02-16T07:16:57.000Z</time>
      </trkpt>
      <trkpt lat="47.3239" lon="4.93398">
        <ele>346.1</ele>
        <time>2013-02-16T07:17:00.000Z</time>
      </trkpt>
      <trkpt lat="47.32391" lon="4.934">
        <ele>344.9</ele>
        <time>2013-02-16T07:17:01.000Z</time>
      </trkpt>
      <trkpt lat="47.32394" lon="4.93403">
        <ele>342.7</ele>
        <time>2013-02-16T07:17:03.000Z</time>
      </trkpt>
      <trkpt lat="47.32396" lon="4.93404">
        <ele>342.7</ele>
        <time>2013-02-16T07:17:04.000Z</time>
      </trkpt>
      <trkpt lat="47.32399" lon="4.93409">
        <ele>341.9</ele>
        <time>2013-02-16T07:17:06.000Z</time>
      </trkpt>
      <trkpt lat="47.32401" lon="4.93411">
        <ele>341.6</ele>
        <time>2013-02-16T07:17:07.000Z</time>
      </trkpt>
      <trkpt lat="47.32403" lon="4.93414">
        <ele>340.9</ele>
        <time>2013-02-16T07:17:09.000Z</time>
      </trkpt>
      <trkpt lat="47.32405" lon="4.93416">
        <ele>340.6</ele>
        <time>2013-02-16T07:17:10.000Z</time>
      </trkpt>
      <trkpt lat="47.32408" lon="4.9342">
        <ele>340.3</ele>
        <time>2013-02-16T07:17:12.000Z</time>
      </trkpt>
      <trkpt lat="47.32409" lon="4.93421">
        <ele>340.3</ele>
        <time>2013-02-16T07:17:13.000Z</time>
      </trkpt>
      <trkpt lat="47.32412" lon="4.93424">
        <ele>340.1</ele>
        <time>2013-02-16T07:17:15.000Z</time>
      </trkpt>
      <trkpt lat="47.32413" lon="4.93425">
        <ele>340</ele>
        <time>2013-02-16T07:17:16.000Z</time>
      </trkpt>
      <trkpt lat="47.32416" lon="4.93428">
        <ele>340</ele>
        <time>2013-02-16T07:17:19.000Z</time>
      </trkpt>
      <trkpt lat="47.32417" lon="4.9343">
        <ele>340.2</ele>
        <time>2013-02-16T07:17:20.000Z</time>
      </trkpt>
      <trkpt lat="47.3242" lon="4.93433">
        <ele>340.5</ele>
        <time>2013-02-16T07:17:23.000Z</time>
      </trkpt>
      <trkpt lat="47.32421" lon="4.93434">
        <ele>340.4</ele>
        <time>2013-02-16T07:17:24.000Z</time>
      </trkpt>
      <trkpt lat="47.32424" lon="4.93438">
        <ele>340.7</ele>
        <time>2013-02-16T07:17:27.000Z</time>
      </trkpt>
      <trkpt lat="47.32426" lon="4.93439">
        <ele>340.9</ele>
        <time>2013-02-16T07:17:28.000Z</time>
      </trkpt>
      <trkpt lat="47.32428" lon="4.93442">
        <ele>341.2</ele>
        <time>2013-02-16T07:17:30.000Z</time>
      </trkpt>
      <trkpt lat="47.3243" lon="4.93443">
        <ele>341.3</ele>
        <time>2013-02-16T07:17:31.000Z</time>
      </trkpt>
      <trkpt lat="47.32431" lon="4.93445">
        <ele>341.4</ele>
        <time>2013-02-16T07:17:32.000Z</time>
      </trkpt>
      <trkpt lat="47.32451" lon="4.93469">
        <ele>339.5</ele>
        <time>2013-02-16T07:17:46.000Z</time>
      </trkpt>
      <trkpt lat="47.32455" lon="4.93471">
        <ele>339</ele>
        <time>2013-02-16T07:17:49.000Z</time>
      </trkpt>
      <trkpt lat="47.32456" lon="4.93471">
        <ele>338.9</ele>
        <time>2013-02-16T07:17:50.000Z</time>
      </trkpt>
      <trkpt lat="47.32459" lon="4.93472">
        <ele>340</ele>
        <time>2013-02-16T07:17:52.000Z</time>
      </trkpt>
      <trkpt lat="47.3246" lon="4.93472">
        <ele>339.8</ele>
        <time>2013-02-16T07:17:53.000Z</time>
      </trkpt>
      <trkpt lat="47.32464" lon="4.93473">
        <ele>339.4</ele>
        <time>2013-02-16T07:17:56.000Z</time>
      </trkpt>
      <trkpt lat="47.32465" lon="4.93474">
        <ele>339.1</ele>
        <time>2013-02-16T07:17:57.000Z</time>
      </trkpt>
      <trkpt lat="47.32469" lon="4.93477">
        <ele>339.1</ele>
        <time>2013-02-16T07:18:00.000Z</time>
      </trkpt>
      <trkpt lat="47.3247" lon="4.93478">
        <ele>339.1</ele>
        <time>2013-02-16T07:18:01.000Z</time>
      </trkpt>
      <trkpt lat="47.32474" lon="4.93479">
        <ele>339.8</ele>
        <time>2013-02-16T07:18:04.000Z</time>
      </trkpt>
      <trkpt lat="47.32475" lon="4.93479">
        <ele>339.7</ele>
        <time>2013-02-16T07:18:05.000Z</time>
      </trkpt>
      <trkpt lat="47.32479" lon="4.9348">
        <ele>340</ele>
        <time>2013-02-16T07:18:07.000Z</time>
      </trkpt>
      <trkpt lat="47.3248" lon="4.9348">
        <ele>340.1</ele>
        <time>2013-02-16T07:18:08.000Z</time>
      </trkpt>
      <trkpt lat="47.32483" lon="4.93482">
        <ele>340.4</ele>
        <time>2013-02-16T07:18:10.000Z</time>
      </trkpt>
      <trkpt lat="47.32485" lon="4.93482">
        <ele>340.6</ele>
        <time>2013-02-16T07:18:11.000Z</time>
      </trkpt>
      <trkpt lat="47.32489" lon="4.93484">
        <ele>340.9</ele>
        <time>2013-02-16T07:18:13.000Z</time>
      </trkpt>
      <trkpt lat="47.32492" lon="4.93485">
        <ele>340.9</ele>
        <time>2013-02-16T07:18:14.000Z</time>
      </trkpt>
      <trkpt lat="47.32494" lon="4.93485">
        <ele>341</ele>
        <time>2013-02-16T07:18:15.000Z</time>
      </trkpt>
      <trkpt lat="47.32496" lon="4.93486">
        <ele>340.7</ele>
        <time>2013-02-16T07:18:16.000Z</time>
      </trkpt>
      <trkpt lat="47.32499" lon="4.93487">
        <ele>340.7</ele>
        <time>2013-02-16T07:18:17.000Z</time>
      </trkpt>
      <trkpt lat="47.32502" lon="4.93487">
        <ele>340</ele>
        <time>2013-02-16T07:18:18.000Z</time>
      </trkpt>
      <trkpt lat="47.32505" lon="4.93488">
        <ele>339.6</ele>
        <time>2013-02-16T07:18:19.000Z</time>
      </trkpt>
      <trkpt lat="47.32507" lon="4.93488">
        <ele>339.3</ele>
        <time>2013-02-16T07:18:20.000Z</time>
      </trkpt>
      <trkpt lat="47.32509" lon="4.93488">
        <ele>338.9</ele>
        <time>2013-02-16T07:18:21.000Z</time>
      </trkpt>
      <trkpt lat="47.32512" lon="4.93489">
        <ele>338.8</ele>
        <time>2013-02-16T07:18:22.000Z</time>
      </trkpt>
      <trkpt lat="47.32514" lon="4.9349">
        <ele>338.9</ele>
        <time>2013-02-16T07:18:23.000Z</time>
      </trkpt>
      <trkpt lat="47.32516" lon="4.93491">
        <ele>338.5</ele>
        <time>2013-02-16T07:18:24.000Z</time>
      </trkpt>
      <trkpt lat="47.32518" lon="4.93492">
        <ele>338.4</ele>
        <time>2013-02-16T07:18:25.000Z</time>
      </trkpt>
      <trkpt lat="47.3252" lon="4.93493">
        <ele>338.1</ele>
        <time>2013-02-16T07:18:26.000Z</time>
      </trkpt>
      <trkpt lat="47.32523" lon="4.93495">
        <ele>337.5</ele>
        <time>2013-02-16T07:18:27.000Z</time>
      </trkpt>
      <trkpt lat="47.32524" lon="4.93497">
        <ele>337.1</ele>
        <time>2013-02-16T07:18:28.000Z</time>
      </trkpt>
      <trkpt lat="47.32528" lon="4.935">
        <ele>336.5</ele>
        <time>2013-02-16T07:18:30.000Z</time>
      </trkpt>
      <trkpt lat="47.32531" lon="4.93502">
        <ele>336.2</ele>
        <time>2013-02-16T07:18:31.000Z</time>
      </trkpt>
      <trkpt lat="47.32533" lon="4.93503">
        <ele>336</ele>
        <time>2013-02-16T07:18:32.000Z</time>
      </trkpt>
      <trkpt lat="47.32536" lon="4.93504">
        <ele>335.8</ele>
        <time>2013-02-16T07:18:33.000Z</time>
      </trkpt>
      <trkpt lat="47.32538" lon="4.93505">
        <ele>335.5</ele>
        <time>2013-02-16T07:18:34.000Z</time>
      </trkpt>
      <trkpt lat="47.3254" lon="4.93507">
        <ele>335</ele>
        <time>2013-02-16T07:18:35.000Z</time>
      </trkpt>
      <trkpt lat="47.32543" lon="4.93508">
        <ele>334.6</ele>
        <time>2013-02-16T07:18:36.000Z</time>
      </trkpt>
      <trkpt lat="47.32545" lon="4.93511">
        <ele>334.2</ele>
        <time>2013-02-16T07:18:37.000Z</time>
      </trkpt>
      <trkpt lat="47.32546" lon="4.93515">
        <ele>333.5</ele>
        <time>2013-02-16T07:18:39.000Z</time>
      </trkpt>
      <trkpt lat="47.32547" lon="4.93518">
        <ele>333.2</ele>
        <time>2013-02-16T07:18:40.000Z</time>
      </trkpt>
      <trkpt lat="47.3255" lon="4.93522">
        <ele>332.8</ele>
        <time>2013-02-16T07:18:41.000Z</time>
      </trkpt>
      <trkpt lat="47.32552" lon="4.93525">
        <ele>332.7</ele>
        <time>2013-02-16T07:18:42.000Z</time>
      </trkpt>
      <trkpt lat="47.32554" lon="4.93527">
        <ele>332.5</ele>
        <time>2013-02-16T07:18:43.000Z</time>
      </trkpt>
      <trkpt lat="47.32555" lon="4.9353">
        <ele>332.5</ele>
        <time>2013-02-16T07:18:44.000Z</time>
      </trkpt>
      <trkpt lat="47.32558" lon="4.93536">
        <ele>332.2</ele>
        <time>2013-02-16T07:18:46.000Z</time>
      </trkpt>
      <trkpt lat="47.32559" lon="4.93539">
        <ele>332</ele>
        <time>2013-02-16T07:18:47.000Z</time>
      </trkpt>
      <trkpt lat="47.32561" lon="4.93542">
        <ele>331.8</ele>
        <time>2013-02-16T07:18:48.000Z</time>
      </trkpt>
      <trkpt lat="47.32562" lon="4.93544">
        <ele>331.7</ele>
        <time>2013-02-16T07:18:49.000Z</time>
      </trkpt>
      <trkpt lat="47.32564" lon="4.93549">
        <ele>331.6</ele>
        <time>2013-02-16T07:18:51.000Z</time>
      </trkpt>
      <trkpt lat="47.32566" lon="4.93552">
        <ele>331.5</ele>
        <time>2013-02-16T07:18:52.000Z</time>
      </trkpt>
      <trkpt lat="47.32568" lon="4.93557">
        <ele>331.4</ele>
        <time>2013-02-16T07:18:54.000Z</time>
      </trkpt>
      <trkpt lat="47.32569" lon="4.93559">
        <ele>331.6</ele>
        <time>2013-02-16T07:18:55.000Z</time>
      </trkpt>
      <trkpt lat="47.32571" lon="4.93563">
        <ele>332</ele>
        <time>2013-02-16T07:18:57.000Z</time>
      </trkpt>
      <trkpt lat="47.32573" lon="4.93566">
        <ele>332</ele>
        <time>2013-02-16T07:18:58.000Z</time>
      </trkpt>
      <trkpt lat="47.32575" lon="4.93571">
        <ele>332.3</ele>
        <time>2013-02-16T07:19:00.000Z</time>
      </trkpt>
      <trkpt lat="47.32576" lon="4.93574">
        <ele>332.3</ele>
        <time>2013-02-16T07:19:01.000Z</time>
      </trkpt>
      <trkpt lat="47.32579" lon="4.93579">
        <ele>332.3</ele>
        <time>2013-02-16T07:19:03.000Z</time>
      </trkpt>
      <trkpt lat="47.3258" lon="4.93581">
        <ele>332.3</ele>
        <time>2013-02-16T07:19:04.000Z</time>
      </trkpt>
      <trkpt lat="47.32582" lon="4.93584">
        <ele>332.2</ele>
        <time>2013-02-16T07:19:05.000Z</time>
      </trkpt>
      <trkpt lat="47.32583" lon="4.93588">
        <ele>332.3</ele>
        <time>2013-02-16T07:19:06.000Z</time>
      </trkpt>
      <trkpt lat="47.32585" lon="4.93593">
        <ele>332.3</ele>
        <time>2013-02-16T07:19:08.000Z</time>
      </trkpt>
      <trkpt lat="47.32587" lon="4.93597">
        <ele>332.5</ele>
        <time>2013-02-16T07:19:09.000Z</time>
      </trkpt>
      <trkpt lat="47.32589" lon="4.936">
        <ele>332.6</ele>
        <time>2013-02-16T07:19:11.000Z</time>
      </trkpt>
      <trkpt lat="47.3259" lon="4.93601">
        <ele>332.8</ele>
        <time>2013-02-16T07:19:12.000Z</time>
      </trkpt>
      <trkpt lat="47.32592" lon="4.93606">
        <ele>332.8</ele>
        <time>2013-02-16T07:19:14.000Z</time>
      </trkpt>
      <trkpt lat="47.32593" lon="4.93608">
        <ele>332.7</ele>
        <time>2013-02-16T07:19:15.000Z</time>
      </trkpt>
      <trkpt lat="47.32596" lon="4.93612">
        <ele>332.4</ele>
        <time>2013-02-16T07:19:17.000Z</time>
      </trkpt>
      <trkpt lat="47.32597" lon="4.93614">
        <ele>332.3</ele>
        <time>2013-02-16T07:19:18.000Z</time>
      </trkpt>
      <trkpt lat="47.32599" lon="4.93618">
        <ele>332.1</ele>
        <time>2013-02-16T07:19:20.000Z</time>
      </trkpt>
      <trkpt lat="47.326" lon="4.9362">
        <ele>332</ele>
        <time>2013-02-16T07:19:21.000Z</time>
      </trkpt>
      <trkpt lat="47.32602" lon="4.93625">
        <ele>331.8</ele>
        <time>2013-02-16T07:19:24.000Z</time>
      </trkpt>
      <trkpt lat="47.32603" lon="4.93627">
        <ele>331.9</ele>
        <time>2013-02-16T07:19:25.000Z</time>
      </trkpt>
      <trkpt lat="47.32604" lon="4.93632">
        <ele>332.1</ele>
        <time>2013-02-16T07:19:28.000Z</time>
      </trkpt>
      <trkpt lat="47.32606" lon="4.93635">
        <ele>332</ele>
        <time>2013-02-16T07:19:29.000Z</time>
      </trkpt>
      <trkpt lat="47.32607" lon="4.9364">
        <ele>332</ele>
        <time>2013-02-16T07:19:31.000Z</time>
      </trkpt>
      <trkpt lat="47.32608" lon="4.93642">
        <ele>331.8</ele>
        <time>2013-02-16T07:19:32.000Z</time>
      </trkpt>
      <trkpt lat="47.32623" lon="4.93671">
        <ele>325.9</ele>
        <time>2013-02-16T07:19:40.000Z</time>
      </trkpt>
      <trkpt lat="47.32623" lon="4.93674">
        <ele>322.5</ele>
        <time>2013-02-16T07:19:45.000Z</time>
      </trkpt>
      <trkpt lat="47.32625" lon="4.93677">
        <ele>322.2</ele>
        <time>2013-02-16T07:19:46.000Z</time>
      </trkpt>
      <trkpt lat="47.32628" lon="4.93681">
        <ele>322.9</ele>
        <time>2013-02-16T07:19:48.000Z</time>
      </trkpt>
      <trkpt lat="47.32629" lon="4.93682">
        <ele>323.1</ele>
        <time>2013-02-16T07:19:49.000Z</time>
      </trkpt>
      <trkpt lat="47.32631" lon="4.93687">
        <ele>325</ele>
        <time>2013-02-16T07:19:51.000Z</time>
      </trkpt>
      <trkpt lat="47.32632" lon="4.93689">
        <ele>325.7</ele>
        <time>2013-02-16T07:19:52.000Z</time>
      </trkpt>
      <trkpt lat="47.32635" lon="4.93694">
        <ele>327.6</ele>
        <time>2013-02-16T07:19:56.000Z</time>
      </trkpt>
      <trkpt lat="47.32636" lon="4.93696">
        <ele>328.3</ele>
        <time>2013-02-16T07:19:57.000Z</time>
      </trkpt>
      <trkpt lat="47.32636" lon="4.93696">
        <ele>328.3</ele>
        <time>2013-02-16T07:20:05.000Z</time>
      </trkpt>
      <trkpt lat="47.32642" lon="4.93708">
        <ele>329</ele>
        <time>2013-02-16T07:20:06.000Z</time>
      </trkpt>
      <trkpt lat="47.32645" lon="4.93713">
        <ele>328.7</ele>
        <time>2013-02-16T07:20:08.000Z</time>
      </trkpt>
      <trkpt lat="47.32646" lon="4.93715">
        <ele>328.9</ele>
        <time>2013-02-16T07:20:09.000Z</time>
      </trkpt>
      <trkpt lat="47.32649" lon="4.9372">
        <ele>328.5</ele>
        <time>2013-02-16T07:20:11.000Z</time>
      </trkpt>
      <trkpt lat="47.32651" lon="4.93722">
        <ele>328.7</ele>
        <time>2013-02-16T07:20:12.000Z</time>
      </trkpt>
      <trkpt lat="47.32653" lon="4.93727">
        <ele>328.9</ele>
        <time>2013-02-16T07:20:14.000Z</time>
      </trkpt>
      <trkpt lat="47.32654" lon="4.93729">
        <ele>328.8</ele>
        <time>2013-02-16T07:20:15.000Z</time>
      </trkpt>
      <trkpt lat="47.32656" lon="4.93731">
        <ele>328.9</ele>
        <time>2013-02-16T07:20:16.000Z</time>
      </trkpt>
      <trkpt lat="47.32658" lon="4.93733">
        <ele>328.8</ele>
        <time>2013-02-16T07:20:17.000Z</time>
      </trkpt>
      <trkpt lat="47.3266" lon="4.93738">
        <ele>328.5</ele>
        <time>2013-02-16T07:20:19.000Z</time>
      </trkpt>
      <trkpt lat="47.32662" lon="4.93741">
        <ele>328.3</ele>
        <time>2013-02-16T07:20:20.000Z</time>
      </trkpt>
      <trkpt lat="47.32664" lon="4.93745">
        <ele>328.4</ele>
        <time>2013-02-16T07:20:22.000Z</time>
      </trkpt>
      <trkpt lat="47.32665" lon="4.93747">
        <ele>328.4</ele>
        <time>2013-02-16T07:20:23.000Z</time>
      </trkpt>
      <trkpt lat="47.32667" lon="4.93752">
        <ele>328.6</ele>
        <time>2013-02-16T07:20:25.000Z</time>
      </trkpt>
      <trkpt lat="47.32668" lon="4.93754">
        <ele>328.7</ele>
        <time>2013-02-16T07:20:26.000Z</time>
      </trkpt>
      <trkpt lat="47.3267" lon="4.93759">
        <ele>328.8</ele>
        <time>2013-02-16T07:20:28.000Z</time>
      </trkpt>
      <trkpt lat="47.32671" lon="4.93762">
        <ele>329</ele>
        <time>2013-02-16T07:20:29.000Z</time>
      </trkpt>
      <trkpt lat="47.32672" lon="4.93766">
        <ele>329.3</ele>
        <time>2013-02-16T07:20:31.000Z</time>
      </trkpt>
      <trkpt lat="47.32674" lon="4.93769">
        <ele>329.3</ele>
        <time>2013-02-16T07:20:32.000Z</time>
      </trkpt>
      <trkpt lat="47.32693" lon="4.93804">
        <ele>327.5</ele>
        <time>2013-02-16T07:20:44.000Z</time>
      </trkpt>
      <trkpt lat="47.32696" lon="4.93808">
        <ele>329.9</ele>
        <time>2013-02-16T07:20:48.000Z</time>
      </trkpt>
      <trkpt lat="47.32697" lon="4.9381">
        <ele>330.1</ele>
        <time>2013-02-16T07:20:49.000Z</time>
      </trkpt>
      <trkpt lat="47.32699" lon="4.93813">
        <ele>330.8</ele>
        <time>2013-02-16T07:20:51.000Z</time>
      </trkpt>
      <trkpt lat="47.32701" lon="4.93815">
        <ele>330.9</ele>
        <time>2013-02-16T07:20:52.000Z</time>
      </trkpt>
      <trkpt lat="47.32704" lon="4.93818">
        <ele>331.7</ele>
        <time>2013-02-16T07:20:55.000Z</time>
      </trkpt>
      <trkpt lat="47.32705" lon="4.9382">
        <ele>331.8</ele>
        <time>2013-02-16T07:20:56.000Z</time>
      </trkpt>
      <trkpt lat="47.32708" lon="4.93823">
        <ele>331.4</ele>
        <time>2013-02-16T07:20:58.000Z</time>
      </trkpt>
      <trkpt lat="47.3271" lon="4.93825">
        <ele>331.5</ele>
        <time>2013-02-16T07:20:59.000Z</time>
      </trkpt>
      <trkpt lat="47.32711" lon="4.93828">
        <ele>331.2</ele>
        <time>2013-02-16T07:21:00.000Z</time>
      </trkpt>
      <trkpt lat="47.32714" lon="4.9383">
        <ele>331.2</ele>
        <time>2013-02-16T07:21:01.000Z</time>
      </trkpt>
      <trkpt lat="47.32716" lon="4.93834">
        <ele>331</ele>
        <time>2013-02-16T07:21:03.000Z</time>
      </trkpt>
      <trkpt lat="47.32717" lon="4.93835">
        <ele>331</ele>
        <time>2013-02-16T07:21:04.000Z</time>
      </trkpt>
      <trkpt lat="47.32719" lon="4.93838">
        <ele>330.6</ele>
        <time>2013-02-16T07:21:06.000Z</time>
      </trkpt>
      <trkpt lat="47.32721" lon="4.9384">
        <ele>330.6</ele>
        <time>2013-02-16T07:21:07.000Z</time>
      </trkpt>
      <trkpt lat="47.32723" lon="4.93843">
        <ele>330.3</ele>
        <time>2013-02-16T07:21:09.000Z</time>
      </trkpt>
      <trkpt lat="47.32724" lon="4.93845">
        <ele>330.5</ele>
        <time>2013-02-16T07:21:10.000Z</time>
      </trkpt>
      <trkpt lat="47.32726" lon="4.93848">
        <ele>330</ele>
        <time>2013-02-16T07:21:12.000Z</time>
      </trkpt>
      <trkpt lat="47.32727" lon="4.93851">
        <ele>329.9</ele>
        <time>2013-02-16T07:21:13.000Z</time>
      </trkpt>
      <trkpt lat="47.32729" lon="4.93853">
        <ele>329.9</ele>
        <time>2013-02-16T07:21:14.000Z</time>
      </trkpt>
      <trkpt lat="47.32731" lon="4.93856">
        <ele>330.1</ele>
        <time>2013-02-16T07:21:15.000Z</time>
      </trkpt>
      <trkpt lat="47.32732" lon="4.93859">
        <ele>329.9</ele>
        <time>2013-02-16T07:21:16.000Z</time>
      </trkpt>
      <trkpt lat="47.32733" lon="4.93861">
        <ele>330.1</ele>
        <time>2013-02-16T07:21:17.000Z</time>
      </trkpt>
      <trkpt lat="47.32735" lon="4.93866">
        <ele>329.8</ele>
        <time>2013-02-16T07:21:19.000Z</time>
      </trkpt>
      <trkpt lat="47.32737" lon="4.93869">
        <ele>329.7</ele>
        <time>2013-02-16T07:21:20.000Z</time>
      </trkpt>
      <trkpt lat="47.32739" lon="4.93873">
        <ele>329.6</ele>
        <time>2013-02-16T07:21:22.000Z</time>
      </trkpt>
      <trkpt lat="47.3274" lon="4.93876">
        <ele>329.5</ele>
        <time>2013-02-16T07:21:23.000Z</time>
      </trkpt>
      <trkpt lat="47.32742" lon="4.93879">
        <ele>329.5</ele>
        <time>2013-02-16T07:21:25.000Z</time>
      </trkpt>
      <trkpt lat="47.32743" lon="4.93881">
        <ele>329.6</ele>
        <time>2013-02-16T07:21:26.000Z</time>
      </trkpt>
      <trkpt lat="47.32746" lon="4.93883">
        <ele>330.3</ele>
        <time>2013-02-16T07:21:31.000Z</time>
      </trkpt>
      <trkpt lat="47.32748" lon="4.93888">
        <ele>330.5</ele>
        <time>2013-02-16T07:21:32.000Z</time>
      </trkpt>
      <trkpt lat="47.32763" lon="4.93912">
        <ele>332.6</ele>
        <time>2013-02-16T07:21:38.000Z</time>
      </trkpt>
      <trkpt lat="47.32765" lon="4.93916">
        <ele>332.5</ele>
        <time>2013-02-16T07:21:40.000Z</time>
      </trkpt>
      <trkpt lat="47.32766" lon="4.93917">
        <ele>333.2</ele>
        <time>2013-02-16T07:21:41.000Z</time>
      </trkpt>
      <trkpt lat="47.32768" lon="4.93922">
        <ele>332.2</ele>
        <time>2013-02-16T07:21:45.000Z</time>
      </trkpt>
      <trkpt lat="47.32769" lon="4.93924">
        <ele>332</ele>
        <time>2013-02-16T07:21:46.000Z</time>
      </trkpt>
      <trkpt lat="47.32772" lon="4.93929">
        <ele>332.3</ele>
        <time>2013-02-16T07:21:48.000Z</time>
      </trkpt>
      <trkpt lat="47.32771" lon="4.9393">
        <ele>331.7</ele>
        <time>2013-02-16T07:21:49.000Z</time>
      </trkpt>
      <trkpt lat="47.32774" lon="4.93934">
        <ele>331.9</ele>
        <time>2013-02-16T07:21:51.000Z</time>
      </trkpt>
      <trkpt lat="47.32775" lon="4.93936">
        <ele>331.3</ele>
        <time>2013-02-16T07:21:52.000Z</time>
      </trkpt>
      <trkpt lat="47.32777" lon="4.93941">
        <ele>330.4</ele>
        <time>2013-02-16T07:21:54.000Z</time>
      </trkpt>
      <trkpt lat="47.32777" lon="4.93943">
        <ele>329.8</ele>
        <time>2013-02-16T07:21:55.000Z</time>
      </trkpt>
      <trkpt lat="47.32779" lon="4.93948">
        <ele>329.5</ele>
        <time>2013-02-16T07:21:57.000Z</time>
      </trkpt>
      <trkpt lat="47.3278" lon="4.9395">
        <ele>329.2</ele>
        <time>2013-02-16T07:21:58.000Z</time>
      </trkpt>
      <trkpt lat="47.32783" lon="4.93954">
        <ele>329.7</ele>
        <time>2013-02-16T07:22:01.000Z</time>
      </trkpt>
      <trkpt lat="47.32784" lon="4.93956">
        <ele>329.6</ele>
        <time>2013-02-16T07:22:02.000Z</time>
      </trkpt>
      <trkpt lat="47.32786" lon="4.9396">
        <ele>329.7</ele>
        <time>2013-02-16T07:22:04.000Z</time>
      </trkpt>
      <trkpt lat="47.32787" lon="4.93962">
        <ele>329.7</ele>
        <time>2013-02-16T07:22:05.000Z</time>
      </trkpt>
      <trkpt lat="47.32789" lon="4.93965">
        <ele>329.6</ele>
        <time>2013-02-16T07:22:07.000Z</time>
      </trkpt>
      <trkpt lat="47.3279" lon="4.93967">
        <ele>329.6</ele>
        <time>2013-02-16T07:22:08.000Z</time>
      </trkpt>
      <trkpt lat="47.32793" lon="4.93971">
        <ele>329.6</ele>
        <time>2013-02-16T07:22:14.000Z</time>
      </trkpt>
      <trkpt lat="47.32795" lon="4.93973">
        <ele>329.4</ele>
        <time>2013-02-16T07:22:15.000Z</time>
      </trkpt>
      <trkpt lat="47.32796" lon="4.93976">
        <ele>329.1</ele>
        <time>2013-02-16T07:22:16.000Z</time>
      </trkpt>
      <trkpt lat="47.32798" lon="4.93978">
        <ele>329</ele>
        <time>2013-02-16T07:22:17.000Z</time>
      </trkpt>
      <trkpt lat="47.32801" lon="4.93983">
        <ele>328.6</ele>
        <time>2013-02-16T07:22:19.000Z</time>
      </trkpt>
      <trkpt lat="47.32803" lon="4.93986">
        <ele>328.4</ele>
        <time>2013-02-16T07:22:20.000Z</time>
      </trkpt>
      <trkpt lat="47.32805" lon="4.93989">
        <ele>328.3</ele>
        <time>2013-02-16T07:22:21.000Z</time>
      </trkpt>
      <trkpt lat="47.32806" lon="4.93991">
        <ele>328.2</ele>
        <time>2013-02-16T07:22:22.000Z</time>
      </trkpt>
      <trkpt lat="47.32809" lon="4.93994">
        <ele>328</ele>
        <time>2013-02-16T07:22:23.000Z</time>
      </trkpt>
      <trkpt lat="47.3281" lon="4.93996">
        <ele>327.9</ele>
        <time>2013-02-16T07:22:24.000Z</time>
      </trkpt>
      <trkpt lat="47.32812" lon="4.93999">
        <ele>327.8</ele>
        <time>2013-02-16T07:22:25.000Z</time>
      </trkpt>
      <trkpt lat="47.32814" lon="4.94001">
        <ele>327.5</ele>
        <time>2013-02-16T07:22:26.000Z</time>
      </trkpt>
      <trkpt lat="47.32816" lon="4.94004">
        <ele>327.2</ele>
        <time>2013-02-16T07:22:27.000Z</time>
      </trkpt>
      <trkpt lat="47.32817" lon="4.94006">
        <ele>327</ele>
        <time>2013-02-16T07:22:28.000Z</time>
      </trkpt>
      <trkpt lat="47.3282" lon="4.9401">
        <ele>326.7</ele>
        <time>2013-02-16T07:22:30.000Z</time>
      </trkpt>
      <trkpt lat="47.32821" lon="4.94012">
        <ele>326.7</ele>
        <time>2013-02-16T07:22:31.000Z</time>
      </trkpt>
      <trkpt lat="47.32822" lon="4.94014">
        <ele>326.5</ele>
        <time>2013-02-16T07:22:32.000Z</time>
      </trkpt>
      <trkpt lat="47.32831" lon="4.94027">
        <ele>324.1</ele>
        <time>2013-02-16T07:22:39.000Z</time>
      </trkpt>
      <trkpt lat="47.32833" lon="4.9403">
        <ele>323.2</ele>
        <time>2013-02-16T07:22:41.000Z</time>
      </trkpt>
      <trkpt lat="47.32834" lon="4.94032">
        <ele>323.2</ele>
        <time>2013-02-16T07:22:42.000Z</time>
      </trkpt>
      <trkpt lat="47.32835" lon="4.94036">
        <ele>322.6</ele>
        <time>2013-02-16T07:22:45.000Z</time>
      </trkpt>
      <trkpt lat="47.32836" lon="4.94038">
        <ele>322.5</ele>
        <time>2013-02-16T07:22:46.000Z</time>
      </trkpt>
      <trkpt lat="47.32838" lon="4.94043">
        <ele>322</ele>
        <time>2013-02-16T07:22:48.000Z</time>
      </trkpt>
      <trkpt lat="47.32839" lon="4.94045">
        <ele>321.8</ele>
        <time>2013-02-16T07:22:49.000Z</time>
      </trkpt>
      <trkpt lat="47.32841" lon="4.9405">
        <ele>320.9</ele>
        <time>2013-02-16T07:22:51.000Z</time>
      </trkpt>
      <trkpt lat="47.32842" lon="4.94053">
        <ele>320.6</ele>
        <time>2013-02-16T07:22:52.000Z</time>
      </trkpt>
      <trkpt lat="47.32844" lon="4.94058">
        <ele>320.4</ele>
        <time>2013-02-16T07:22:54.000Z</time>
      </trkpt>
      <trkpt lat="47.32845" lon="4.9406">
        <ele>319.9</ele>
        <time>2013-02-16T07:22:55.000Z</time>
      </trkpt>
      <trkpt lat="47.32846" lon="4.94064">
        <ele>319.8</ele>
        <time>2013-02-16T07:22:57.000Z</time>
      </trkpt>
      <trkpt lat="47.32847" lon="4.94066">
        <ele>319.7</ele>
        <time>2013-02-16T07:22:58.000Z</time>
      </trkpt>
      <trkpt lat="47.32849" lon="4.9407">
        <ele>319.5</ele>
        <time>2013-02-16T07:23:01.000Z</time>
      </trkpt>
      <trkpt lat="47.3285" lon="4.94072">
        <ele>319.5</ele>
        <time>2013-02-16T07:23:02.000Z</time>
      </trkpt>
      <trkpt lat="47.32852" lon="4.94077">
        <ele>319.9</ele>
        <time>2013-02-16T07:23:05.000Z</time>
      </trkpt>
      <trkpt lat="47.32853" lon="4.94079">
        <ele>319.9</ele>
        <time>2013-02-16T07:23:06.000Z</time>
      </trkpt>
      <trkpt lat="47.32855" lon="4.94084">
        <ele>320</ele>
        <time>2013-02-16T07:23:09.000Z</time>
      </trkpt>
      <trkpt lat="47.32856" lon="4.94086">
        <ele>320</ele>
        <time>2013-02-16T07:23:10.000Z</time>
      </trkpt>
      <trkpt lat="47.32858" lon="4.94091">
        <ele>320</ele>
        <time>2013-02-16T07:23:12.000Z</time>
      </trkpt>
      <trkpt lat="47.32859" lon="4.94094">
        <ele>320</ele>
        <time>2013-02-16T07:23:13.000Z</time>
      </trkpt>
      <trkpt lat="47.32861" lon="4.94097">
        <ele>320</ele>
        <time>2013-02-16T07:23:14.000Z</time>
      </trkpt>
      <trkpt lat="47.32861" lon="4.94099">
        <ele>320</ele>
        <time>2013-02-16T07:23:15.000Z</time>
      </trkpt>
      <trkpt lat="47.32863" lon="4.94104">
        <ele>320.1</ele>
        <time>2013-02-16T07:23:17.000Z</time>
      </trkpt>
      <trkpt lat="47.32864" lon="4.94107">
        <ele>320</ele>
        <time>2013-02-16T07:23:18.000Z</time>
      </trkpt>
      <trkpt lat="47.32865" lon="4.94112">
        <ele>320.2</ele>
        <time>2013-02-16T07:23:20.000Z</time>
      </trkpt>
      <trkpt lat="47.32866" lon="4.94115">
        <ele>320.4</ele>
        <time>2013-02-16T07:23:21.000Z</time>
      </trkpt>
      <trkpt lat="47.32868" lon="4.94121">
        <ele>320.5</ele>
        <time>2013-02-16T07:23:23.000Z</time>
      </trkpt>
      <trkpt lat="47.32869" lon="4.94122">
        <ele>320.3</ele>
        <time>2013-02-16T07:23:24.000Z</time>
      </trkpt>
      <trkpt lat="47.32871" lon="4.94127">
        <ele>320</ele>
        <time>2013-02-16T07:23:30.000Z</time>
      </trkpt>
      <trkpt lat="47.32871" lon="4.94129">
        <ele>320.1</ele>
        <time>2013-02-16T07:23:31.000Z</time>
      </trkpt>
      <trkpt lat="47.32872" lon="4.94131">
        <ele>320.3</ele>
        <time>2013-02-16T07:23:32.000Z</time>
      </trkpt>
      <trkpt lat="47.32874" lon="4.94145">
        <ele>324</ele>
        <time>2013-02-16T07:23:39.000Z</time>
      </trkpt>
      <trkpt lat="47.32875" lon="4.94149">
        <ele>323.7</ele>
        <time>2013-02-16T07:23:41.000Z</time>
      </trkpt>
      <trkpt lat="47.32876" lon="4.94151">
        <ele>323.1</ele>
        <time>2013-02-16T07:23:42.000Z</time>
      </trkpt>
      <trkpt lat="47.32877" lon="4.94157">
        <ele>323</ele>
        <time>2013-02-16T07:23:45.000Z</time>
      </trkpt>
      <trkpt lat="47.32877" lon="4.94159">
        <ele>322.8</ele>
        <time>2013-02-16T07:23:46.000Z</time>
      </trkpt>
      <trkpt lat="47.32879" lon="4.94165">
        <ele>323.2</ele>
        <time>2013-02-16T07:23:49.000Z</time>
      </trkpt>
      <trkpt lat="47.3288" lon="4.94167">
        <ele>323.4</ele>
        <time>2013-02-16T07:23:50.000Z</time>
      </trkpt>
      <trkpt lat="47.32882" lon="4.94172">
        <ele>323.6</ele>
        <time>2013-02-16T07:23:52.000Z</time>
      </trkpt>
      <trkpt lat="47.32882" lon="4.94174">
        <ele>323.9</ele>
        <time>2013-02-16T07:23:53.000Z</time>
      </trkpt>
      <trkpt lat="47.32882" lon="4.94179">
        <ele>325.5</ele>
        <time>2013-02-16T07:23:55.000Z</time>
      </trkpt>
      <trkpt lat="47.32882" lon="4.94181">
        <ele>326.2</ele>
        <time>2013-02-16T07:23:56.000Z</time>
      </trkpt>
      <trkpt lat="47.32881" lon="4.94186">
        <ele>327.7</ele>
        <time>2013-02-16T07:23:59.000Z</time>
      </trkpt>
      <trkpt lat="47.3288" lon="4.94188">
        <ele>328.2</ele>
        <time>2013-02-16T07:24:00.000Z</time>
      </trkpt>
      <trkpt lat="47.32876" lon="4.9419">
        <ele>327.4</ele>
        <time>2013-02-16T07:24:03.000Z</time>
      </trkpt>
      <trkpt lat="47.32875" lon="4.94191">
        <ele>327.2</ele>
        <time>2013-02-16T07:24:04.000Z</time>
      </trkpt>
      <trkpt lat="47.32871" lon="4.94192">
        <ele>326.4</ele>
        <time>2013-02-16T07:24:06.000Z</time>
      </trkpt>
      <trkpt lat="47.3287" lon="4.94193">
        <ele>326.3</ele>
        <time>2013-02-16T07:24:07.000Z</time>
      </trkpt>
      <trkpt lat="47.32867" lon="4.94194">
        <ele>325.9</ele>
        <time>2013-02-16T07:24:09.000Z</time>
      </trkpt>
      <trkpt lat="47.32865" lon="4.94195">
        <ele>325.8</ele>
        <time>2013-02-16T07:24:10.000Z</time>
      </trkpt>
      <trkpt lat="47.32862" lon="4.94198">
        <ele>325.9</ele>
        <time>2013-02-16T07:24:12.000Z</time>
      </trkpt>
      <trkpt lat="47.3286" lon="4.94199">
        <ele>326</ele>
        <time>2013-02-16T07:24:13.000Z</time>
      </trkpt>
      <trkpt lat="47.32858" lon="4.94201">
        <ele>326.1</ele>
        <time>2013-02-16T07:24:14.000Z</time>
      </trkpt>
      <trkpt lat="47.32856" lon="4.94203">
        <ele>326.1</ele>
        <time>2013-02-16T07:24:15.000Z</time>
      </trkpt>
      <trkpt lat="47.32854" lon="4.94205">
        <ele>326.2</ele>
        <time>2013-02-16T07:24:16.000Z</time>
      </trkpt>
      <trkpt lat="47.32851" lon="4.94206">
        <ele>326.3</ele>
        <time>2013-02-16T07:24:17.000Z</time>
      </trkpt>
      <trkpt lat="47.32847" lon="4.94208">
        <ele>326.3</ele>
        <time>2013-02-16T07:24:21.000Z</time>
      </trkpt>
      <trkpt lat="47.32846" lon="4.94208">
        <ele>326.2</ele>
        <time>2013-02-16T07:24:22.000Z</time>
      </trkpt>
      <trkpt lat="47.32843" lon="4.94212">
        <ele>326.2</ele>
        <time>2013-02-16T07:24:25.000Z</time>
      </trkpt>
      <trkpt lat="47.32841" lon="4.94213">
        <ele>326.4</ele>
        <time>2013-02-16T07:24:26.000Z</time>
      </trkpt>
      <trkpt lat="47.32838" lon="4.94215">
        <ele>326.7</ele>
        <time>2013-02-16T07:24:28.000Z</time>
      </trkpt>
      <trkpt lat="47.32837" lon="4.94217">
        <ele>326.7</ele>
        <time>2013-02-16T07:24:29.000Z</time>
      </trkpt>
      <trkpt lat="47.32833" lon="4.94218">
        <ele>327.3</ele>
        <time>2013-02-16T07:24:32.000Z</time>
      </trkpt>
      <trkpt lat="47.32816" lon="4.94229">
        <ele>334.9</ele>
        <time>2013-02-16T07:24:43.000Z</time>
      </trkpt>
      <trkpt lat="47.32812" lon="4.94229">
        <ele>339.1</ele>
        <time>2013-02-16T07:24:46.000Z</time>
      </trkpt>
      <trkpt lat="47.32811" lon="4.94229">
        <ele>339.9</ele>
        <time>2013-02-16T07:24:47.000Z</time>
      </trkpt>
      <trkpt lat="47.32808" lon="4.94232">
        <ele>342.5</ele>
        <time>2013-02-16T07:24:49.000Z</time>
      </trkpt>
      <trkpt lat="47.32807" lon="4.94234">
        <ele>342.8</ele>
        <time>2013-02-16T07:24:50.000Z</time>
      </trkpt>
      <trkpt lat="47.32804" lon="4.94238">
        <ele>346.1</ele>
        <time>2013-02-16T07:24:53.000Z</time>
      </trkpt>
      <trkpt lat="47.32802" lon="4.94239">
        <ele>346.9</ele>
        <time>2013-02-16T07:24:54.000Z</time>
      </trkpt>
      <trkpt lat="47.32799" lon="4.94242">
        <ele>349</ele>
        <time>2013-02-16T07:24:56.000Z</time>
      </trkpt>
      <trkpt lat="47.32798" lon="4.94242">
        <ele>349.6</ele>
        <time>2013-02-16T07:24:57.000Z</time>
      </trkpt>
      <trkpt lat="47.32794" lon="4.94244">
        <ele>350.5</ele>
        <time>2013-02-16T07:25:00.000Z</time>
      </trkpt>
      <trkpt lat="47.32793" lon="4.94245">
        <ele>350.7</ele>
        <time>2013-02-16T07:25:01.000Z</time>
      </trkpt>
      <trkpt lat="47.32789" lon="4.94246">
        <ele>350.4</ele>
        <time>2013-02-16T07:25:04.000Z</time>
      </trkpt>
      <trkpt lat="47.32786" lon="4.94247">
        <ele>349.9</ele>
        <time>2013-02-16T07:25:05.000Z</time>
      </trkpt>
      <trkpt lat="47.32783" lon="4.94251">
        <ele>349.2</ele>
        <time>2013-02-16T07:25:07.000Z</time>
      </trkpt>
      <trkpt lat="47.32782" lon="4.94253">
        <ele>349.2</ele>
        <time>2013-02-16T07:25:08.000Z</time>
      </trkpt>
      <trkpt lat="47.3278" lon="4.94257">
        <ele>348.6</ele>
        <time>2013-02-16T07:25:10.000Z</time>
      </trkpt>
      <trkpt lat="47.32779" lon="4.94258">
        <ele>348.3</ele>
        <time>2013-02-16T07:25:11.000Z</time>
      </trkpt>
      <trkpt lat="47.32776" lon="4.94262">
        <ele>347.1</ele>
        <time>2013-02-16T07:25:13.000Z</time>
      </trkpt>
      <trkpt lat="47.32776" lon="4.94264">
        <ele>347</ele>
        <time>2013-02-16T07:25:14.000Z</time>
      </trkpt>
      <trkpt lat="47.32774" lon="4.94269">
        <ele>346.3</ele>
        <time>2013-02-16T07:25:17.000Z</time>
      </trkpt>
      <trkpt lat="47.32774" lon="4.94271">
        <ele>346.1</ele>
        <time>2013-02-16T07:25:18.000Z</time>
      </trkpt>
      <trkpt lat="47.32772" lon="4.94276">
        <ele>345.8</ele>
        <time>2013-02-16T07:25:21.000Z</time>
      </trkpt>
      <trkpt lat="47.32771" lon="4.94278">
        <ele>345.7</ele>
        <time>2013-02-16T07:25:22.000Z</time>
      </trkpt>
      <trkpt lat="47.32769" lon="4.94282">
        <ele>345.4</ele>
        <time>2013-02-16T07:25:24.000Z</time>
      </trkpt>
      <trkpt lat="47.32768" lon="4.94284">
        <ele>345.4</ele>
        <time>2013-02-16T07:25:25.000Z</time>
      </trkpt>
      <trkpt lat="47.32765" lon="4.94287">
        <ele>344.9</ele>
        <time>2013-02-16T07:25:27.000Z</time>
      </trkpt>
      <trkpt lat="47.32764" lon="4.94288">
        <ele>344.7</ele>
        <time>2013-02-16T07:25:28.000Z</time>
      </trkpt>
      <trkpt lat="47.3276" lon="4.9429">
        <ele>344.7</ele>
        <time>2013-02-16T07:25:30.000Z</time>
      </trkpt>
      <trkpt lat="47.32759" lon="4.94292">
        <ele>344.7</ele>
        <time>2013-02-16T07:25:31.000Z</time>
      </trkpt>
      <trkpt lat="47.32757" lon="4.94293">
        <ele>344.7</ele>
        <time>2013-02-16T07:25:32.000Z</time>
      </trkpt>
      <trkpt lat="47.32727" lon="4.94313">
        <ele>333.1</ele>
        <time>2013-02-16T07:25:47.000Z</time>
      </trkpt>
      <trkpt lat="47.32723" lon="4.94313">
        <ele>333.1</ele>
        <time>2013-02-16T07:25:50.000Z</time>
      </trkpt>
      <trkpt lat="47.32722" lon="4.94313">
        <ele>334.1</ele>
        <time>2013-02-16T07:25:51.000Z</time>
      </trkpt>
      <trkpt lat="47.32719" lon="4.94318">
        <ele>342</ele>
        <time>2013-02-16T07:25:55.000Z</time>
      </trkpt>
      <trkpt lat="47.32718" lon="4.94318">
        <ele>343.7</ele>
        <time>2013-02-16T07:25:56.000Z</time>
      </trkpt>
      <trkpt lat="47.32716" lon="4.94322">
        <ele>349.2</ele>
        <time>2013-02-16T07:26:00.000Z</time>
      </trkpt>
      <trkpt lat="47.32714" lon="4.94324">
        <ele>349.3</ele>
        <time>2013-02-16T07:26:01.000Z</time>
      </trkpt>
      <trkpt lat="47.3271" lon="4.94327">
        <ele>346.3</ele>
        <time>2013-02-16T07:26:04.000Z</time>
      </trkpt>
      <trkpt lat="47.32709" lon="4.94328">
        <ele>346</ele>
        <time>2013-02-16T07:26:05.000Z</time>
      </trkpt>
      <trkpt lat="47.32705" lon="4.9433">
        <ele>344.9</ele>
        <time>2013-02-16T07:26:08.000Z</time>
      </trkpt>
      <trkpt lat="47.32703" lon="4.94331">
        <ele>345</ele>
        <time>2013-02-16T07:26:09.000Z</time>
      </trkpt>
      <trkpt lat="47.327" lon="4.94333">
        <ele>344.4</ele>
        <time>2013-02-16T07:26:11.000Z</time>
      </trkpt>
      <trkpt lat="47.32698" lon="4.94334">
        <ele>344.4</ele>
        <time>2013-02-16T07:26:12.000Z</time>
      </trkpt>
      <trkpt lat="47.32694" lon="4.94336">
        <ele>344</ele>
        <time>2013-02-16T07:26:14.000Z</time>
      </trkpt>
      <trkpt lat="47.32693" lon="4.94338">
        <ele>344.2</ele>
        <time>2013-02-16T07:26:15.000Z</time>
      </trkpt>
      <trkpt lat="47.32689" lon="4.9434">
        <ele>343.9</ele>
        <time>2013-02-16T07:26:17.000Z</time>
      </trkpt>
      <trkpt lat="47.32687" lon="4.94341">
        <ele>343.7</ele>
        <time>2013-02-16T07:26:18.000Z</time>
      </trkpt>
      <trkpt lat="47.32684" lon="4.94343">
        <ele>344.1</ele>
        <time>2013-02-16T07:26:20.000Z</time>
      </trkpt>
      <trkpt lat="47.32682" lon="4.94343">
        <ele>344</ele>
        <time>2013-02-16T07:26:21.000Z</time>
      </trkpt>
      <trkpt lat="47.32678" lon="4.94344">
        <ele>344.4</ele>
        <time>2013-02-16T07:26:23.000Z</time>
      </trkpt>
      <trkpt lat="47.32677" lon="4.94345">
        <ele>344.4</ele>
        <time>2013-02-16T07:26:24.000Z</time>
      </trkpt>
      <trkpt lat="47.32673" lon="4.94347">
        <ele>344.6</ele>
        <time>2013-02-16T07:26:27.000Z</time>
      </trkpt>
      <trkpt lat="47.32672" lon="4.94348">
        <ele>345</ele>
        <time>2013-02-16T07:26:28.000Z</time>
      </trkpt>
      <trkpt lat="47.32669" lon="4.94348">
        <ele>345.2</ele>
        <time>2013-02-16T07:26:30.000Z</time>
      </trkpt>
      <trkpt lat="47.32667" lon="4.94348">
        <ele>345.4</ele>
        <time>2013-02-16T07:26:31.000Z</time>
      </trkpt>
      <trkpt lat="47.32664" lon="4.94348">
        <ele>345.5</ele>
        <time>2013-02-16T07:26:32.000Z</time>
      </trkpt>
      <trkpt lat="47.3263" lon="4.94359">
        <ele>351.7</ele>
        <time>2013-02-16T07:26:50.000Z</time>
      </trkpt>
      <trkpt lat="47.32626" lon="4.94359">
        <ele>351.4</ele>
        <time>2013-02-16T07:26:53.000Z</time>
      </trkpt>
      <trkpt lat="47.32625" lon="4.9436">
        <ele>351.5</ele>
        <time>2013-02-16T07:26:54.000Z</time>
      </trkpt>
      <trkpt lat="47.3262" lon="4.94362">
        <ele>352.7</ele>
        <time>2013-02-16T07:26:58.000Z</time>
      </trkpt>
      <trkpt lat="47.32619" lon="4.94362">
        <ele>353</ele>
        <time>2013-02-16T07:26:59.000Z</time>
      </trkpt>
      <trkpt lat="47.32615" lon="4.94363">
        <ele>353.5</ele>
        <time>2013-02-16T07:27:02.000Z</time>
      </trkpt>
      <trkpt lat="47.32614" lon="4.94363">
        <ele>353.5</ele>
        <time>2013-02-16T07:27:03.000Z</time>
      </trkpt>
      <trkpt lat="47.32611" lon="4.94364">
        <ele>353.8</ele>
        <time>2013-02-16T07:27:05.000Z</time>
      </trkpt>
      <trkpt lat="47.32609" lon="4.94364">
        <ele>354.1</ele>
        <time>2013-02-16T07:27:06.000Z</time>
      </trkpt>
      <trkpt lat="47.32605" lon="4.94364">
        <ele>354.8</ele>
        <time>2013-02-16T07:27:09.000Z</time>
      </trkpt>
      <trkpt lat="47.32603" lon="4.94364">
        <ele>354.9</ele>
        <time>2013-02-16T07:27:10.000Z</time>
      </trkpt>
      <trkpt lat="47.326" lon="4.94363">
        <ele>354.4</ele>
        <time>2013-02-16T07:27:12.000Z</time>
      </trkpt>
      <trkpt lat="47.32597" lon="4.94364">
        <ele>354.6</ele>
        <time>2013-02-16T07:27:13.000Z</time>
      </trkpt>
      <trkpt lat="47.32594" lon="4.94364">
        <ele>354.7</ele>
        <time>2013-02-16T07:27:15.000Z</time>
      </trkpt>
      <trkpt lat="47.32591" lon="4.94364">
        <ele>354.7</ele>
        <time>2013-02-16T07:27:16.000Z</time>
      </trkpt>
      <trkpt lat="47.32587" lon="4.94364">
        <ele>355.4</ele>
        <time>2013-02-16T07:27:18.000Z</time>
      </trkpt>
      <trkpt lat="47.32585" lon="4.94364">
        <ele>355.5</ele>
        <time>2013-02-16T07:27:19.000Z</time>
      </trkpt>
      <trkpt lat="47.32582" lon="4.94365">
        <ele>355.3</ele>
        <time>2013-02-16T07:27:21.000Z</time>
      </trkpt>
      <trkpt lat="47.3258" lon="4.94365">
        <ele>355</ele>
        <time>2013-02-16T07:27:22.000Z</time>
      </trkpt>
      <trkpt lat="47.32576" lon="4.94366">
        <ele>354.8</ele>
        <time>2013-02-16T07:27:25.000Z</time>
      </trkpt>
      <trkpt lat="47.32576" lon="4.94366">
        <ele>354.6</ele>
        <time>2013-02-16T07:27:26.000Z</time>
      </trkpt>
      <trkpt lat="47.32571" lon="4.94367">
        <ele>354.2</ele>
        <time>2013-02-16T07:27:29.000Z</time>
      </trkpt>
      <trkpt lat="47.3257" lon="4.94367">
        <ele>354.3</ele>
        <time>2013-02-16T07:27:30.000Z</time>
      </trkpt>
      <trkpt lat="47.32567" lon="4.94367">
        <ele>354.3</ele>
        <time>2013-02-16T07:27:32.000Z</time>
      </trkpt>
      <trkpt lat="47.32534" lon="4.94372">
        <ele>360</ele>
        <time>2013-02-16T07:27:51.000Z</time>
      </trkpt>
      <trkpt lat="47.3253" lon="4.94373">
        <ele>361</ele>
        <time>2013-02-16T07:27:53.000Z</time>
      </trkpt>
      <trkpt lat="47.32529" lon="4.94373">
        <ele>361.1</ele>
        <time>2013-02-16T07:27:54.000Z</time>
      </trkpt>
      <trkpt lat="47.32525" lon="4.94374">
        <ele>362.4</ele>
        <time>2013-02-16T07:27:59.000Z</time>
      </trkpt>
      <trkpt lat="47.32524" lon="4.94374">
        <ele>362.3</ele>
        <time>2013-02-16T07:28:00.000Z</time>
      </trkpt>
      <trkpt lat="47.3252" lon="4.94374">
        <ele>362.4</ele>
        <time>2013-02-16T07:28:02.000Z</time>
      </trkpt>
      <trkpt lat="47.32517" lon="4.94374">
        <ele>362.5</ele>
        <time>2013-02-16T07:28:03.000Z</time>
      </trkpt>
      <trkpt lat="47.32513" lon="4.94374">
        <ele>362.2</ele>
        <time>2013-02-16T07:28:05.000Z</time>
      </trkpt>
      <trkpt lat="47.32511" lon="4.94374">
        <ele>361.6</ele>
        <time>2013-02-16T07:28:06.000Z</time>
      </trkpt>
      <trkpt lat="47.32507" lon="4.94376">
        <ele>361.9</ele>
        <time>2013-02-16T07:28:08.000Z</time>
      </trkpt>
      <trkpt lat="47.32506" lon="4.94376">
        <ele>362.1</ele>
        <time>2013-02-16T07:28:09.000Z</time>
      </trkpt>
      <trkpt lat="47.32502" lon="4.94378">
        <ele>360.7</ele>
        <time>2013-02-16T07:28:13.000Z</time>
      </trkpt>
      <trkpt lat="47.32501" lon="4.94379">
        <ele>360.7</ele>
        <time>2013-02-16T07:28:14.000Z</time>
      </trkpt>
      <trkpt lat="47.32498" lon="4.94381">
        <ele>361.6</ele>
        <time>2013-02-16T07:28:18.000Z</time>
      </trkpt>
      <trkpt lat="47.32496" lon="4.94382">
        <ele>361.9</ele>
        <time>2013-02-16T07:28:19.000Z</time>
      </trkpt>
      <trkpt lat="47.32492" lon="4.94383">
        <ele>362.1</ele>
        <time>2013-02-16T07:28:21.000Z</time>
      </trkpt>
      <trkpt lat="47.3249" lon="4.94384">
        <ele>362.5</ele>
        <time>2013-02-16T07:28:22.000Z</time>
      </trkpt>
      <trkpt lat="47.32487" lon="4.94385">
        <ele>362.6</ele>
        <time>2013-02-16T07:28:24.000Z</time>
      </trkpt>
      <trkpt lat="47.32485" lon="4.94385">
        <ele>362.5</ele>
        <time>2013-02-16T07:28:25.000Z</time>
      </trkpt>
      <trkpt lat="47.32481" lon="4.94386">
        <ele>362.1</ele>
        <time>2013-02-16T07:28:28.000Z</time>
      </trkpt>
      <trkpt lat="47.32479" lon="4.94387">
        <ele>362.1</ele>
        <time>2013-02-16T07:28:29.000Z</time>
      </trkpt>
      <trkpt lat="47.32475" lon="4.94387">
        <ele>362.3</ele>
        <time>2013-02-16T07:28:31.000Z</time>
      </trkpt>
      <trkpt lat="47.32474" lon="4.94387">
        <ele>362.2</ele>
        <time>2013-02-16T07:28:32.000Z</time>
      </trkpt>
      <trkpt lat="47.32448" lon="4.94396">
        <ele>371.8</ele>
        <time>2013-02-16T07:28:50.000Z</time>
      </trkpt>
      <trkpt lat="47.32444" lon="4.94398">
        <ele>375.1</ele>
        <time>2013-02-16T07:28:54.000Z</time>
      </trkpt>
      <trkpt lat="47.32443" lon="4.94399">
        <ele>376</ele>
        <time>2013-02-16T07:28:55.000Z</time>
      </trkpt>
      <trkpt lat="47.3244" lon="4.94399">
        <ele>376.8</ele>
        <time>2013-02-16T07:28:57.000Z</time>
      </trkpt>
      <trkpt lat="47.32439" lon="4.94398">
        <ele>377.3</ele>
        <time>2013-02-16T07:28:58.000Z</time>
      </trkpt>
      <trkpt lat="47.32435" lon="4.94398">
        <ele>378.2</ele>
        <time>2013-02-16T07:29:00.000Z</time>
      </trkpt>
      <trkpt lat="47.32433" lon="4.94398">
        <ele>379</ele>
        <time>2013-02-16T07:29:01.000Z</time>
      </trkpt>
      <trkpt lat="47.32429" lon="4.94398">
        <ele>378.2</ele>
        <time>2013-02-16T07:29:04.000Z</time>
      </trkpt>
      <trkpt lat="47.32427" lon="4.94398">
        <ele>377.9</ele>
        <time>2013-02-16T07:29:05.000Z</time>
      </trkpt>
      <trkpt lat="47.32423" lon="4.94398">
        <ele>377.6</ele>
        <time>2013-02-16T07:29:07.000Z</time>
      </trkpt>
      <trkpt lat="47.32421" lon="4.94399">
        <ele>377.6</ele>
        <time>2013-02-16T07:29:08.000Z</time>
      </trkpt>
      <trkpt lat="47.32417" lon="4.944">
        <ele>376.6</ele>
        <time>2013-02-16T07:29:10.000Z</time>
      </trkpt>
      <trkpt lat="47.32415" lon="4.944">
        <ele>376.5</ele>
        <time>2013-02-16T07:29:11.000Z</time>
      </trkpt>
      <trkpt lat="47.32413" lon="4.94401">
        <ele>376.6</ele>
        <time>2013-02-16T07:29:12.000Z</time>
      </trkpt>
      <trkpt lat="47.3241" lon="4.94402">
        <ele>376.4</ele>
        <time>2013-02-16T07:29:13.000Z</time>
      </trkpt>
      <trkpt lat="47.32407" lon="4.94403">
        <ele>376</ele>
        <time>2013-02-16T07:29:15.000Z</time>
      </trkpt>
      <trkpt lat="47.32405" lon="4.94404">
        <ele>375.9</ele>
        <time>2013-02-16T07:29:16.000Z</time>
      </trkpt>
      <trkpt lat="47.32401" lon="4.94407">
        <ele>375.5</ele>
        <time>2013-02-16T07:29:20.000Z</time>
      </trkpt>
      <trkpt lat="47.324" lon="4.94408">
        <ele>375.6</ele>
        <time>2013-02-16T07:29:21.000Z</time>
      </trkpt>
      <trkpt lat="47.32396" lon="4.9441">
        <ele>376</ele>
        <time>2013-02-16T07:29:25.000Z</time>
      </trkpt>
      <trkpt lat="47.32395" lon="4.94412">
        <ele>376</ele>
        <time>2013-02-16T07:29:26.000Z</time>
      </trkpt>
      <trkpt lat="47.32392" lon="4.94415">
        <ele>376.3</ele>
        <time>2013-02-16T07:29:29.000Z</time>
      </trkpt>
      <trkpt lat="47.32391" lon="4.94416">
        <ele>376.1</ele>
        <time>2013-02-16T07:29:30.000Z</time>
      </trkpt>
      <trkpt lat="47.32388" lon="4.94418">
        <ele>376.2</ele>
        <time>2013-02-16T07:29:32.000Z</time>
      </trkpt>
      <trkpt lat="47.32367" lon="4.94423">
        <ele>375</ele>
        <time>2013-02-16T07:29:45.000Z</time>
      </trkpt>
      <trkpt lat="47.32365" lon="4.94427">
        <ele>378.3</ele>
        <time>2013-02-16T07:29:48.000Z</time>
      </trkpt>
      <trkpt lat="47.32364" lon="4.94428">
        <ele>379.6</ele>
        <time>2013-02-16T07:29:49.000Z</time>
      </trkpt>
      <trkpt lat="47.3236" lon="4.9443">
        <ele>382.5</ele>
        <time>2013-02-16T07:29:52.000Z</time>
      </trkpt>
      <trkpt lat="47.32359" lon="4.9443">
        <ele>383.1</ele>
        <time>2013-02-16T07:29:53.000Z</time>
      </trkpt>
      <trkpt lat="47.32356" lon="4.94434">
        <ele>388.3</ele>
        <time>2013-02-16T07:29:57.000Z</time>
      </trkpt>
      <trkpt lat="47.32355" lon="4.94434">
        <ele>388.9</ele>
        <time>2013-02-16T07:29:58.000Z</time>
      </trkpt>
      <trkpt lat="47.32352" lon="4.94436">
        <ele>390.9</ele>
        <time>2013-02-16T07:30:02.000Z</time>
      </trkpt>
      <trkpt lat="47.32351" lon="4.94436">
        <ele>390.6</ele>
        <time>2013-02-16T07:30:03.000Z</time>
      </trkpt>
      <trkpt lat="47.32347" lon="4.94436">
        <ele>388.9</ele>
        <time>2013-02-16T07:30:06.000Z</time>
      </trkpt>
      <trkpt lat="47.32345" lon="4.94436">
        <ele>388.4</ele>
        <time>2013-02-16T07:30:07.000Z</time>
      </trkpt>
      <trkpt lat="47.32342" lon="4.94436">
        <ele>387.3</ele>
        <time>2013-02-16T07:30:09.000Z</time>
      </trkpt>
      <trkpt lat="47.3234" lon="4.94436">
        <ele>387.5</ele>
        <time>2013-02-16T07:30:10.000Z</time>
      </trkpt>
      <trkpt lat="47.32336" lon="4.94436">
        <ele>387.4</ele>
        <time>2013-02-16T07:30:12.000Z</time>
      </trkpt>
      <trkpt lat="47.32335" lon="4.94436">
        <ele>387.4</ele>
        <time>2013-02-16T07:30:13.000Z</time>
      </trkpt>
      <trkpt lat="47.32331" lon="4.94436">
        <ele>387.6</ele>
        <time>2013-02-16T07:30:16.000Z</time>
      </trkpt>
      <trkpt lat="47.3233" lon="4.94437">
        <ele>387.8</ele>
        <time>2013-02-16T07:30:17.000Z</time>
      </trkpt>
      <trkpt lat="47.32327" lon="4.94438">
        <ele>387.6</ele>
        <time>2013-02-16T07:30:20.000Z</time>
      </trkpt>
      <trkpt lat="47.32326" lon="4.9444">
        <ele>387.7</ele>
        <time>2013-02-16T07:30:21.000Z</time>
      </trkpt>
      <trkpt lat="47.32322" lon="4.9444">
        <ele>387.1</ele>
        <time>2013-02-16T07:30:24.000Z</time>
      </trkpt>
      <trkpt lat="47.3232" lon="4.94441">
        <ele>386.9</ele>
        <time>2013-02-16T07:30:25.000Z</time>
      </trkpt>
      <trkpt lat="47.32316" lon="4.94441">
        <ele>386.6</ele>
        <time>2013-02-16T07:30:27.000Z</time>
      </trkpt>
      <trkpt lat="47.32314" lon="4.94441">
        <ele>386.5</ele>
        <time>2013-02-16T07:30:28.000Z</time>
      </trkpt>
      <trkpt lat="47.32312" lon="4.94442">
        <ele>386.6</ele>
        <time>2013-02-16T07:30:29.000Z</time>
      </trkpt>
      <trkpt lat="47.32309" lon="4.94442">
        <ele>386.4</ele>
        <time>2013-02-16T07:30:30.000Z</time>
      </trkpt>
      <trkpt lat="47.32306" lon="4.94442">
        <ele>386.7</ele>
        <time>2013-02-16T07:30:32.000Z</time>
      </trkpt>
      <trkpt lat="47.32294" lon="4.94448">
        <ele>391.3</ele>
        <time>2013-02-16T07:30:39.000Z</time>
      </trkpt>
      <trkpt lat="47.3229" lon="4.9445">
        <ele>393.4</ele>
        <time>2013-02-16T07:30:42.000Z</time>
      </trkpt>
      <trkpt lat="47.32289" lon="4.94451">
        <ele>394.8</ele>
        <time>2013-02-16T07:30:43.000Z</time>
      </trkpt>
      <trkpt lat="47.32286" lon="4.94455">
        <ele>395.2</ele>
        <time>2013-02-16T07:30:47.000Z</time>
      </trkpt>
      <trkpt lat="47.32286" lon="4.94457">
        <ele>395.3</ele>
        <time>2013-02-16T07:30:48.000Z</time>
      </trkpt>
      <trkpt lat="47.32284" lon="4.94462">
        <ele>395.8</ele>
        <time>2013-02-16T07:30:52.000Z</time>
      </trkpt>
      <trkpt lat="47.32284" lon="4.94463">
        <ele>396.2</ele>
        <time>2013-02-16T07:30:53.000Z</time>
      </trkpt>
      <trkpt lat="47.32281" lon="4.94467">
        <ele>394.1</ele>
        <time>2013-02-16T07:30:58.000Z</time>
      </trkpt>
      <trkpt lat="47.3228" lon="4.94467">
        <ele>394</ele>
        <time>2013-02-16T07:30:59.000Z</time>
      </trkpt>
      <trkpt lat="47.32275" lon="4.94469">
        <ele>392.8</ele>
        <time>2013-02-16T07:31:03.000Z</time>
      </trkpt>
      <trkpt lat="47.32274" lon="4.9447">
        <ele>392.4</ele>
        <time>2013-02-16T07:31:04.000Z</time>
      </trkpt>
      <trkpt lat="47.32271" lon="4.94472">
        <ele>391.7</ele>
        <time>2013-02-16T07:31:06.000Z</time>
      </trkpt>
      <trkpt lat="47.3227" lon="4.94473">
        <ele>391.3</ele>
        <time>2013-02-16T07:31:07.000Z</time>
      </trkpt>
      <trkpt lat="47.32266" lon="4.94476">
        <ele>391</ele>
        <time>2013-02-16T07:31:11.000Z</time>
      </trkpt>
      <trkpt lat="47.32265" lon="4.94477">
        <ele>390.8</ele>
        <time>2013-02-16T07:31:12.000Z</time>
      </trkpt>
      <trkpt lat="47.32262" lon="4.94482">
        <ele>390.6</ele>
        <time>2013-02-16T07:31:16.000Z</time>
      </trkpt>
      <trkpt lat="47.32261" lon="4.94483">
        <ele>390.5</ele>
        <time>2013-02-16T07:31:17.000Z</time>
      </trkpt>
      <trkpt lat="47.32258" lon="4.94487">
        <ele>390.8</ele>
        <time>2013-02-16T07:31:20.000Z</time>
      </trkpt>
      <trkpt lat="47.32257" lon="4.94488">
        <ele>390.8</ele>
        <time>2013-02-16T07:31:21.000Z</time>
      </trkpt>
      <trkpt lat="47.32254" lon="4.94493">
        <ele>390.9</ele>
        <time>2013-02-16T07:31:24.000Z</time>
      </trkpt>
      <trkpt lat="47.32253" lon="4.94495">
        <ele>390.9</ele>
        <time>2013-02-16T07:31:25.000Z</time>
      </trkpt>
      <trkpt lat="47.3225" lon="4.94497">
        <ele>390.9</ele>
        <time>2013-02-16T07:31:28.000Z</time>
      </trkpt>
      <trkpt lat="47.32249" lon="4.94498">
        <ele>390.9</ele>
        <time>2013-02-16T07:31:29.000Z</time>
      </trkpt>
      <trkpt lat="47.32246" lon="4.94502">
        <ele>390.7</ele>
        <time>2013-02-16T07:31:32.000Z</time>
      </trkpt>
      <trkpt lat="47.32233" lon="4.9452">
        <ele>393.7</ele>
        <time>2013-02-16T07:31:39.000Z</time>
      </trkpt>
      <trkpt lat="47.3223" lon="4.94524">
        <ele>395.4</ele>
        <time>2013-02-16T07:31:46.000Z</time>
      </trkpt>
      <trkpt lat="47.32229" lon="4.94525">
        <ele>395.5</ele>
        <time>2013-02-16T07:31:47.000Z</time>
      </trkpt>
      <trkpt lat="47.32229" lon="4.9453">
        <ele>396.5</ele>
        <time>2013-02-16T07:31:50.000Z</time>
      </trkpt>
      <trkpt lat="47.32228" lon="4.94531">
        <ele>396.8</ele>
        <time>2013-02-16T07:31:51.000Z</time>
      </trkpt>
      <trkpt lat="47.32224" lon="4.94534">
        <ele>399.5</ele>
        <time>2013-02-16T07:31:57.000Z</time>
      </trkpt>
      <trkpt lat="47.32223" lon="4.94535">
        <ele>399.8</ele>
        <time>2013-02-16T07:31:58.000Z</time>
      </trkpt>
      <trkpt lat="47.3222" lon="4.94536">
        <ele>401.1</ele>
        <time>2013-02-16T07:32:01.000Z</time>
      </trkpt>
      <trkpt lat="47.32219" lon="4.94537">
        <ele>401.2</ele>
        <time>2013-02-16T07:32:02.000Z</time>
      </trkpt>
      <trkpt lat="47.32216" lon="4.94539">
        <ele>400.4</ele>
        <time>2013-02-16T07:32:04.000Z</time>
      </trkpt>
      <trkpt lat="47.32215" lon="4.94541">
        <ele>399.9</ele>
        <time>2013-02-16T07:32:05.000Z</time>
      </trkpt>
      <trkpt lat="47.32211" lon="4.94542">
        <ele>399.6</ele>
        <time>2013-02-16T07:32:07.000Z</time>
      </trkpt>
      <trkpt lat="47.3221" lon="4.94542">
        <ele>399.7</ele>
        <time>2013-02-16T07:32:08.000Z</time>
      </trkpt>
      <trkpt lat="47.32207" lon="4.94542">
        <ele>399.9</ele>
        <time>2013-02-16T07:32:10.000Z</time>
      </trkpt>
      <trkpt lat="47.32205" lon="4.94543">
        <ele>399.9</ele>
        <time>2013-02-16T07:32:11.000Z</time>
      </trkpt>
      <trkpt lat="47.32202" lon="4.94545">
        <ele>400</ele>
        <time>2013-02-16T07:32:13.000Z</time>
      </trkpt>
      <trkpt lat="47.32201" lon="4.94546">
        <ele>400.1</ele>
        <time>2013-02-16T07:32:14.000Z</time>
      </trkpt>
      <trkpt lat="47.32198" lon="4.94548">
        <ele>400.1</ele>
        <time>2013-02-16T07:32:17.000Z</time>
      </trkpt>
      <trkpt lat="47.32197" lon="4.94549">
        <ele>400.3</ele>
        <time>2013-02-16T07:32:18.000Z</time>
      </trkpt>
      <trkpt lat="47.32194" lon="4.94553">
        <ele>400.8</ele>
        <time>2013-02-16T07:32:21.000Z</time>
      </trkpt>
      <trkpt lat="47.32193" lon="4.94555">
        <ele>401.2</ele>
        <time>2013-02-16T07:32:22.000Z</time>
      </trkpt>
      <trkpt lat="47.32191" lon="4.94559">
        <ele>401.5</ele>
        <time>2013-02-16T07:32:26.000Z</time>
      </trkpt>
      <trkpt lat="47.3219" lon="4.9456">
        <ele>401.5</ele>
        <time>2013-02-16T07:32:27.000Z</time>
      </trkpt>
      <trkpt lat="47.32189" lon="4.94564">
        <ele>401.9</ele>
        <time>2013-02-16T07:32:30.000Z</time>
      </trkpt>
      <trkpt lat="47.32188" lon="4.94566">
        <ele>402.2</ele>
        <time>2013-02-16T07:32:31.000Z</time>
      </trkpt>
      <trkpt lat="47.32187" lon="4.94568">
        <ele>403.2</ele>
        <time>2013-02-16T07:32:32.000Z</time>
      </trkpt>
      <trkpt lat="47.32178" lon="4.94585">
        <ele>413.4</ele>
        <time>2013-02-16T07:32:43.000Z</time>
      </trkpt>
      <trkpt lat="47.32175" lon="4.94586">
        <ele>413.8</ele>
        <time>2013-02-16T07:32:49.000Z</time>
      </trkpt>
      <trkpt lat="47.32174" lon="4.94588">
        <ele>414.4</ele>
        <time>2013-02-16T07:32:50.000Z</time>
      </trkpt>
      <trkpt lat="47.32172" lon="4.94593">
        <ele>418.4</ele>
        <time>2013-02-16T07:32:55.000Z</time>
      </trkpt>
      <trkpt lat="47.32171" lon="4.94594">
        <ele>419.3</ele>
        <time>2013-02-16T07:32:56.000Z</time>
      </trkpt>
      <trkpt lat="47.32169" lon="4.94597">
        <ele>421.1</ele>
        <time>2013-02-16T07:32:59.000Z</time>
      </trkpt>
      <trkpt lat="47.32168" lon="4.94598">
        <ele>421.6</ele>
        <time>2013-02-16T07:33:00.000Z</time>
      </trkpt>
      <trkpt lat="47.32165" lon="4.946">
        <ele>423.5</ele>
        <time>2013-02-16T07:33:03.000Z</time>
      </trkpt>
      <trkpt lat="47.32163" lon="4.94601">
        <ele>422.7</ele>
        <time>2013-02-16T07:33:04.000Z</time>
      </trkpt>
      <trkpt lat="47.3216" lon="4.94604">
        <ele>422</ele>
        <time>2013-02-16T07:33:07.000Z</time>
      </trkpt>
      <trkpt lat="47.32159" lon="4.94605">
        <ele>421.8</ele>
        <time>2013-02-16T07:33:08.000Z</time>
      </trkpt>
      <trkpt lat="47.32155" lon="4.94607">
        <ele>421.7</ele>
        <time>2013-02-16T07:33:11.000Z</time>
      </trkpt>
      <trkpt lat="47.32153" lon="4.94608">
        <ele>421.7</ele>
        <time>2013-02-16T07:33:12.000Z</time>
      </trkpt>
      <trkpt lat="47.3215" lon="4.94612">
        <ele>421.6</ele>
        <time>2013-02-16T07:33:15.000Z</time>
      </trkpt>
      <trkpt lat="47.32149" lon="4.94614">
        <ele>421.7</ele>
        <time>2013-02-16T07:33:16.000Z</time>
      </trkpt>
      <trkpt lat="47.32147" lon="4.94618">
        <ele>421.2</ele>
        <time>2013-02-16T07:33:19.000Z</time>
      </trkpt>
      <trkpt lat="47.32146" lon="4.94619">
        <ele>420.9</ele>
        <time>2013-02-16T07:33:20.000Z</time>
      </trkpt>
      <trkpt lat="47.32143" lon="4.94622">
        <ele>419.4</ele>
        <time>2013-02-16T07:33:23.000Z</time>
      </trkpt>
      <trkpt lat="47.32142" lon="4.94622">
        <ele>419</ele>
        <time>2013-02-16T07:33:24.000Z</time>
      </trkpt>
      <trkpt lat="47.32139" lon="4.94627">
        <ele>418.9</ele>
        <time>2013-02-16T07:33:27.000Z</time>
      </trkpt>
      <trkpt lat="47.32139" lon="4.94628">
        <ele>418.9</ele>
        <time>2013-02-16T07:33:28.000Z</time>
      </trkpt>
      <trkpt lat="47.32135" lon="4.94631">
        <ele>419.5</ele>
        <time>2013-02-16T07:33:32.000Z</time>
      </trkpt>
      <trkpt lat="47.32115" lon="4.94647">
        <ele>435.6</ele>
        <time>2013-02-16T07:33:46.000Z</time>
      </trkpt>
      <trkpt lat="47.32115" lon="4.94652">
        <ele>437.3</ele>
        <time>2013-02-16T07:33:49.000Z</time>
      </trkpt>
      <trkpt lat="47.32116" lon="4.94654">
        <ele>437.8</ele>
        <time>2013-02-16T07:33:50.000Z</time>
      </trkpt>
      <trkpt lat="47.32114" lon="4.94659">
        <ele>439</ele>
        <time>2013-02-16T07:33:54.000Z</time>
      </trkpt>
      <trkpt lat="47.32114" lon="4.9466">
        <ele>439.5</ele>
        <time>2013-02-16T07:33:55.000Z</time>
      </trkpt>
      <trkpt lat="47.32111" lon="4.94665">
        <ele>439.6</ele>
        <time>2013-02-16T07:33:58.000Z</time>
      </trkpt>
      <trkpt lat="47.3211" lon="4.94666">
        <ele>440.1</ele>
        <time>2013-02-16T07:33:59.000Z</time>
      </trkpt>
      <trkpt lat="47.32107" lon="4.94671">
        <ele>440.3</ele>
        <time>2013-02-16T07:34:01.000Z</time>
      </trkpt>
      <trkpt lat="47.32106" lon="4.94671">
        <ele>440</ele>
        <time>2013-02-16T07:34:02.000Z</time>
      </trkpt>
      <trkpt lat="47.32103" lon="4.94673">
        <ele>438.8</ele>
        <time>2013-02-16T07:34:04.000Z</time>
      </trkpt>
      <trkpt lat="47.32101" lon="4.94673">
        <ele>438.4</ele>
        <time>2013-02-16T07:34:05.000Z</time>
      </trkpt>
      <trkpt lat="47.32098" lon="4.94676">
        <ele>437.7</ele>
        <time>2013-02-16T07:34:08.000Z</time>
      </trkpt>
      <trkpt lat="47.32097" lon="4.94677">
        <ele>437.6</ele>
        <time>2013-02-16T07:34:09.000Z</time>
      </trkpt>
      <trkpt lat="47.32093" lon="4.94679">
        <ele>437.2</ele>
        <time>2013-02-16T07:34:12.000Z</time>
      </trkpt>
      <trkpt lat="47.32092" lon="4.9468">
        <ele>437.1</ele>
        <time>2013-02-16T07:34:13.000Z</time>
      </trkpt>
      <trkpt lat="47.32088" lon="4.94682">
        <ele>436.2</ele>
        <time>2013-02-16T07:34:16.000Z</time>
      </trkpt>
      <trkpt lat="47.32086" lon="4.94682">
        <ele>436.2</ele>
        <time>2013-02-16T07:34:17.000Z</time>
      </trkpt>
      <trkpt lat="47.32083" lon="4.94683">
        <ele>436.3</ele>
        <time>2013-02-16T07:34:19.000Z</time>
      </trkpt>
      <trkpt lat="47.32081" lon="4.94684">
        <ele>436.5</ele>
        <time>2013-02-16T07:34:20.000Z</time>
      </trkpt>
      <trkpt lat="47.32078" lon="4.94686">
        <ele>436.5</ele>
        <time>2013-02-16T07:34:22.000Z</time>
      </trkpt>
      <trkpt lat="47.32076" lon="4.94687">
        <ele>436.7</ele>
        <time>2013-02-16T07:34:23.000Z</time>
      </trkpt>
      <trkpt lat="47.32073" lon="4.94689">
        <ele>436.4</ele>
        <time>2013-02-16T07:34:26.000Z</time>
      </trkpt>
      <trkpt lat="47.32072" lon="4.94689">
        <ele>436.5</ele>
        <time>2013-02-16T07:34:27.000Z</time>
      </trkpt>
      <trkpt lat="47.32068" lon="4.94691">
        <ele>437.1</ele>
        <time>2013-02-16T07:34:30.000Z</time>
      </trkpt>
      <trkpt lat="47.32067" lon="4.94692">
        <ele>437.3</ele>
        <time>2013-02-16T07:34:31.000Z</time>
      </trkpt>
      <trkpt lat="47.32066" lon="4.94694">
        <ele>437.5</ele>
        <time>2013-02-16T07:34:32.000Z</time>
      </trkpt>
      <trkpt lat="47.32041" lon="4.94712">
        <ele>451.3</ele>
        <time>2013-02-16T07:34:50.000Z</time>
      </trkpt>
      <trkpt lat="47.32037" lon="4.94715">
        <ele>455.7</ele>
        <time>2013-02-16T07:34:58.000Z</time>
      </trkpt>
      <trkpt lat="47.32036" lon="4.94715">
        <ele>456.8</ele>
        <time>2013-02-16T07:34:59.000Z</time>
      </trkpt>
      <trkpt lat="47.32033" lon="4.94719">
        <ele>462.5</ele>
        <time>2013-02-16T07:35:03.000Z</time>
      </trkpt>
      <trkpt lat="47.32032" lon="4.9472">
        <ele>460.8</ele>
        <time>2013-02-16T07:35:04.000Z</time>
      </trkpt>
      <trkpt lat="47.32029" lon="4.94721">
        <ele>457.5</ele>
        <time>2013-02-16T07:35:07.000Z</time>
      </trkpt>
      <trkpt lat="47.32027" lon="4.94722">
        <ele>457.2</ele>
        <time>2013-02-16T07:35:08.000Z</time>
      </trkpt>
      <trkpt lat="47.32024" lon="4.94724">
        <ele>457.5</ele>
        <time>2013-02-16T07:35:10.000Z</time>
      </trkpt>
      <trkpt lat="47.32023" lon="4.94724">
        <ele>457.5</ele>
        <time>2013-02-16T07:35:11.000Z</time>
      </trkpt>
      <trkpt lat="47.32019" lon="4.94726">
        <ele>456.6</ele>
        <time>2013-02-16T07:35:15.000Z</time>
      </trkpt>
      <trkpt lat="47.32018" lon="4.94727">
        <ele>456.1</ele>
        <time>2013-02-16T07:35:16.000Z</time>
      </trkpt>
      <trkpt lat="47.32015" lon="4.94731">
        <ele>454.7</ele>
        <time>2013-02-16T07:35:21.000Z</time>
      </trkpt>
      <trkpt lat="47.32014" lon="4.94732">
        <ele>453.8</ele>
        <time>2013-02-16T07:35:22.000Z</time>
      </trkpt>
      <trkpt lat="47.3201" lon="4.94734">
        <ele>453.2</ele>
        <time>2013-02-16T07:35:26.000Z</time>
      </trkpt>
      <trkpt lat="47.32009" lon="4.94735">
        <ele>453.2</ele>
        <time>2013-02-16T07:35:27.000Z</time>
      </trkpt>
      <trkpt lat="47.32007" lon="4.94739">
        <ele>452.9</ele>
        <time>2013-02-16T07:35:29.000Z</time>
      </trkpt>
      <trkpt lat="47.32006" lon="4.94742">
        <ele>453.2</ele>
        <time>2013-02-16T07:35:30.000Z</time>
      </trkpt>
      <trkpt lat="47.32006" lon="4.94746">
        <ele>453.3</ele>
        <time>2013-02-16T07:35:32.000Z</time>
      </trkpt>
      <trkpt lat="47.31999" lon="4.94764">
        <ele>449.9</ele>
        <time>2013-02-16T07:35:38.000Z</time>
      </trkpt>
      <trkpt lat="47.31996" lon="4.94767">
        <ele>450.4</ele>
        <time>2013-02-16T07:35:41.000Z</time>
      </trkpt>
      <trkpt lat="47.31996" lon="4.94769">
        <ele>450.5</ele>
        <time>2013-02-16T07:35:42.000Z</time>
      </trkpt>
      <trkpt lat="47.31997" lon="4.94775">
        <ele>451</ele>
        <time>2013-02-16T07:35:48.000Z</time>
      </trkpt>
      <trkpt lat="47.31997" lon="4.94776">
        <ele>451.5</ele>
        <time>2013-02-16T07:35:49.000Z</time>
      </trkpt>
      <trkpt lat="47.31998" lon="4.94782">
        <ele>452.8</ele>
        <time>2013-02-16T07:35:53.000Z</time>
      </trkpt>
      <trkpt lat="47.31997" lon="4.94783">
        <ele>453.5</ele>
        <time>2013-02-16T07:35:54.000Z</time>
      </trkpt>
      <trkpt lat="47.31997" lon="4.94789">
        <ele>457.2</ele>
        <time>2013-02-16T07:36:00.000Z</time>
      </trkpt>
      <trkpt lat="47.31996" lon="4.9479">
        <ele>457.3</ele>
        <time>2013-02-16T07:36:01.000Z</time>
      </trkpt>
      <trkpt lat="47.31994" lon="4.94795">
        <ele>456.5</ele>
        <time>2013-02-16T07:36:05.000Z</time>
      </trkpt>
      <trkpt lat="47.31994" lon="4.94796">
        <ele>456.3</ele>
        <time>2013-02-16T07:36:06.000Z</time>
      </trkpt>
      <trkpt lat="47.31994" lon="4.94802">
        <ele>454.8</ele>
        <time>2013-02-16T07:36:12.000Z</time>
      </trkpt>
      <trkpt lat="47.31994" lon="4.94804">
        <ele>454.5</ele>
        <time>2013-02-16T07:36:13.000Z</time>
      </trkpt>
      <trkpt lat="47.31996" lon="4.94809">
        <ele>454.1</ele>
        <time>2013-02-16T07:36:17.000Z</time>
      </trkpt>
      <trkpt lat="47.31996" lon="4.9481">
        <ele>454.2</ele>
        <time>2013-02-16T07:36:18.000Z</time>
      </trkpt>
      <trkpt lat="47.31995" lon="4.94817">
        <ele>454.2</ele>
        <time>2013-02-16T07:36:23.000Z</time>
      </trkpt>
      <trkpt lat="47.31996" lon="4.94819">
        <ele>454.3</ele>
        <time>2013-02-16T07:36:24.000Z</time>
      </trkpt>
      <trkpt lat="47.31997" lon="4.94824">
        <ele>454.4</ele>
        <time>2013-02-16T07:36:27.000Z</time>
      </trkpt>
      <trkpt lat="47.31997" lon="4.94826">
        <ele>454.5</ele>
        <time>2013-02-16T07:36:28.000Z</time>
      </trkpt>
      <trkpt lat="47.31997" lon="4.94828">
        <ele>454.4</ele>
        <time>2013-02-16T07:36:32.000Z</time>
      </trkpt>
      <trkpt lat="47.32004" lon="4.94849">
        <ele>453</ele>
        <time>2013-02-16T07:36:38.000Z</time>
      </trkpt>
      <trkpt lat="47.32005" lon="4.94854">
        <ele>457.1</ele>
        <time>2013-02-16T07:36:43.000Z</time>
      </trkpt>
      <trkpt lat="47.32005" lon="4.94858">
        <ele>456.8</ele>
        <time>2013-02-16T07:36:44.000Z</time>
      </trkpt>
      <trkpt lat="47.32007" lon="4.94863">
        <ele>459.2</ele>
        <time>2013-02-16T07:36:48.000Z</time>
      </trkpt>
      <trkpt lat="47.32007" lon="4.94864">
        <ele>459.7</ele>
        <time>2013-02-16T07:36:49.000Z</time>
      </trkpt>
      <trkpt lat="47.32009" lon="4.94869">
        <ele>459.9</ele>
        <time>2013-02-16T07:36:52.000Z</time>
      </trkpt>
      <trkpt lat="47.3201" lon="4.9487">
        <ele>459.7</ele>
        <time>2013-02-16T07:36:53.000Z</time>
      </trkpt>
      <trkpt lat="47.32012" lon="4.94875">
        <ele>460.7</ele>
        <time>2013-02-16T07:36:58.000Z</time>
      </trkpt>
      <trkpt lat="47.32013" lon="4.94876">
        <ele>460.9</ele>
        <time>2013-02-16T07:36:59.000Z</time>
      </trkpt>
      <trkpt lat="47.32014" lon="4.94881">
        <ele>461.2</ele>
        <time>2013-02-16T07:37:03.000Z</time>
      </trkpt>
      <trkpt lat="47.32015" lon="4.94883">
        <ele>461.3</ele>
        <time>2013-02-16T07:37:04.000Z</time>
      </trkpt>
      <trkpt lat="47.32017" lon="4.94887">
        <ele>461.2</ele>
        <time>2013-02-16T07:37:08.000Z</time>
      </trkpt>
      <trkpt lat="47.32019" lon="4.94888">
        <ele>461.4</ele>
        <time>2013-02-16T07:37:09.000Z</time>
      </trkpt>
      <trkpt lat="47.32022" lon="4.94892">
        <ele>462.2</ele>
        <time>2013-02-16T07:37:12.000Z</time>
      </trkpt>
      <trkpt lat="47.32023" lon="4.94894">
        <ele>462.2</ele>
        <time>2013-02-16T07:37:13.000Z</time>
      </trkpt>
      <trkpt lat="47.32026" lon="4.94897">
        <ele>462.4</ele>
        <time>2013-02-16T07:37:16.000Z</time>
      </trkpt>
      <trkpt lat="47.32026" lon="4.94899">
        <ele>462.5</ele>
        <time>2013-02-16T07:37:17.000Z</time>
      </trkpt>
      <trkpt lat="47.32028" lon="4.94903">
        <ele>462.5</ele>
        <time>2013-02-16T07:37:19.000Z</time>
      </trkpt>
      <trkpt lat="47.32029" lon="4.94906">
        <ele>462.4</ele>
        <time>2013-02-16T07:37:20.000Z</time>
      </trkpt>
      <trkpt lat="47.32031" lon="4.94911">
        <ele>462.6</ele>
        <time>2013-02-16T07:37:22.000Z</time>
      </trkpt>
      <trkpt lat="47.32032" lon="4.94914">
        <ele>462.9</ele>
        <time>2013-02-16T07:37:23.000Z</time>
      </trkpt>
      <trkpt lat="47.32034" lon="4.94919">
        <ele>463</ele>
        <time>2013-02-16T07:37:25.000Z</time>
      </trkpt>
      <trkpt lat="47.32035" lon="4.94922">
        <ele>462.9</ele>
        <time>2013-02-16T07:37:26.000Z</time>
      </trkpt>
      <trkpt lat="47.32037" lon="4.94926">
        <ele>462.9</ele>
        <time>2013-02-16T07:37:28.000Z</time>
      </trkpt>
      <trkpt lat="47.32039" lon="4.94927">
        <ele>462.7</ele>
        <time>2013-02-16T07:37:29.000Z</time>
      </trkpt>
      <trkpt lat="47.32039" lon="4.94931">
        <ele>462.8</ele>
        <time>2013-02-16T07:37:32.000Z</time>
      </trkpt>
      <trkpt lat="47.32037" lon="4.9494">
        <ele>464.1</ele>
        <time>2013-02-16T07:37:39.000Z</time>
      </trkpt>
      <trkpt lat="47.32035" lon="4.94945">
        <ele>457.7</ele>
        <time>2013-02-16T07:43:33.000Z</time>
      </trkpt>
      <trkpt lat="47.32033" lon="4.94951">
        <ele>459.9</ele>
        <time>2013-02-16T07:43:39.000Z</time>
      </trkpt>
      <trkpt lat="47.32033" lon="4.94951">
        <ele>459.9</ele>
        <time>2013-02-16T07:44:33.000Z</time>
      </trkpt>
      <trkpt lat="47.32028" lon="4.94933">
        <ele>457.7</ele>
        <time>2013-02-16T07:44:39.000Z</time>
      </trkpt>
      <trkpt lat="47.32028" lon="4.94933">
        <ele>457.7</ele>
        <time>2013-02-16T07:45:20.000Z</time>
      </trkpt>
      <trkpt lat="47.32033" lon="4.94942">
        <ele>459.2</ele>
        <time>2013-02-16T07:45:21.000Z</time>
      </trkpt>
      <trkpt lat="47.32031" lon="4.94947">
        <ele>459</ele>
        <time>2013-02-16T07:45:25.000Z</time>
      </trkpt>
      <trkpt lat="47.3203" lon="4.94948">
        <ele>459</ele>
        <time>2013-02-16T07:45:26.000Z</time>
      </trkpt>
      <trkpt lat="47.32027" lon="4.94952">
        <ele>459.1</ele>
        <time>2013-02-16T07:45:30.000Z</time>
      </trkpt>
      <trkpt lat="47.32026" lon="4.94952">
        <ele>459.1</ele>
        <time>2013-02-16T07:45:31.000Z</time>
      </trkpt>
      <trkpt lat="47.32024" lon="4.94953">
        <ele>459</ele>
        <time>2013-02-16T07:45:33.000Z</time>
      </trkpt>
      <trkpt lat="47.32016" lon="4.94957">
        <ele>457.4</ele>
        <time>2013-02-16T07:45:39.000Z</time>
      </trkpt>
      <trkpt lat="47.32012" lon="4.94959">
        <ele>458.8</ele>
        <time>2013-02-16T07:45:43.000Z</time>
      </trkpt>
      <trkpt lat="47.32011" lon="4.94959">
        <ele>459.2</ele>
        <time>2013-02-16T07:45:44.000Z</time>
      </trkpt>
      <trkpt lat="47.32007" lon="4.94959">
        <ele>458.9</ele>
        <time>2013-02-16T07:45:47.000Z</time>
      </trkpt>
      <trkpt lat="47.32006" lon="4.94958">
        <ele>458.9</ele>
        <time>2013-02-16T07:45:48.000Z</time>
      </trkpt>
      <trkpt lat="47.32002" lon="4.94957">
        <ele>459.4</ele>
        <time>2013-02-16T07:45:51.000Z</time>
      </trkpt>
      <trkpt lat="47.32001" lon="4.94956">
        <ele>459.4</ele>
        <time>2013-02-16T07:45:52.000Z</time>
      </trkpt>
      <trkpt lat="47.31997" lon="4.94954">
        <ele>460</ele>
        <time>2013-02-16T07:45:55.000Z</time>
      </trkpt>
      <trkpt lat="47.31996" lon="4.94953">
        <ele>460.3</ele>
        <time>2013-02-16T07:45:56.000Z</time>
      </trkpt>
      <trkpt lat="47.31993" lon="4.94949">
        <ele>460.9</ele>
        <time>2013-02-16T07:45:59.000Z</time>
      </trkpt>
      <trkpt lat="47.31991" lon="4.94948">
        <ele>461</ele>
        <time>2013-02-16T07:46:00.000Z</time>
      </trkpt>
      <trkpt lat="47.31988" lon="4.94944">
        <ele>461.4</ele>
        <time>2013-02-16T07:46:03.000Z</time>
      </trkpt>
      <trkpt lat="47.31987" lon="4.94942">
        <ele>461.3</ele>
        <time>2013-02-16T07:46:04.000Z</time>
      </trkpt>
      <trkpt lat="47.31985" lon="4.94939">
        <ele>461</ele>
        <time>2013-02-16T07:46:06.000Z</time>
      </trkpt>
      <trkpt lat="47.31984" lon="4.94937">
        <ele>461.1</ele>
        <time>2013-02-16T07:46:07.000Z</time>
      </trkpt>
      <trkpt lat="47.31981" lon="4.94934">
        <ele>461</ele>
        <time>2013-02-16T07:46:09.000Z</time>
      </trkpt>
      <trkpt lat="47.3198" lon="4.94933">
        <ele>461</ele>
        <time>2013-02-16T07:46:10.000Z</time>
      </trkpt>
      <trkpt lat="47.31978" lon="4.9493">
        <ele>460.9</ele>
        <time>2013-02-16T07:46:12.000Z</time>
      </trkpt>
      <trkpt lat="47.31977" lon="4.94928">
        <ele>460.9</ele>
        <time>2013-02-16T07:46:13.000Z</time>
      </trkpt>
      <trkpt lat="47.31975" lon="4.94925">
        <ele>460.8</ele>
        <time>2013-02-16T07:46:15.000Z</time>
      </trkpt>
      <trkpt lat="47.31974" lon="4.94923">
        <ele>460.8</ele>
        <time>2013-02-16T07:46:16.000Z</time>
      </trkpt>
      <trkpt lat="47.31971" lon="4.94919">
        <ele>460.7</ele>
        <time>2013-02-16T07:46:19.000Z</time>
      </trkpt>
      <trkpt lat="47.3197" lon="4.94917">
        <ele>460.7</ele>
        <time>2013-02-16T07:46:20.000Z</time>
      </trkpt>
      <trkpt lat="47.31966" lon="4.94913">
        <ele>460.5</ele>
        <time>2013-02-16T07:46:23.000Z</time>
      </trkpt>
      <trkpt lat="47.31965" lon="4.94912">
        <ele>460.6</ele>
        <time>2013-02-16T07:46:24.000Z</time>
      </trkpt>
      <trkpt lat="47.31962" lon="4.94908">
        <ele>460.6</ele>
        <time>2013-02-16T07:46:27.000Z</time>
      </trkpt>
      <trkpt lat="47.31961" lon="4.94906">
        <ele>460.6</ele>
        <time>2013-02-16T07:46:28.000Z</time>
      </trkpt>
      <trkpt lat="47.31958" lon="4.94901">
        <ele>460.7</ele>
        <time>2013-02-16T07:46:31.000Z</time>
      </trkpt>
      <trkpt lat="47.31957" lon="4.949">
        <ele>460.7</ele>
        <time>2013-02-16T07:46:32.000Z</time>
      </trkpt>
      <trkpt lat="47.31956" lon="4.94898">
        <ele>460.6</ele>
        <time>2013-02-16T07:46:33.000Z</time>
      </trkpt>
      <trkpt lat="47.31951" lon="4.94888">
        <ele>462.2</ele>
        <time>2013-02-16T07:46:39.000Z</time>
      </trkpt>
      <trkpt lat="47.31949" lon="4.94883">
        <ele>461.3</ele>
        <time>2013-02-16T07:46:42.000Z</time>
      </trkpt>
      <trkpt lat="47.31948" lon="4.94881">
        <ele>460.9</ele>
        <time>2013-02-16T07:46:43.000Z</time>
      </trkpt>
      <trkpt lat="47.31945" lon="4.94876">
        <ele>460.5</ele>
        <time>2013-02-16T07:46:46.000Z</time>
      </trkpt>
      <trkpt lat="47.31944" lon="4.94874">
        <ele>460.2</ele>
        <time>2013-02-16T07:46:47.000Z</time>
      </trkpt>
      <trkpt lat="47.31941" lon="4.94869">
        <ele>460</ele>
        <time>2013-02-16T07:46:50.000Z</time>
      </trkpt>
      <trkpt lat="47.3194" lon="4.94867">
        <ele>459.4</ele>
        <time>2013-02-16T07:46:51.000Z</time>
      </trkpt>
      <trkpt lat="47.31937" lon="4.94862">
        <ele>460.1</ele>
        <time>2013-02-16T07:46:54.000Z</time>
      </trkpt>
      <trkpt lat="47.31937" lon="4.9486">
        <ele>460.2</ele>
        <time>2013-02-16T07:46:55.000Z</time>
      </trkpt>
      <trkpt lat="47.31934" lon="4.94855">
        <ele>460.2</ele>
        <time>2013-02-16T07:46:58.000Z</time>
      </trkpt>
      <trkpt lat="47.31933" lon="4.94853">
        <ele>460.2</ele>
        <time>2013-02-16T07:46:59.000Z</time>
      </trkpt>
      <trkpt lat="47.3193" lon="4.94848">
        <ele>461.3</ele>
        <time>2013-02-16T07:47:02.000Z</time>
      </trkpt>
      <trkpt lat="47.3193" lon="4.94846">
        <ele>461.2</ele>
        <time>2013-02-16T07:47:03.000Z</time>
      </trkpt>
      <trkpt lat="47.31928" lon="4.9484">
        <ele>461.4</ele>
        <time>2013-02-16T07:47:06.000Z</time>
      </trkpt>
      <trkpt lat="47.31927" lon="4.94838">
        <ele>461.4</ele>
        <time>2013-02-16T07:47:07.000Z</time>
      </trkpt>
      <trkpt lat="47.31926" lon="4.94834">
        <ele>461.6</ele>
        <time>2013-02-16T07:47:09.000Z</time>
      </trkpt>
      <trkpt lat="47.31925" lon="4.94832">
        <ele>461.7</ele>
        <time>2013-02-16T07:47:10.000Z</time>
      </trkpt>
      <trkpt lat="47.31923" lon="4.94828">
        <ele>461.8</ele>
        <time>2013-02-16T07:47:12.000Z</time>
      </trkpt>
      <trkpt lat="47.31923" lon="4.94826">
        <ele>461.9</ele>
        <time>2013-02-16T07:47:13.000Z</time>
      </trkpt>
      <trkpt lat="47.31921" lon="4.9482">
        <ele>461.8</ele>
        <time>2013-02-16T07:47:16.000Z</time>
      </trkpt>
      <trkpt lat="47.3192" lon="4.94818">
        <ele>461.8</ele>
        <time>2013-02-16T07:47:17.000Z</time>
      </trkpt>
      <trkpt lat="47.31918" lon="4.94813">
        <ele>462.2</ele>
        <time>2013-02-16T07:47:20.000Z</time>
      </trkpt>
      <trkpt lat="47.31917" lon="4.94811">
        <ele>462.2</ele>
        <time>2013-02-16T07:47:21.000Z</time>
      </trkpt>
      <trkpt lat="47.31916" lon="4.94805">
        <ele>462.4</ele>
        <time>2013-02-16T07:47:24.000Z</time>
      </trkpt>
      <trkpt lat="47.31915" lon="4.94803">
        <ele>462.5</ele>
        <time>2013-02-16T07:47:25.000Z</time>
      </trkpt>
      <trkpt lat="47.31913" lon="4.94797">
        <ele>462.6</ele>
        <time>2013-02-16T07:47:28.000Z</time>
      </trkpt>
      <trkpt lat="47.31912" lon="4.94795">
        <ele>462.6</ele>
        <time>2013-02-16T07:47:29.000Z</time>
      </trkpt>
      <trkpt lat="47.31911" lon="4.94791">
        <ele>462.5</ele>
        <time>2013-02-16T07:47:31.000Z</time>
      </trkpt>
      <trkpt lat="47.3191" lon="4.94789">
        <ele>462.5</ele>
        <time>2013-02-16T07:47:32.000Z</time>
      </trkpt>
      <trkpt lat="47.3191" lon="4.94787">
        <ele>462.5</ele>
        <time>2013-02-16T07:47:33.000Z</time>
      </trkpt>
      <trkpt lat="47.31906" lon="4.94771">
        <ele>463.1</ele>
        <time>2013-02-16T07:47:40.000Z</time>
      </trkpt>
      <trkpt lat="47.31904" lon="4.94765">
        <ele>462.7</ele>
        <time>2013-02-16T07:47:43.000Z</time>
      </trkpt>
      <trkpt lat="47.31903" lon="4.94763">
        <ele>462.7</ele>
        <time>2013-02-16T07:47:44.000Z</time>
      </trkpt>
      <trkpt lat="47.31902" lon="4.94758">
        <ele>462.6</ele>
        <time>2013-02-16T07:47:46.000Z</time>
      </trkpt>
      <trkpt lat="47.31901" lon="4.94756">
        <ele>463</ele>
        <time>2013-02-16T07:47:47.000Z</time>
      </trkpt>
      <trkpt lat="47.319" lon="4.9475">
        <ele>463.5</ele>
        <time>2013-02-16T07:47:50.000Z</time>
      </trkpt>
      <trkpt lat="47.31899" lon="4.94748">
        <ele>463.8</ele>
        <time>2013-02-16T07:47:51.000Z</time>
      </trkpt>
      <trkpt lat="47.31897" lon="4.94742">
        <ele>464.3</ele>
        <time>2013-02-16T07:47:54.000Z</time>
      </trkpt>
      <trkpt lat="47.31897" lon="4.9474">
        <ele>464.1</ele>
        <time>2013-02-16T07:47:55.000Z</time>
      </trkpt>
      <trkpt lat="47.31895" lon="4.94736">
        <ele>464</ele>
        <time>2013-02-16T07:47:57.000Z</time>
      </trkpt>
      <trkpt lat="47.31895" lon="4.94734">
        <ele>464</ele>
        <time>2013-02-16T07:47:58.000Z</time>
      </trkpt>
      <trkpt lat="47.31893" lon="4.94728">
        <ele>464.3</ele>
        <time>2013-02-16T07:48:01.000Z</time>
      </trkpt>
      <trkpt lat="47.31892" lon="4.94726">
        <ele>464.2</ele>
        <time>2013-02-16T07:48:02.000Z</time>
      </trkpt>
      <trkpt lat="47.3189" lon="4.94721">
        <ele>464.6</ele>
        <time>2013-02-16T07:48:05.000Z</time>
      </trkpt>
      <trkpt lat="47.31889" lon="4.9472">
        <ele>464.7</ele>
        <time>2013-02-16T07:48:06.000Z</time>
      </trkpt>
      <trkpt lat="47.31887" lon="4.94716">
        <ele>464.8</ele>
        <time>2013-02-16T07:48:08.000Z</time>
      </trkpt>
      <trkpt lat="47.31886" lon="4.94713">
        <ele>464.6</ele>
        <time>2013-02-16T07:48:09.000Z</time>
      </trkpt>
      <trkpt lat="47.31885" lon="4.94709">
        <ele>464.2</ele>
        <time>2013-02-16T07:48:11.000Z</time>
      </trkpt>
      <trkpt lat="47.31884" lon="4.94707">
        <ele>464.3</ele>
        <time>2013-02-16T07:48:12.000Z</time>
      </trkpt>
      <trkpt lat="47.31883" lon="4.94703">
        <ele>464</ele>
        <time>2013-02-16T07:48:14.000Z</time>
      </trkpt>
      <trkpt lat="47.31882" lon="4.94701">
        <ele>464</ele>
        <time>2013-02-16T07:48:15.000Z</time>
      </trkpt>
      <trkpt lat="47.31881" lon="4.94697">
        <ele>463.5</ele>
        <time>2013-02-16T07:48:17.000Z</time>
      </trkpt>
      <trkpt lat="47.3188" lon="4.94694">
        <ele>463.3</ele>
        <time>2013-02-16T07:48:18.000Z</time>
      </trkpt>
      <trkpt lat="47.31879" lon="4.9469">
        <ele>463</ele>
        <time>2013-02-16T07:48:20.000Z</time>
      </trkpt>
      <trkpt lat="47.31878" lon="4.94688">
        <ele>463</ele>
        <time>2013-02-16T07:48:21.000Z</time>
      </trkpt>
      <trkpt lat="47.31876" lon="4.94684">
        <ele>463.2</ele>
        <time>2013-02-16T07:48:23.000Z</time>
      </trkpt>
      <trkpt lat="47.31875" lon="4.94682">
        <ele>463.1</ele>
        <time>2013-02-16T07:48:24.000Z</time>
      </trkpt>
      <trkpt lat="47.31874" lon="4.94678">
        <ele>463.2</ele>
        <time>2013-02-16T07:48:26.000Z</time>
      </trkpt>
      <trkpt lat="47.31873" lon="4.94676">
        <ele>463.2</ele>
        <time>2013-02-16T07:48:27.000Z</time>
      </trkpt>
      <trkpt lat="47.31871" lon="4.94673">
        <ele>463.3</ele>
        <time>2013-02-16T07:48:29.000Z</time>
      </trkpt>
      <trkpt lat="47.3187" lon="4.94671">
        <ele>463.3</ele>
        <time>2013-02-16T07:48:30.000Z</time>
      </trkpt>
      <trkpt lat="47.31868" lon="4.94665">
        <ele>463.3</ele>
        <time>2013-02-16T07:48:33.000Z</time>
      </trkpt>
      <trkpt lat="47.31867" lon="4.94663">
        <ele>463.2</ele>
        <time>2013-02-16T07:48:34.000Z</time>
      </trkpt>
      <trkpt lat="47.31865" lon="4.94659">
        <ele>463.1</ele>
        <time>2013-02-16T07:48:36.000Z</time>
      </trkpt>
      <trkpt lat="47.31865" lon="4.94657">
        <ele>463.1</ele>
        <time>2013-02-16T07:48:37.000Z</time>
      </trkpt>
      <trkpt lat="47.31863" lon="4.94653">
        <ele>463</ele>
        <time>2013-02-16T07:48:39.000Z</time>
      </trkpt>
      <trkpt lat="47.31862" lon="4.94651">
        <ele>463.2</ele>
        <time>2013-02-16T07:48:40.000Z</time>
      </trkpt>
      <trkpt lat="47.31859" lon="4.94646">
        <ele>463.2</ele>
        <time>2013-02-16T07:48:43.000Z</time>
      </trkpt>
      <trkpt lat="47.31858" lon="4.94644">
        <ele>463.3</ele>
        <time>2013-02-16T07:48:44.000Z</time>
      </trkpt>
      <trkpt lat="47.31856" lon="4.94639">
        <ele>463.5</ele>
        <time>2013-02-16T07:48:47.000Z</time>
      </trkpt>
      <trkpt lat="47.31855" lon="4.94637">
        <ele>463.4</ele>
        <time>2013-02-16T07:48:48.000Z</time>
      </trkpt>
      <trkpt lat="47.31852" lon="4.94632">
        <ele>463.5</ele>
        <time>2013-02-16T07:48:51.000Z</time>
      </trkpt>
      <trkpt lat="47.31851" lon="4.9463">
        <ele>463.5</ele>
        <time>2013-02-16T07:48:52.000Z</time>
      </trkpt>
      <trkpt lat="47.31849" lon="4.94626">
        <ele>463.5</ele>
        <time>2013-02-16T07:48:54.000Z</time>
      </trkpt>
      <trkpt lat="47.31848" lon="4.94624">
        <ele>463.5</ele>
        <time>2013-02-16T07:48:55.000Z</time>
      </trkpt>
      <trkpt lat="47.31846" lon="4.94619">
        <ele>463.5</ele>
        <time>2013-02-16T07:48:58.000Z</time>
      </trkpt>
      <trkpt lat="47.31845" lon="4.94617">
        <ele>463.7</ele>
        <time>2013-02-16T07:48:59.000Z</time>
      </trkpt>
      <trkpt lat="47.31843" lon="4.94614">
        <ele>463.7</ele>
        <time>2013-02-16T07:49:01.000Z</time>
      </trkpt>
      <trkpt lat="47.31842" lon="4.94612">
        <ele>463.8</ele>
        <time>2013-02-16T07:49:02.000Z</time>
      </trkpt>
      <trkpt lat="47.3184" lon="4.94608">
        <ele>463.8</ele>
        <time>2013-02-16T07:49:04.000Z</time>
      </trkpt>
      <trkpt lat="47.31839" lon="4.94606">
        <ele>463.8</ele>
        <time>2013-02-16T07:49:05.000Z</time>
      </trkpt>
      <trkpt lat="47.31837" lon="4.94603">
        <ele>463.7</ele>
        <time>2013-02-16T07:49:07.000Z</time>
      </trkpt>
      <trkpt lat="47.31836" lon="4.94601">
        <ele>463.7</ele>
        <time>2013-02-16T07:49:08.000Z</time>
      </trkpt>
      <trkpt lat="47.31834" lon="4.94597">
        <ele>463.6</ele>
        <time>2013-02-16T07:49:10.000Z</time>
      </trkpt>
      <trkpt lat="47.31833" lon="4.94596">
        <ele>463.6</ele>
        <time>2013-02-16T07:49:11.000Z</time>
      </trkpt>
      <trkpt lat="47.31831" lon="4.94592">
        <ele>463.6</ele>
        <time>2013-02-16T07:49:13.000Z</time>
      </trkpt>
      <trkpt lat="47.3183" lon="4.9459">
        <ele>463.6</ele>
        <time>2013-02-16T07:49:14.000Z</time>
      </trkpt>
      <trkpt lat="47.31828" lon="4.94587">
        <ele>463.6</ele>
        <time>2013-02-16T07:49:16.000Z</time>
      </trkpt>
      <trkpt lat="47.31827" lon="4.94585">
        <ele>463.6</ele>
        <time>2013-02-16T07:49:17.000Z</time>
      </trkpt>
      <trkpt lat="47.31825" lon="4.94581">
        <ele>463.4</ele>
        <time>2013-02-16T07:49:19.000Z</time>
      </trkpt>
      <trkpt lat="47.31824" lon="4.94579">
        <ele>463.4</ele>
        <time>2013-02-16T07:49:20.000Z</time>
      </trkpt>
      <trkpt lat="47.31822" lon="4.94576">
        <ele>463.5</ele>
        <time>2013-02-16T07:49:22.000Z</time>
      </trkpt>
      <trkpt lat="47.31821" lon="4.94574">
        <ele>463.5</ele>
        <time>2013-02-16T07:49:23.000Z</time>
      </trkpt>
      <trkpt lat="47.31819" lon="4.9457">
        <ele>463.6</ele>
        <time>2013-02-16T07:49:25.000Z</time>
      </trkpt>
      <trkpt lat="47.31818" lon="4.94568">
        <ele>463.6</ele>
        <time>2013-02-16T07:49:26.000Z</time>
      </trkpt>
      <trkpt lat="47.31816" lon="4.94565">
        <ele>463.6</ele>
        <time>2013-02-16T07:49:28.000Z</time>
      </trkpt>
      <trkpt lat="47.31814" lon="4.94563">
        <ele>463.6</ele>
        <time>2013-02-16T07:49:29.000Z</time>
      </trkpt>
      <trkpt lat="47.31812" lon="4.9456">
        <ele>463.7</ele>
        <time>2013-02-16T07:49:31.000Z</time>
      </trkpt>
      <trkpt lat="47.31811" lon="4.94558">
        <ele>463.7</ele>
        <time>2013-02-16T07:49:32.000Z</time>
      </trkpt>
      <trkpt lat="47.31809" lon="4.94555">
        <ele>463.9</ele>
        <time>2013-02-16T07:49:34.000Z</time>
      </trkpt>
      <trkpt lat="47.31808" lon="4.94553">
        <ele>463.9</ele>
        <time>2013-02-16T07:49:35.000Z</time>
      </trkpt>
      <trkpt lat="47.31806" lon="4.9455">
        <ele>464.1</ele>
        <time>2013-02-16T07:49:37.000Z</time>
      </trkpt>
      <trkpt lat="47.31805" lon="4.94548">
        <ele>464.2</ele>
        <time>2013-02-16T07:49:38.000Z</time>
      </trkpt>
      <trkpt lat="47.31802" lon="4.94544">
        <ele>464.2</ele>
        <time>2013-02-16T07:49:40.000Z</time>
      </trkpt>
      <trkpt lat="47.31801" lon="4.94542">
        <ele>464.2</ele>
        <time>2013-02-16T07:49:41.000Z</time>
      </trkpt>
      <trkpt lat="47.31799" lon="4.94539">
        <ele>464.3</ele>
        <time>2013-02-16T07:49:43.000Z</time>
      </trkpt>
      <trkpt lat="47.31798" lon="4.94537">
        <ele>464.3</ele>
        <time>2013-02-16T07:49:44.000Z</time>
      </trkpt>
      <trkpt lat="47.31796" lon="4.94534">
        <ele>464.5</ele>
        <time>2013-02-16T07:49:46.000Z</time>
      </trkpt>
      <trkpt lat="47.31795" lon="4.94532">
        <ele>464.6</ele>
        <time>2013-02-16T07:49:47.000Z</time>
      </trkpt>
      <trkpt lat="47.31793" lon="4.94528">
        <ele>464.8</ele>
        <time>2013-02-16T07:49:49.000Z</time>
      </trkpt>
      <trkpt lat="47.31792" lon="4.94527">
        <ele>464.8</ele>
        <time>2013-02-16T07:49:50.000Z</time>
      </trkpt>
      <trkpt lat="47.3179" lon="4.94523">
        <ele>465</ele>
        <time>2013-02-16T07:49:52.000Z</time>
      </trkpt>
      <trkpt lat="47.31789" lon="4.94521">
        <ele>465</ele>
        <time>2013-02-16T07:49:53.000Z</time>
      </trkpt>
      <trkpt lat="47.31787" lon="4.94517">
        <ele>465.1</ele>
        <time>2013-02-16T07:49:55.000Z</time>
      </trkpt>
      <trkpt lat="47.31787" lon="4.94515">
        <ele>465.1</ele>
        <time>2013-02-16T07:49:56.000Z</time>
      </trkpt>
      <trkpt lat="47.31786" lon="4.9451">
        <ele>465.2</ele>
        <time>2013-02-16T07:49:58.000Z</time>
      </trkpt>
      <trkpt lat="47.31785" lon="4.94508">
        <ele>465.3</ele>
        <time>2013-02-16T07:49:59.000Z</time>
      </trkpt>
      <trkpt lat="47.31785" lon="4.94502">
        <ele>465.2</ele>
        <time>2013-02-16T07:50:02.000Z</time>
      </trkpt>
      <trkpt lat="47.31785" lon="4.94499">
        <ele>465.2</ele>
        <time>2013-02-16T07:50:03.000Z</time>
      </trkpt>
      <trkpt lat="47.31786" lon="4.94493">
        <ele>465.2</ele>
        <time>2013-02-16T07:50:06.000Z</time>
      </trkpt>
      <trkpt lat="47.31787" lon="4.94492">
        <ele>465.2</ele>
        <time>2013-02-16T07:50:07.000Z</time>
      </trkpt>
      <trkpt lat="47.3179" lon="4.94489">
        <ele>465.2</ele>
        <time>2013-02-16T07:50:09.000Z</time>
      </trkpt>
      <trkpt lat="47.31791" lon="4.94488">
        <ele>465.3</ele>
        <time>2013-02-16T07:50:10.000Z</time>
      </trkpt>
      <trkpt lat="47.31793" lon="4.94485">
        <ele>465.2</ele>
        <time>2013-02-16T07:50:12.000Z</time>
      </trkpt>
      <trkpt lat="47.31794" lon="4.94484">
        <ele>465.2</ele>
        <time>2013-02-16T07:50:13.000Z</time>
      </trkpt>
      <trkpt lat="47.31797" lon="4.9448">
        <ele>465.1</ele>
        <time>2013-02-16T07:50:15.000Z</time>
      </trkpt>
      <trkpt lat="47.31798" lon="4.94478">
        <ele>465.2</ele>
        <time>2013-02-16T07:50:16.000Z</time>
      </trkpt>
      <trkpt lat="47.318" lon="4.94476">
        <ele>465.4</ele>
        <time>2013-02-16T07:50:19.000Z</time>
      </trkpt>
      <trkpt lat="47.31801" lon="4.94473">
        <ele>465.3</ele>
        <time>2013-02-16T07:50:20.000Z</time>
      </trkpt>
      <trkpt lat="47.31804" lon="4.94469">
        <ele>465.4</ele>
        <time>2013-02-16T07:50:23.000Z</time>
      </trkpt>
      <trkpt lat="47.31805" lon="4.94468">
        <ele>465.5</ele>
        <time>2013-02-16T07:50:24.000Z</time>
      </trkpt>
      <trkpt lat="47.31807" lon="4.94464">
        <ele>465.9</ele>
        <time>2013-02-16T07:50:27.000Z</time>
      </trkpt>
      <trkpt lat="47.31809" lon="4.94462">
        <ele>466</ele>
        <time>2013-02-16T07:50:28.000Z</time>
      </trkpt>
      <trkpt lat="47.31811" lon="4.94458">
        <ele>466</ele>
        <time>2013-02-16T07:50:30.000Z</time>
      </trkpt>
      <trkpt lat="47.31812" lon="4.94456">
        <ele>466.1</ele>
        <time>2013-02-16T07:50:31.000Z</time>
      </trkpt>
      <trkpt lat="47.31814" lon="4.94452">
        <ele>466.1</ele>
        <time>2013-02-16T07:50:33.000Z</time>
      </trkpt>
      <trkpt lat="47.31823" lon="4.94436">
        <ele>464.1</ele>
        <time>2013-02-16T07:50:40.000Z</time>
      </trkpt>
      <trkpt lat="47.31825" lon="4.94432">
        <ele>464.3</ele>
        <time>2013-02-16T07:50:43.000Z</time>
      </trkpt>
      <trkpt lat="47.31826" lon="4.94431">
        <ele>464.5</ele>
        <time>2013-02-16T07:50:44.000Z</time>
      </trkpt>
      <trkpt lat="47.31828" lon="4.94427">
        <ele>462.8</ele>
        <time>2013-02-16T07:50:47.000Z</time>
      </trkpt>
      <trkpt lat="47.31829" lon="4.94426">
        <ele>462.5</ele>
        <time>2013-02-16T07:50:48.000Z</time>
      </trkpt>
      <trkpt lat="47.31832" lon="4.94422">
        <ele>462.6</ele>
        <time>2013-02-16T07:50:51.000Z</time>
      </trkpt>
      <trkpt lat="47.31833" lon="4.94421">
        <ele>462.4</ele>
        <time>2013-02-16T07:50:52.000Z</time>
      </trkpt>
      <trkpt lat="47.31836" lon="4.94418">
        <ele>461.4</ele>
        <time>2013-02-16T07:50:54.000Z</time>
      </trkpt>
      <trkpt lat="47.31837" lon="4.94416">
        <ele>461.3</ele>
        <time>2013-02-16T07:50:55.000Z</time>
      </trkpt>
      <trkpt lat="47.3184" lon="4.94412">
        <ele>460.7</ele>
        <time>2013-02-16T07:50:58.000Z</time>
      </trkpt>
      <trkpt lat="47.31841" lon="4.9441">
        <ele>460.3</ele>
        <time>2013-02-16T07:50:59.000Z</time>
      </trkpt>
      <trkpt lat="47.31843" lon="4.94405">
        <ele>459.4</ele>
        <time>2013-02-16T07:51:02.000Z</time>
      </trkpt>
      <trkpt lat="47.31844" lon="4.94403">
        <ele>458.9</ele>
        <time>2013-02-16T07:51:03.000Z</time>
      </trkpt>
      <trkpt lat="47.31847" lon="4.94399">
        <ele>458.7</ele>
        <time>2013-02-16T07:51:06.000Z</time>
      </trkpt>
      <trkpt lat="47.31848" lon="4.94397">
        <ele>458.7</ele>
        <time>2013-02-16T07:51:07.000Z</time>
      </trkpt>
      <trkpt lat="47.31851" lon="4.94393">
        <ele>458.2</ele>
        <time>2013-02-16T07:51:09.000Z</time>
      </trkpt>
      <trkpt lat="47.31852" lon="4.94391">
        <ele>457.9</ele>
        <time>2013-02-16T07:51:10.000Z</time>
      </trkpt>
      <trkpt lat="47.31854" lon="4.94387">
        <ele>457.4</ele>
        <time>2013-02-16T07:51:12.000Z</time>
      </trkpt>
      <trkpt lat="47.31855" lon="4.94385">
        <ele>457.5</ele>
        <time>2013-02-16T07:51:13.000Z</time>
      </trkpt>
      <trkpt lat="47.31858" lon="4.9438">
        <ele>457.4</ele>
        <time>2013-02-16T07:51:16.000Z</time>
      </trkpt>
      <trkpt lat="47.31859" lon="4.94378">
        <ele>457.5</ele>
        <time>2013-02-16T07:51:17.000Z</time>
      </trkpt>
      <trkpt lat="47.31862" lon="4.94373">
        <ele>457.1</ele>
        <time>2013-02-16T07:51:20.000Z</time>
      </trkpt>
      <trkpt lat="47.31863" lon="4.94371">
        <ele>457</ele>
        <time>2013-02-16T07:51:21.000Z</time>
      </trkpt>
      <trkpt lat="47.31866" lon="4.94367">
        <ele>456.8</ele>
        <time>2013-02-16T07:51:24.000Z</time>
      </trkpt>
      <trkpt lat="47.31867" lon="4.94366">
        <ele>456.6</ele>
        <time>2013-02-16T07:51:25.000Z</time>
      </trkpt>
      <trkpt lat="47.3187" lon="4.94362">
        <ele>456.6</ele>
        <time>2013-02-16T07:51:28.000Z</time>
      </trkpt>
      <trkpt lat="47.31871" lon="4.9436">
        <ele>456.5</ele>
        <time>2013-02-16T07:51:29.000Z</time>
      </trkpt>
      <trkpt lat="47.31874" lon="4.94355">
        <ele>456.1</ele>
        <time>2013-02-16T07:51:32.000Z</time>
      </trkpt>
      <trkpt lat="47.31875" lon="4.94354">
        <ele>455.9</ele>
        <time>2013-02-16T07:51:33.000Z</time>
      </trkpt>
      <trkpt lat="47.31878" lon="4.94349">
        <ele>455.7</ele>
        <time>2013-02-16T07:51:36.000Z</time>
      </trkpt>
      <trkpt lat="47.31879" lon="4.94348">
        <ele>455.7</ele>
        <time>2013-02-16T07:51:37.000Z</time>
      </trkpt>
      <trkpt lat="47.31882" lon="4.94343">
        <ele>455.7</ele>
        <time>2013-02-16T07:51:40.000Z</time>
      </trkpt>
      <trkpt lat="47.31882" lon="4.94342">
        <ele>455.7</ele>
        <time>2013-02-16T07:51:41.000Z</time>
      </trkpt>
      <trkpt lat="47.31885" lon="4.94338">
        <ele>456.1</ele>
        <time>2013-02-16T07:51:44.000Z</time>
      </trkpt>
      <trkpt lat="47.31886" lon="4.94336">
        <ele>456.1</ele>
        <time>2013-02-16T07:51:45.000Z</time>
      </trkpt>
      <trkpt lat="47.31888" lon="4.94332">
        <ele>455.9</ele>
        <time>2013-02-16T07:51:47.000Z</time>
      </trkpt>
      <trkpt lat="47.31889" lon="4.9433">
        <ele>455.9</ele>
        <time>2013-02-16T07:51:48.000Z</time>
      </trkpt>
      <trkpt lat="47.31892" lon="4.94327">
        <ele>455.8</ele>
        <time>2013-02-16T07:51:50.000Z</time>
      </trkpt>
      <trkpt lat="47.31893" lon="4.94325">
        <ele>455.8</ele>
        <time>2013-02-16T07:51:51.000Z</time>
      </trkpt>
      <trkpt lat="47.31895" lon="4.94321">
        <ele>455.7</ele>
        <time>2013-02-16T07:51:54.000Z</time>
      </trkpt>
      <trkpt lat="47.31896" lon="4.94319">
        <ele>455.6</ele>
        <time>2013-02-16T07:51:55.000Z</time>
      </trkpt>
      <trkpt lat="47.31898" lon="4.94316">
        <ele>455.3</ele>
        <time>2013-02-16T07:51:57.000Z</time>
      </trkpt>
      <trkpt lat="47.31899" lon="4.94314">
        <ele>455.1</ele>
        <time>2013-02-16T07:51:58.000Z</time>
      </trkpt>
      <trkpt lat="47.31901" lon="4.9431">
        <ele>454.8</ele>
        <time>2013-02-16T07:52:00.000Z</time>
      </trkpt>
      <trkpt lat="47.31902" lon="4.94309">
        <ele>454.7</ele>
        <time>2013-02-16T07:52:01.000Z</time>
      </trkpt>
      <trkpt lat="47.31904" lon="4.94306">
        <ele>454.4</ele>
        <time>2013-02-16T07:52:03.000Z</time>
      </trkpt>
      <trkpt lat="47.31905" lon="4.94304">
        <ele>454.3</ele>
        <time>2013-02-16T07:52:04.000Z</time>
      </trkpt>
      <trkpt lat="47.31907" lon="4.94301">
        <ele>453.9</ele>
        <time>2013-02-16T07:52:06.000Z</time>
      </trkpt>
      <trkpt lat="47.31908" lon="4.94299">
        <ele>453.8</ele>
        <time>2013-02-16T07:52:07.000Z</time>
      </trkpt>
      <trkpt lat="47.31911" lon="4.94296">
        <ele>453.6</ele>
        <time>2013-02-16T07:52:09.000Z</time>
      </trkpt>
      <trkpt lat="47.31912" lon="4.94294">
        <ele>453.5</ele>
        <time>2013-02-16T07:52:10.000Z</time>
      </trkpt>
      <trkpt lat="47.31915" lon="4.94291">
        <ele>453.5</ele>
        <time>2013-02-16T07:52:13.000Z</time>
      </trkpt>
      <trkpt lat="47.31915" lon="4.9429">
        <ele>453.5</ele>
        <time>2013-02-16T07:52:14.000Z</time>
      </trkpt>
      <trkpt lat="47.31918" lon="4.94284">
        <ele>453.5</ele>
        <time>2013-02-16T07:52:17.000Z</time>
      </trkpt>
      <trkpt lat="47.31919" lon="4.94283">
        <ele>453.4</ele>
        <time>2013-02-16T07:52:18.000Z</time>
      </trkpt>
      <trkpt lat="47.31921" lon="4.94278">
        <ele>453.4</ele>
        <time>2013-02-16T07:52:22.000Z</time>
      </trkpt>
      <trkpt lat="47.31922" lon="4.94277">
        <ele>453.4</ele>
        <time>2013-02-16T07:52:23.000Z</time>
      </trkpt>
      <trkpt lat="47.31919" lon="4.94273">
        <ele>453.8</ele>
        <time>2013-02-16T07:52:27.000Z</time>
      </trkpt>
      <trkpt lat="47.31918" lon="4.94272">
        <ele>453.9</ele>
        <time>2013-02-16T07:52:28.000Z</time>
      </trkpt>
      <trkpt lat="47.31914" lon="4.94269">
        <ele>454.3</ele>
        <time>2013-02-16T07:52:31.000Z</time>
      </trkpt>
      <trkpt lat="47.31912" lon="4.94268">
        <ele>454.4</ele>
        <time>2013-02-16T07:52:32.000Z</time>
      </trkpt>
      <trkpt lat="47.31911" lon="4.94266">
        <ele>454.7</ele>
        <time>2013-02-16T07:52:33.000Z</time>
      </trkpt>
      <trkpt lat="47.31907" lon="4.94252">
        <ele>464.1</ele>
        <time>2013-02-16T07:52:40.000Z</time>
      </trkpt>
      <trkpt lat="47.31904" lon="4.94248">
        <ele>466.9</ele>
        <time>2013-02-16T07:52:44.000Z</time>
      </trkpt>
      <trkpt lat="47.31902" lon="4.94247">
        <ele>466.7</ele>
        <time>2013-02-16T07:52:45.000Z</time>
      </trkpt>
      <trkpt lat="47.31898" lon="4.94246">
        <ele>469.5</ele>
        <time>2013-02-16T07:52:48.000Z</time>
      </trkpt>
      <trkpt lat="47.31896" lon="4.94245">
        <ele>470.1</ele>
        <time>2013-02-16T07:52:49.000Z</time>
      </trkpt>
      <trkpt lat="47.31894" lon="4.94241">
        <ele>468.1</ele>
        <time>2013-02-16T07:52:52.000Z</time>
      </trkpt>
      <trkpt lat="47.31892" lon="4.9424">
        <ele>467.4</ele>
        <time>2013-02-16T07:52:53.000Z</time>
      </trkpt>
      <trkpt lat="47.31889" lon="4.94235">
        <ele>465.2</ele>
        <time>2013-02-16T07:52:56.000Z</time>
      </trkpt>
      <trkpt lat="47.31888" lon="4.94233">
        <ele>464.5</ele>
        <time>2013-02-16T07:52:57.000Z</time>
      </trkpt>
      <trkpt lat="47.31885" lon="4.94231">
        <ele>464.2</ele>
        <time>2013-02-16T07:52:59.000Z</time>
      </trkpt>
      <trkpt lat="47.31883" lon="4.9423">
        <ele>463.9</ele>
        <time>2013-02-16T07:53:00.000Z</time>
      </trkpt>
      <trkpt lat="47.3188" lon="4.94227">
        <ele>463.3</ele>
        <time>2013-02-16T07:53:02.000Z</time>
      </trkpt>
      <trkpt lat="47.31879" lon="4.94226">
        <ele>462.7</ele>
        <time>2013-02-16T07:53:03.000Z</time>
      </trkpt>
      <trkpt lat="47.31876" lon="4.94224">
        <ele>461.6</ele>
        <time>2013-02-16T07:53:05.000Z</time>
      </trkpt>
      <trkpt lat="47.31875" lon="4.94223">
        <ele>461.7</ele>
        <time>2013-02-16T07:53:06.000Z</time>
      </trkpt>
      <trkpt lat="47.31871" lon="4.9422">
        <ele>461.6</ele>
        <time>2013-02-16T07:53:09.000Z</time>
      </trkpt>
      <trkpt lat="47.3187" lon="4.94218">
        <ele>462</ele>
        <time>2013-02-16T07:53:10.000Z</time>
      </trkpt>
      <trkpt lat="47.31867" lon="4.94215">
        <ele>461.8</ele>
        <time>2013-02-16T07:53:13.000Z</time>
      </trkpt>
      <trkpt lat="47.31866" lon="4.94214">
        <ele>461.9</ele>
        <time>2013-02-16T07:53:14.000Z</time>
      </trkpt>
      <trkpt lat="47.31863" lon="4.94212">
        <ele>461.8</ele>
        <time>2013-02-16T07:53:16.000Z</time>
      </trkpt>
      <trkpt lat="47.31862" lon="4.94211">
        <ele>461.7</ele>
        <time>2013-02-16T07:53:17.000Z</time>
      </trkpt>
      <trkpt lat="47.31859" lon="4.94206">
        <ele>461.3</ele>
        <time>2013-02-16T07:53:20.000Z</time>
      </trkpt>
      <trkpt lat="47.31858" lon="4.94204">
        <ele>461.5</ele>
        <time>2013-02-16T07:53:21.000Z</time>
      </trkpt>
      <trkpt lat="47.31856" lon="4.942">
        <ele>461.6</ele>
        <time>2013-02-16T07:53:23.000Z</time>
      </trkpt>
      <trkpt lat="47.31855" lon="4.94198">
        <ele>461.7</ele>
        <time>2013-02-16T07:53:24.000Z</time>
      </trkpt>
      <trkpt lat="47.31853" lon="4.94195">
        <ele>461.9</ele>
        <time>2013-02-16T07:53:26.000Z</time>
      </trkpt>
      <trkpt lat="47.31852" lon="4.94194">
        <ele>461.9</ele>
        <time>2013-02-16T07:53:27.000Z</time>
      </trkpt>
      <trkpt lat="47.31849" lon="4.94191">
        <ele>461.8</ele>
        <time>2013-02-16T07:53:29.000Z</time>
      </trkpt>
      <trkpt lat="47.31848" lon="4.9419">
        <ele>461.7</ele>
        <time>2013-02-16T07:53:30.000Z</time>
      </trkpt>
      <trkpt lat="47.31846" lon="4.94186">
        <ele>461.8</ele>
        <time>2013-02-16T07:53:32.000Z</time>
      </trkpt>
      <trkpt lat="47.31845" lon="4.94185">
        <ele>461.6</ele>
        <time>2013-02-16T07:53:33.000Z</time>
      </trkpt>
      <trkpt lat="47.31841" lon="4.94172">
        <ele>462.9</ele>
        <time>2013-02-16T07:53:39.000Z</time>
      </trkpt>
      <trkpt lat="47.31838" lon="4.94169">
        <ele>460.6</ele>
        <time>2013-02-16T07:53:41.000Z</time>
      </trkpt>
      <trkpt lat="47.31836" lon="4.94168">
        <ele>460.1</ele>
        <time>2013-02-16T07:53:42.000Z</time>
      </trkpt>
      <trkpt lat="47.31834" lon="4.94165">
        <ele>459.2</ele>
        <time>2013-02-16T07:53:44.000Z</time>
      </trkpt>
      <trkpt lat="47.31833" lon="4.94164">
        <ele>458.5</ele>
        <time>2013-02-16T07:53:45.000Z</time>
      </trkpt>
      <trkpt lat="47.31829" lon="4.94162">
        <ele>457.2</ele>
        <time>2013-02-16T07:53:47.000Z</time>
      </trkpt>
      <trkpt lat="47.31828" lon="4.94161">
        <ele>457.6</ele>
        <time>2013-02-16T07:53:48.000Z</time>
      </trkpt>
      <trkpt lat="47.31824" lon="4.94158">
        <ele>457.7</ele>
        <time>2013-02-16T07:53:51.000Z</time>
      </trkpt>
      <trkpt lat="47.31823" lon="4.94157">
        <ele>458.3</ele>
        <time>2013-02-16T07:53:52.000Z</time>
      </trkpt>
      <trkpt lat="47.31819" lon="4.94154">
        <ele>459</ele>
        <time>2013-02-16T07:53:55.000Z</time>
      </trkpt>
      <trkpt lat="47.31817" lon="4.94153">
        <ele>459.1</ele>
        <time>2013-02-16T07:53:56.000Z</time>
      </trkpt>
      <trkpt lat="47.31814" lon="4.9415">
        <ele>459.7</ele>
        <time>2013-02-16T07:54:00.000Z</time>
      </trkpt>
      <trkpt lat="47.31812" lon="4.94149">
        <ele>460.1</ele>
        <time>2013-02-16T07:54:01.000Z</time>
      </trkpt>
      <trkpt lat="47.31808" lon="4.94147">
        <ele>460.6</ele>
        <time>2013-02-16T07:54:04.000Z</time>
      </trkpt>
      <trkpt lat="47.31807" lon="4.94146">
        <ele>460.9</ele>
        <time>2013-02-16T07:54:05.000Z</time>
      </trkpt>
      <trkpt lat="47.31804" lon="4.94142">
        <ele>461.3</ele>
        <time>2013-02-16T07:54:08.000Z</time>
      </trkpt>
      <trkpt lat="47.31804" lon="4.94141">
        <ele>461.6</ele>
        <time>2013-02-16T07:54:09.000Z</time>
      </trkpt>
      <trkpt lat="47.31801" lon="4.94138">
        <ele>461.5</ele>
        <time>2013-02-16T07:54:11.000Z</time>
      </trkpt>
      <trkpt lat="47.31799" lon="4.94138">
        <ele>461.5</ele>
        <time>2013-02-16T07:54:12.000Z</time>
      </trkpt>
      <trkpt lat="47.31796" lon="4.94136">
        <ele>460.9</ele>
        <time>2013-02-16T07:54:14.000Z</time>
      </trkpt>
      <trkpt lat="47.31795" lon="4.94135">
        <ele>460.7</ele>
        <time>2013-02-16T07:54:15.000Z</time>
      </trkpt>
      <trkpt lat="47.31791" lon="4.94133">
        <ele>460.4</ele>
        <time>2013-02-16T07:54:18.000Z</time>
      </trkpt>
      <trkpt lat="47.3179" lon="4.94132">
        <ele>460.2</ele>
        <time>2013-02-16T07:54:19.000Z</time>
      </trkpt>
      <trkpt lat="47.31786" lon="4.94128">
        <ele>460.2</ele>
        <time>2013-02-16T07:54:22.000Z</time>
      </trkpt>
      <trkpt lat="47.31785" lon="4.94126">
        <ele>460.4</ele>
        <time>2013-02-16T07:54:23.000Z</time>
      </trkpt>
      <trkpt lat="47.31782" lon="4.94121">
        <ele>460.6</ele>
        <time>2013-02-16T07:54:26.000Z</time>
      </trkpt>
      <trkpt lat="47.3178" lon="4.9412">
        <ele>460.5</ele>
        <time>2013-02-16T07:54:27.000Z</time>
      </trkpt>
      <trkpt lat="47.31777" lon="4.94118">
        <ele>460.1</ele>
        <time>2013-02-16T07:54:29.000Z</time>
      </trkpt>
      <trkpt lat="47.31775" lon="4.94117">
        <ele>460.2</ele>
        <time>2013-02-16T07:54:30.000Z</time>
      </trkpt>
      <trkpt lat="47.31771" lon="4.94113">
        <ele>460.6</ele>
        <time>2013-02-16T07:54:33.000Z</time>
      </trkpt>
      <trkpt lat="47.31766" lon="4.941">
        <ele>456.3</ele>
        <time>2013-02-16T07:54:39.000Z</time>
      </trkpt>
      <trkpt lat="47.31763" lon="4.941">
        <ele>454.2</ele>
        <time>2013-02-16T07:54:41.000Z</time>
      </trkpt>
      <trkpt lat="47.31761" lon="4.941">
        <ele>455</ele>
        <time>2013-02-16T07:54:42.000Z</time>
      </trkpt>
      <trkpt lat="47.31758" lon="4.941">
        <ele>459.5</ele>
        <time>2013-02-16T07:54:45.000Z</time>
      </trkpt>
      <trkpt lat="47.31757" lon="4.94099">
        <ele>460</ele>
        <time>2013-02-16T07:54:46.000Z</time>
      </trkpt>
      <trkpt lat="47.31753" lon="4.94097">
        <ele>460.7</ele>
        <time>2013-02-16T07:54:49.000Z</time>
      </trkpt>
      <trkpt lat="47.3175" lon="4.94097">
        <ele>460.2</ele>
        <time>2013-02-16T07:54:50.000Z</time>
      </trkpt>
      <trkpt lat="47.31747" lon="4.94097">
        <ele>460.7</ele>
        <time>2013-02-16T07:54:52.000Z</time>
      </trkpt>
      <trkpt lat="47.31746" lon="4.94097">
        <ele>461.2</ele>
        <time>2013-02-16T07:54:53.000Z</time>
      </trkpt>
      <trkpt lat="47.31742" lon="4.94094">
        <ele>462.6</ele>
        <time>2013-02-16T07:54:56.000Z</time>
      </trkpt>
      <trkpt lat="47.31741" lon="4.94093">
        <ele>463.1</ele>
        <time>2013-02-16T07:54:57.000Z</time>
      </trkpt>
      <trkpt lat="47.31737" lon="4.94091">
        <ele>461.9</ele>
        <time>2013-02-16T07:55:00.000Z</time>
      </trkpt>
      <trkpt lat="47.31736" lon="4.94091">
        <ele>461.7</ele>
        <time>2013-02-16T07:55:01.000Z</time>
      </trkpt>
      <trkpt lat="47.31732" lon="4.94087">
        <ele>461.9</ele>
        <time>2013-02-16T07:55:05.000Z</time>
      </trkpt>
      <trkpt lat="47.31731" lon="4.94086">
        <ele>461.7</ele>
        <time>2013-02-16T07:55:06.000Z</time>
      </trkpt>
      <trkpt lat="47.31728" lon="4.94083">
        <ele>461.5</ele>
        <time>2013-02-16T07:55:09.000Z</time>
      </trkpt>
      <trkpt lat="47.31726" lon="4.94081">
        <ele>461.3</ele>
        <time>2013-02-16T07:55:10.000Z</time>
      </trkpt>
      <trkpt lat="47.31722" lon="4.94078">
        <ele>461.9</ele>
        <time>2013-02-16T07:55:14.000Z</time>
      </trkpt>
      <trkpt lat="47.31722" lon="4.94078">
        <ele>462</ele>
        <time>2013-02-16T07:55:15.000Z</time>
      </trkpt>
      <trkpt lat="47.31719" lon="4.94074">
        <ele>462.4</ele>
        <time>2013-02-16T07:55:19.000Z</time>
      </trkpt>
      <trkpt lat="47.31718" lon="4.94073">
        <ele>462.6</ele>
        <time>2013-02-16T07:55:20.000Z</time>
      </trkpt>
      <trkpt lat="47.31715" lon="4.94069">
        <ele>463.7</ele>
        <time>2013-02-16T07:55:27.000Z</time>
      </trkpt>
      <trkpt lat="47.31715" lon="4.94068">
        <ele>463.6</ele>
        <time>2013-02-16T07:55:28.000Z</time>
      </trkpt>
      <trkpt lat="47.31711" lon="4.94065">
        <ele>463.2</ele>
        <time>2013-02-16T07:55:33.000Z</time>
      </trkpt>
      <trkpt lat="47.31706" lon="4.9406">
        <ele>458</ele>
        <time>2013-02-16T07:55:41.000Z</time>
      </trkpt>
      <trkpt lat="47.31704" lon="4.94054">
        <ele>452.3</ele>
        <time>2013-02-16T07:55:49.000Z</time>
      </trkpt>
      <trkpt lat="47.31703" lon="4.94054">
        <ele>452</ele>
        <time>2013-02-16T07:55:50.000Z</time>
      </trkpt>
      <trkpt lat="47.31699" lon="4.94052">
        <ele>452.8</ele>
        <time>2013-02-16T07:55:53.000Z</time>
      </trkpt>
      <trkpt lat="47.31698" lon="4.94051">
        <ele>453.6</ele>
        <time>2013-02-16T07:55:54.000Z</time>
      </trkpt>
      <trkpt lat="47.31695" lon="4.94048">
        <ele>452.9</ele>
        <time>2013-02-16T07:55:56.000Z</time>
      </trkpt>
      <trkpt lat="47.31694" lon="4.94048">
        <ele>453.3</ele>
        <time>2013-02-16T07:55:57.000Z</time>
      </trkpt>
      <trkpt lat="47.31691" lon="4.94045">
        <ele>452</ele>
        <time>2013-02-16T07:56:01.000Z</time>
      </trkpt>
      <trkpt lat="47.3169" lon="4.94044">
        <ele>452.2</ele>
        <time>2013-02-16T07:56:02.000Z</time>
      </trkpt>
      <trkpt lat="47.31689" lon="4.94039">
        <ele>450.6</ele>
        <time>2013-02-16T07:56:04.000Z</time>
      </trkpt>
      <trkpt lat="47.31687" lon="4.94036">
        <ele>450.6</ele>
        <time>2013-02-16T07:56:05.000Z</time>
      </trkpt>
      <trkpt lat="47.31686" lon="4.9403">
        <ele>449.6</ele>
        <time>2013-02-16T07:56:08.000Z</time>
      </trkpt>
      <trkpt lat="47.31686" lon="4.94029">
        <ele>449.3</ele>
        <time>2013-02-16T07:56:09.000Z</time>
      </trkpt>
      <trkpt lat="47.31686" lon="4.94022">
        <ele>450</ele>
        <time>2013-02-16T07:56:15.000Z</time>
      </trkpt>
      <trkpt lat="47.31685" lon="4.94021">
        <ele>450.1</ele>
        <time>2013-02-16T07:56:16.000Z</time>
      </trkpt>
      <trkpt lat="47.31684" lon="4.94015">
        <ele>451.3</ele>
        <time>2013-02-16T07:56:24.000Z</time>
      </trkpt>
      <trkpt lat="47.31683" lon="4.94014">
        <ele>451.4</ele>
        <time>2013-02-16T07:56:25.000Z</time>
      </trkpt>
      <trkpt lat="47.31682" lon="4.9401">
        <ele>451.5</ele>
        <time>2013-02-16T07:56:28.000Z</time>
      </trkpt>
      <trkpt lat="47.31681" lon="4.94007">
        <ele>451.3</ele>
        <time>2013-02-16T07:56:29.000Z</time>
      </trkpt>
      <trkpt lat="47.31681" lon="4.94002">
        <ele>451.2</ele>
        <time>2013-02-16T07:56:32.000Z</time>
      </trkpt>
      <trkpt lat="47.31681" lon="4.94">
        <ele>451.3</ele>
        <time>2013-02-16T07:56:33.000Z</time>
      </trkpt>
      <trkpt lat="47.3168" lon="4.93979">
        <ele>453.3</ele>
        <time>2013-02-16T07:56:43.000Z</time>
      </trkpt>
      <trkpt lat="47.31684" lon="4.93976">
        <ele>454.1</ele>
        <time>2013-02-16T07:56:54.000Z</time>
      </trkpt>
      <trkpt lat="47.31684" lon="4.93965">
        <ele>448.1</ele>
        <time>2013-02-16T07:56:55.000Z</time>
      </trkpt>
      <trkpt lat="47.31681" lon="4.93968">
        <ele>452</ele>
        <time>2013-02-16T07:57:44.000Z</time>
      </trkpt>
      <trkpt lat="47.31679" lon="4.93968">
        <ele>451.5</ele>
        <time>2013-02-16T07:57:45.000Z</time>
      </trkpt>
      <trkpt lat="47.31678" lon="4.93967">
        <ele>449.6</ele>
        <time>2013-02-16T07:57:58.000Z</time>
      </trkpt>
      <trkpt lat="47.31671" lon="4.9397">
        <ele>452.2</ele>
        <time>2013-02-16T07:57:59.000Z</time>
      </trkpt>
      <trkpt lat="47.31667" lon="4.93972">
        <ele>453.8</ele>
        <time>2013-02-16T07:58:02.000Z</time>
      </trkpt>
      <trkpt lat="47.31666" lon="4.93972">
        <ele>453.6</ele>
        <time>2013-02-16T07:58:03.000Z</time>
      </trkpt>
      <trkpt lat="47.31661" lon="4.93973">
        <ele>452.9</ele>
        <time>2013-02-16T07:58:06.000Z</time>
      </trkpt>
      <trkpt lat="47.31661" lon="4.93973">
        <ele>453.2</ele>
        <time>2013-02-16T07:58:07.000Z</time>
      </trkpt>
      <trkpt lat="47.3166" lon="4.93973">
        <ele>453.6</ele>
        <time>2013-02-16T07:58:14.000Z</time>
      </trkpt>
      <trkpt lat="47.31656" lon="4.93974">
        <ele>454.2</ele>
        <time>2013-02-16T07:58:15.000Z</time>
      </trkpt>
      <trkpt lat="47.31653" lon="4.93974">
        <ele>455.6</ele>
        <time>2013-02-16T07:58:21.000Z</time>
      </trkpt>
      <trkpt lat="47.31651" lon="4.93974">
        <ele>455.6</ele>
        <time>2013-02-16T07:58:22.000Z</time>
      </trkpt>
      <trkpt lat="47.31647" lon="4.93974">
        <ele>457.7</ele>
        <time>2013-02-16T07:58:29.000Z</time>
      </trkpt>
      <trkpt lat="47.31646" lon="4.93974">
        <ele>457.6</ele>
        <time>2013-02-16T07:58:30.000Z</time>
      </trkpt>
      <trkpt lat="47.31645" lon="4.93972">
        <ele>457.5</ele>
        <time>2013-02-16T07:58:33.000Z</time>
      </trkpt>
      <trkpt lat="47.31637" lon="4.93978">
        <ele>454.5</ele>
        <time>2013-02-16T07:58:39.000Z</time>
      </trkpt>
      <trkpt lat="47.31633" lon="4.93977">
        <ele>465</ele>
        <time>2013-02-16T07:58:46.000Z</time>
      </trkpt>
      <trkpt lat="47.31632" lon="4.93977">
        <ele>464.5</ele>
        <time>2013-02-16T07:58:47.000Z</time>
      </trkpt>
      <trkpt lat="47.31628" lon="4.93975">
        <ele>463</ele>
        <time>2013-02-16T07:58:55.000Z</time>
      </trkpt>
      <trkpt lat="47.31628" lon="4.93975">
        <ele>463</ele>
        <time>2013-02-16T07:58:56.000Z</time>
      </trkpt>
      <trkpt lat="47.31623" lon="4.93973">
        <ele>465.4</ele>
        <time>2013-02-16T07:59:02.000Z</time>
      </trkpt>
      <trkpt lat="47.31623" lon="4.93972">
        <ele>466</ele>
        <time>2013-02-16T07:59:03.000Z</time>
      </trkpt>
      <trkpt lat="47.3162" lon="4.93973">
        <ele>466.2</ele>
        <time>2013-02-16T07:59:09.000Z</time>
      </trkpt>
      <trkpt lat="47.31618" lon="4.93973">
        <ele>466.3</ele>
        <time>2013-02-16T07:59:10.000Z</time>
      </trkpt>
      <trkpt lat="47.31614" lon="4.93971">
        <ele>466.8</ele>
        <time>2013-02-16T07:59:15.000Z</time>
      </trkpt>
      <trkpt lat="47.31613" lon="4.93971">
        <ele>467</ele>
        <time>2013-02-16T07:59:16.000Z</time>
      </trkpt>
      <trkpt lat="47.31609" lon="4.93971">
        <ele>467.5</ele>
        <time>2013-02-16T07:59:19.000Z</time>
      </trkpt>
      <trkpt lat="47.31608" lon="4.9397">
        <ele>467.5</ele>
        <time>2013-02-16T07:59:20.000Z</time>
      </trkpt>
      <trkpt lat="47.31604" lon="4.93969">
        <ele>467.1</ele>
        <time>2013-02-16T07:59:23.000Z</time>
      </trkpt>
      <trkpt lat="47.31603" lon="4.93969">
        <ele>466.8</ele>
        <time>2013-02-16T07:59:24.000Z</time>
      </trkpt>
      <trkpt lat="47.31602" lon="4.93968">
        <ele>465.7</ele>
        <time>2013-02-16T07:59:33.000Z</time>
      </trkpt>
      <trkpt lat="47.31593" lon="4.9395">
        <ele>474.7</ele>
        <time>2013-02-16T07:59:40.000Z</time>
      </trkpt>
      <trkpt lat="47.31593" lon="4.9395">
        <ele>474.7</ele>
        <time>2013-02-16T08:00:33.000Z</time>
      </trkpt>
      <trkpt lat="47.31594" lon="4.93959">
        <ele>459.4</ele>
        <time>2013-02-16T08:00:40.000Z</time>
      </trkpt>
      <trkpt lat="47.31597" lon="4.93954">
        <ele>466.5</ele>
        <time>2013-02-16T08:01:57.000Z</time>
      </trkpt>
      <trkpt lat="47.31598" lon="4.93953">
        <ele>466.9</ele>
        <time>2013-02-16T08:01:58.000Z</time>
      </trkpt>
      <trkpt lat="47.31601" lon="4.93949">
        <ele>467</ele>
        <time>2013-02-16T08:02:01.000Z</time>
      </trkpt>
      <trkpt lat="47.31602" lon="4.93948">
        <ele>466.9</ele>
        <time>2013-02-16T08:02:02.000Z</time>
      </trkpt>
      <trkpt lat="47.31605" lon="4.93945">
        <ele>466.8</ele>
        <time>2013-02-16T08:02:05.000Z</time>
      </trkpt>
      <trkpt lat="47.31605" lon="4.93944">
        <ele>466.9</ele>
        <time>2013-02-16T08:02:06.000Z</time>
      </trkpt>
      <trkpt lat="47.31607" lon="4.93937">
        <ele>466.9</ele>
        <time>2013-02-16T08:02:17.000Z</time>
      </trkpt>
      <trkpt lat="47.31606" lon="4.93936">
        <ele>467.1</ele>
        <time>2013-02-16T08:02:18.000Z</time>
      </trkpt>
      <trkpt lat="47.31603" lon="4.9393">
        <ele>467.4</ele>
        <time>2013-02-16T08:02:23.000Z</time>
      </trkpt>
      <trkpt lat="47.31603" lon="4.93929">
        <ele>467.5</ele>
        <time>2013-02-16T08:02:24.000Z</time>
      </trkpt>
      <trkpt lat="47.316" lon="4.93924">
        <ele>467.7</ele>
        <time>2013-02-16T08:02:28.000Z</time>
      </trkpt>
      <trkpt lat="47.31599" lon="4.93922">
        <ele>467.9</ele>
        <time>2013-02-16T08:02:29.000Z</time>
      </trkpt>
      <trkpt lat="47.31597" lon="4.93918">
        <ele>468.2</ele>
        <time>2013-02-16T08:02:32.000Z</time>
      </trkpt>
      <trkpt lat="47.31596" lon="4.93916">
        <ele>468.4</ele>
        <time>2013-02-16T08:02:33.000Z</time>
      </trkpt>
      <trkpt lat="47.3159" lon="4.93906">
        <ele>472.7</ele>
        <time>2013-02-16T08:02:40.000Z</time>
      </trkpt>
      <trkpt lat="47.31588" lon="4.93902">
        <ele>472.7</ele>
        <time>2013-02-16T08:02:42.000Z</time>
      </trkpt>
      <trkpt lat="47.31587" lon="4.939">
        <ele>473.1</ele>
        <time>2013-02-16T08:02:43.000Z</time>
      </trkpt>
      <trkpt lat="47.31585" lon="4.93896">
        <ele>473</ele>
        <time>2013-02-16T08:02:45.000Z</time>
      </trkpt>
      <trkpt lat="47.31584" lon="4.93894">
        <ele>473.2</ele>
        <time>2013-02-16T08:02:46.000Z</time>
      </trkpt>
      <trkpt lat="47.31582" lon="4.93891">
        <ele>473</ele>
        <time>2013-02-16T08:02:48.000Z</time>
      </trkpt>
      <trkpt lat="47.31581" lon="4.93889">
        <ele>472.7</ele>
        <time>2013-02-16T08:02:49.000Z</time>
      </trkpt>
      <trkpt lat="47.31578" lon="4.93885">
        <ele>471.9</ele>
        <time>2013-02-16T08:02:51.000Z</time>
      </trkpt>
      <trkpt lat="47.31577" lon="4.93883">
        <ele>471.6</ele>
        <time>2013-02-16T08:02:52.000Z</time>
      </trkpt>
      <trkpt lat="47.31575" lon="4.93879">
        <ele>471.7</ele>
        <time>2013-02-16T08:02:54.000Z</time>
      </trkpt>
      <trkpt lat="47.31574" lon="4.93877">
        <ele>471.5</ele>
        <time>2013-02-16T08:02:55.000Z</time>
      </trkpt>
      <trkpt lat="47.31572" lon="4.93873">
        <ele>471.5</ele>
        <time>2013-02-16T08:02:57.000Z</time>
      </trkpt>
      <trkpt lat="47.31571" lon="4.93871">
        <ele>471</ele>
        <time>2013-02-16T08:02:58.000Z</time>
      </trkpt>
      <trkpt lat="47.31569" lon="4.93866">
        <ele>470.9</ele>
        <time>2013-02-16T08:03:00.000Z</time>
      </trkpt>
      <trkpt lat="47.31569" lon="4.93864">
        <ele>471.3</ele>
        <time>2013-02-16T08:03:01.000Z</time>
      </trkpt>
      <trkpt lat="47.31567" lon="4.93859">
        <ele>470.1</ele>
        <time>2013-02-16T08:03:03.000Z</time>
      </trkpt>
      <trkpt lat="47.31567" lon="4.93856">
        <ele>470</ele>
        <time>2013-02-16T08:03:04.000Z</time>
      </trkpt>
      <trkpt lat="47.31566" lon="4.93851">
        <ele>469.8</ele>
        <time>2013-02-16T08:03:06.000Z</time>
      </trkpt>
      <trkpt lat="47.31565" lon="4.93849">
        <ele>469.7</ele>
        <time>2013-02-16T08:03:07.000Z</time>
      </trkpt>
      <trkpt lat="47.31562" lon="4.93844">
        <ele>469.7</ele>
        <time>2013-02-16T08:03:09.000Z</time>
      </trkpt>
      <trkpt lat="47.31561" lon="4.93842">
        <ele>469.7</ele>
        <time>2013-02-16T08:03:10.000Z</time>
      </trkpt>
      <trkpt lat="47.31559" lon="4.93838">
        <ele>470</ele>
        <time>2013-02-16T08:03:12.000Z</time>
      </trkpt>
      <trkpt lat="47.31558" lon="4.93836">
        <ele>470.3</ele>
        <time>2013-02-16T08:03:13.000Z</time>
      </trkpt>
      <trkpt lat="47.31556" lon="4.93832">
        <ele>470.5</ele>
        <time>2013-02-16T08:03:15.000Z</time>
      </trkpt>
      <trkpt lat="47.31555" lon="4.9383">
        <ele>470.7</ele>
        <time>2013-02-16T08:03:16.000Z</time>
      </trkpt>
      <trkpt lat="47.31552" lon="4.93827">
        <ele>471</ele>
        <time>2013-02-16T08:03:18.000Z</time>
      </trkpt>
      <trkpt lat="47.31551" lon="4.93826">
        <ele>471.1</ele>
        <time>2013-02-16T08:03:19.000Z</time>
      </trkpt>
      <trkpt lat="47.31549" lon="4.93823">
        <ele>471.2</ele>
        <time>2013-02-16T08:03:21.000Z</time>
      </trkpt>
      <trkpt lat="47.31547" lon="4.93821">
        <ele>471.1</ele>
        <time>2013-02-16T08:03:22.000Z</time>
      </trkpt>
      <trkpt lat="47.31545" lon="4.93818">
        <ele>471.1</ele>
        <time>2013-02-16T08:03:24.000Z</time>
      </trkpt>
      <trkpt lat="47.31544" lon="4.93816">
        <ele>471.1</ele>
        <time>2013-02-16T08:03:25.000Z</time>
      </trkpt>
      <trkpt lat="47.31541" lon="4.93814">
        <ele>471.2</ele>
        <time>2013-02-16T08:03:27.000Z</time>
      </trkpt>
      <trkpt lat="47.3154" lon="4.93812">
        <ele>471.1</ele>
        <time>2013-02-16T08:03:28.000Z</time>
      </trkpt>
      <trkpt lat="47.31538" lon="4.93808">
        <ele>471</ele>
        <time>2013-02-16T08:03:30.000Z</time>
      </trkpt>
      <trkpt lat="47.31536" lon="4.93807">
        <ele>470.8</ele>
        <time>2013-02-16T08:03:31.000Z</time>
      </trkpt>
      <trkpt lat="47.31534" lon="4.93803">
        <ele>470.6</ele>
        <time>2013-02-16T08:03:33.000Z</time>
      </trkpt>
      <trkpt lat="47.31523" lon="4.93783">
        <ele>466.1</ele>
        <time>2013-02-16T08:03:40.000Z</time>
      </trkpt>
      <trkpt lat="47.3152" lon="4.9378">
        <ele>467.5</ele>
        <time>2013-02-16T08:03:42.000Z</time>
      </trkpt>
      <trkpt lat="47.31519" lon="4.93778">
        <ele>467.2</ele>
        <time>2013-02-16T08:03:43.000Z</time>
      </trkpt>
      <trkpt lat="47.31515" lon="4.93775">
        <ele>468</ele>
        <time>2013-02-16T08:03:45.000Z</time>
      </trkpt>
      <trkpt lat="47.31514" lon="4.93773">
        <ele>467.9</ele>
        <time>2013-02-16T08:03:46.000Z</time>
      </trkpt>
      <trkpt lat="47.31511" lon="4.9377">
        <ele>468.4</ele>
        <time>2013-02-16T08:03:48.000Z</time>
      </trkpt>
      <trkpt lat="47.3151" lon="4.93768">
        <ele>468.5</ele>
        <time>2013-02-16T08:03:49.000Z</time>
      </trkpt>
      <trkpt lat="47.31507" lon="4.93764">
        <ele>468.9</ele>
        <time>2013-02-16T08:03:51.000Z</time>
      </trkpt>
      <trkpt lat="47.31506" lon="4.93761">
        <ele>468.9</ele>
        <time>2013-02-16T08:03:52.000Z</time>
      </trkpt>
      <trkpt lat="47.31503" lon="4.93757">
        <ele>468.9</ele>
        <time>2013-02-16T08:03:54.000Z</time>
      </trkpt>
      <trkpt lat="47.31502" lon="4.93755">
        <ele>469</ele>
        <time>2013-02-16T08:03:55.000Z</time>
      </trkpt>
      <trkpt lat="47.31499" lon="4.93751">
        <ele>469</ele>
        <time>2013-02-16T08:03:57.000Z</time>
      </trkpt>
      <trkpt lat="47.31498" lon="4.93749">
        <ele>469</ele>
        <time>2013-02-16T08:03:58.000Z</time>
      </trkpt>
      <trkpt lat="47.31495" lon="4.93745">
        <ele>468.6</ele>
        <time>2013-02-16T08:04:00.000Z</time>
      </trkpt>
      <trkpt lat="47.31494" lon="4.93743">
        <ele>468.8</ele>
        <time>2013-02-16T08:04:01.000Z</time>
      </trkpt>
      <trkpt lat="47.31491" lon="4.93739">
        <ele>469</ele>
        <time>2013-02-16T08:04:03.000Z</time>
      </trkpt>
      <trkpt lat="47.3149" lon="4.93737">
        <ele>468.9</ele>
        <time>2013-02-16T08:04:04.000Z</time>
      </trkpt>
      <trkpt lat="47.31487" lon="4.93733">
        <ele>468.4</ele>
        <time>2013-02-16T08:04:06.000Z</time>
      </trkpt>
      <trkpt lat="47.31486" lon="4.9373">
        <ele>468.4</ele>
        <time>2013-02-16T08:04:07.000Z</time>
      </trkpt>
      <trkpt lat="47.31483" lon="4.93726">
        <ele>468.4</ele>
        <time>2013-02-16T08:04:09.000Z</time>
      </trkpt>
      <trkpt lat="47.31482" lon="4.93724">
        <ele>468.2</ele>
        <time>2013-02-16T08:04:10.000Z</time>
      </trkpt>
      <trkpt lat="47.3148" lon="4.93719">
        <ele>468</ele>
        <time>2013-02-16T08:04:12.000Z</time>
      </trkpt>
      <trkpt lat="47.31478" lon="4.93717">
        <ele>468</ele>
        <time>2013-02-16T08:04:13.000Z</time>
      </trkpt>
      <trkpt lat="47.31476" lon="4.93712">
        <ele>467.9</ele>
        <time>2013-02-16T08:04:15.000Z</time>
      </trkpt>
      <trkpt lat="47.31474" lon="4.9371">
        <ele>468</ele>
        <time>2013-02-16T08:04:16.000Z</time>
      </trkpt>
      <trkpt lat="47.31472" lon="4.93705">
        <ele>467.9</ele>
        <time>2013-02-16T08:04:18.000Z</time>
      </trkpt>
      <trkpt lat="47.3147" lon="4.93703">
        <ele>467.8</ele>
        <time>2013-02-16T08:04:19.000Z</time>
      </trkpt>
      <trkpt lat="47.31468" lon="4.93698">
        <ele>467.6</ele>
        <time>2013-02-16T08:04:21.000Z</time>
      </trkpt>
      <trkpt lat="47.31466" lon="4.93696">
        <ele>467.5</ele>
        <time>2013-02-16T08:04:22.000Z</time>
      </trkpt>
      <trkpt lat="47.31464" lon="4.93691">
        <ele>467.6</ele>
        <time>2013-02-16T08:04:24.000Z</time>
      </trkpt>
      <trkpt lat="47.31463" lon="4.93689">
        <ele>467.7</ele>
        <time>2013-02-16T08:04:25.000Z</time>
      </trkpt>
      <trkpt lat="47.3146" lon="4.93685">
        <ele>468</ele>
        <time>2013-02-16T08:04:27.000Z</time>
      </trkpt>
      <trkpt lat="47.31459" lon="4.93683">
        <ele>468</ele>
        <time>2013-02-16T08:04:28.000Z</time>
      </trkpt>
      <trkpt lat="47.31456" lon="4.93679">
        <ele>468.2</ele>
        <time>2013-02-16T08:04:30.000Z</time>
      </trkpt>
      <trkpt lat="47.31455" lon="4.93677">
        <ele>468.2</ele>
        <time>2013-02-16T08:04:31.000Z</time>
      </trkpt>
      <trkpt lat="47.31455" lon="4.93676">
        <ele>468.2</ele>
        <time>2013-02-16T08:04:33.000Z</time>
      </trkpt>
      <trkpt lat="47.31463" lon="4.93684">
        <ele>467</ele>
        <time>2013-02-16T08:04:40.000Z</time>
      </trkpt>
      <trkpt lat="47.31465" lon="4.93689">
        <ele>466.6</ele>
        <time>2013-02-16T08:04:43.000Z</time>
      </trkpt>
      <trkpt lat="47.31466" lon="4.93691">
        <ele>467.1</ele>
        <time>2013-02-16T08:04:44.000Z</time>
      </trkpt>
      <trkpt lat="47.31468" lon="4.93695">
        <ele>467.6</ele>
        <time>2013-02-16T08:04:46.000Z</time>
      </trkpt>
      <trkpt lat="47.31469" lon="4.93696">
        <ele>467.6</ele>
        <time>2013-02-16T08:04:47.000Z</time>
      </trkpt>
      <trkpt lat="47.31471" lon="4.937">
        <ele>467.9</ele>
        <time>2013-02-16T08:04:49.000Z</time>
      </trkpt>
      <trkpt lat="47.31473" lon="4.93701">
        <ele>468.3</ele>
        <time>2013-02-16T08:04:50.000Z</time>
      </trkpt>
      <trkpt lat="47.31477" lon="4.937">
        <ele>468.1</ele>
        <time>2013-02-16T08:04:53.000Z</time>
      </trkpt>
      <trkpt lat="47.31478" lon="4.93698">
        <ele>468.2</ele>
        <time>2013-02-16T08:04:54.000Z</time>
      </trkpt>
      <trkpt lat="47.3148" lon="4.93694">
        <ele>468</ele>
        <time>2013-02-16T08:04:56.000Z</time>
      </trkpt>
      <trkpt lat="47.31482" lon="4.93693">
        <ele>467.8</ele>
        <time>2013-02-16T08:04:57.000Z</time>
      </trkpt>
      <trkpt lat="47.31484" lon="4.9369">
        <ele>467.4</ele>
        <time>2013-02-16T08:04:59.000Z</time>
      </trkpt>
      <trkpt lat="47.31486" lon="4.93688">
        <ele>467.7</ele>
        <time>2013-02-16T08:05:00.000Z</time>
      </trkpt>
      <trkpt lat="47.31488" lon="4.93685">
        <ele>467.9</ele>
        <time>2013-02-16T08:05:02.000Z</time>
      </trkpt>
      <trkpt lat="47.31489" lon="4.93683">
        <ele>467.7</ele>
        <time>2013-02-16T08:05:03.000Z</time>
      </trkpt>
      <trkpt lat="47.31492" lon="4.9368">
        <ele>467.3</ele>
        <time>2013-02-16T08:05:05.000Z</time>
      </trkpt>
      <trkpt lat="47.31494" lon="4.93678">
        <ele>466.9</ele>
        <time>2013-02-16T08:05:06.000Z</time>
      </trkpt>
      <trkpt lat="47.31497" lon="4.93675">
        <ele>466.6</ele>
        <time>2013-02-16T08:05:08.000Z</time>
      </trkpt>
      <trkpt lat="47.31498" lon="4.93673">
        <ele>466.4</ele>
        <time>2013-02-16T08:05:09.000Z</time>
      </trkpt>
      <trkpt lat="47.31501" lon="4.9367">
        <ele>466.1</ele>
        <time>2013-02-16T08:05:11.000Z</time>
      </trkpt>
      <trkpt lat="47.31503" lon="4.93668">
        <ele>465.7</ele>
        <time>2013-02-16T08:05:12.000Z</time>
      </trkpt>
      <trkpt lat="47.31505" lon="4.93665">
        <ele>465.6</ele>
        <time>2013-02-16T08:05:14.000Z</time>
      </trkpt>
      <trkpt lat="47.31506" lon="4.93663">
        <ele>465.5</ele>
        <time>2013-02-16T08:05:15.000Z</time>
      </trkpt>
      <trkpt lat="47.31508" lon="4.9366">
        <ele>465.9</ele>
        <time>2013-02-16T08:05:17.000Z</time>
      </trkpt>
      <trkpt lat="47.31509" lon="4.93658">
        <ele>465.9</ele>
        <time>2013-02-16T08:05:18.000Z</time>
      </trkpt>
      <trkpt lat="47.31512" lon="4.93655">
        <ele>465.8</ele>
        <time>2013-02-16T08:05:20.000Z</time>
      </trkpt>
      <trkpt lat="47.31513" lon="4.93653">
        <ele>465.8</ele>
        <time>2013-02-16T08:05:21.000Z</time>
      </trkpt>
      <trkpt lat="47.31515" lon="4.93648">
        <ele>465.8</ele>
        <time>2013-02-16T08:05:24.000Z</time>
      </trkpt>
      <trkpt lat="47.31516" lon="4.93647">
        <ele>465.9</ele>
        <time>2013-02-16T08:05:25.000Z</time>
      </trkpt>
      <trkpt lat="47.31513" lon="4.93643">
        <ele>465.7</ele>
        <time>2013-02-16T08:05:29.000Z</time>
      </trkpt>
      <trkpt lat="47.31513" lon="4.93642">
        <ele>465.6</ele>
        <time>2013-02-16T08:05:30.000Z</time>
      </trkpt>
      <trkpt lat="47.3151" lon="4.93638">
        <ele>465.6</ele>
        <time>2013-02-16T08:05:33.000Z</time>
      </trkpt>
      <trkpt lat="47.31505" lon="4.93626">
        <ele>465.8</ele>
        <time>2013-02-16T08:05:40.000Z</time>
      </trkpt>
      <trkpt lat="47.31501" lon="4.93625">
        <ele>465.5</ele>
        <time>2013-02-16T08:05:42.000Z</time>
      </trkpt>
      <trkpt lat="47.315" lon="4.93624">
        <ele>467.9</ele>
        <time>2013-02-16T08:05:43.000Z</time>
      </trkpt>
      <trkpt lat="47.31497" lon="4.93621">
        <ele>468.7</ele>
        <time>2013-02-16T08:05:46.000Z</time>
      </trkpt>
      <trkpt lat="47.31495" lon="4.9362">
        <ele>468.1</ele>
        <time>2013-02-16T08:05:47.000Z</time>
      </trkpt>
      <trkpt lat="47.31492" lon="4.93617">
        <ele>468.4</ele>
        <time>2013-02-16T08:05:50.000Z</time>
      </trkpt>
      <trkpt lat="47.31491" lon="4.93616">
        <ele>468.6</ele>
        <time>2013-02-16T08:05:51.000Z</time>
      </trkpt>
      <trkpt lat="47.31488" lon="4.93614">
        <ele>468.3</ele>
        <time>2013-02-16T08:05:53.000Z</time>
      </trkpt>
      <trkpt lat="47.31486" lon="4.93613">
        <ele>468.4</ele>
        <time>2013-02-16T08:05:54.000Z</time>
      </trkpt>
      <trkpt lat="47.31483" lon="4.93611">
        <ele>469.2</ele>
        <time>2013-02-16T08:05:56.000Z</time>
      </trkpt>
      <trkpt lat="47.31482" lon="4.93609">
        <ele>469.4</ele>
        <time>2013-02-16T08:05:57.000Z</time>
      </trkpt>
      <trkpt lat="47.31478" lon="4.93606">
        <ele>470</ele>
        <time>2013-02-16T08:06:00.000Z</time>
      </trkpt>
      <trkpt lat="47.31477" lon="4.93606">
        <ele>470.1</ele>
        <time>2013-02-16T08:06:01.000Z</time>
      </trkpt>
      <trkpt lat="47.31474" lon="4.93601">
        <ele>471.1</ele>
        <time>2013-02-16T08:06:05.000Z</time>
      </trkpt>
      <trkpt lat="47.31474" lon="4.936">
        <ele>471.2</ele>
        <time>2013-02-16T08:06:06.000Z</time>
      </trkpt>
      <trkpt lat="47.31475" lon="4.93594">
        <ele>470.8</ele>
        <time>2013-02-16T08:06:10.000Z</time>
      </trkpt>
      <trkpt lat="47.31475" lon="4.93593">
        <ele>470.8</ele>
        <time>2013-02-16T08:06:11.000Z</time>
      </trkpt>
      <trkpt lat="47.31477" lon="4.93588">
        <ele>470</ele>
        <time>2013-02-16T08:06:15.000Z</time>
      </trkpt>
      <trkpt lat="47.31478" lon="4.93585">
        <ele>469.8</ele>
        <time>2013-02-16T08:06:16.000Z</time>
      </trkpt>
      <trkpt lat="47.3148" lon="4.93581">
        <ele>469.5</ele>
        <time>2013-02-16T08:06:19.000Z</time>
      </trkpt>
      <trkpt lat="47.31481" lon="4.93579">
        <ele>469.4</ele>
        <time>2013-02-16T08:06:20.000Z</time>
      </trkpt>
      <trkpt lat="47.31485" lon="4.93576">
        <ele>469.1</ele>
        <time>2013-02-16T08:06:23.000Z</time>
      </trkpt>
      <trkpt lat="47.31486" lon="4.93574">
        <ele>469</ele>
        <time>2013-02-16T08:06:24.000Z</time>
      </trkpt>
      <trkpt lat="47.31488" lon="4.9357">
        <ele>468.4</ele>
        <time>2013-02-16T08:06:26.000Z</time>
      </trkpt>
      <trkpt lat="47.31489" lon="4.93567">
        <ele>468</ele>
        <time>2013-02-16T08:06:27.000Z</time>
      </trkpt>
      <trkpt lat="47.31491" lon="4.93562">
        <ele>467.1</ele>
        <time>2013-02-16T08:06:30.000Z</time>
      </trkpt>
      <trkpt lat="47.31491" lon="4.9356">
        <ele>467</ele>
        <time>2013-02-16T08:06:31.000Z</time>
      </trkpt>
      <trkpt lat="47.31493" lon="4.93558">
        <ele>466.7</ele>
        <time>2013-02-16T08:06:33.000Z</time>
      </trkpt>
      <trkpt lat="47.31506" lon="4.93549">
        <ele>467.6</ele>
        <time>2013-02-16T08:06:41.000Z</time>
      </trkpt>
      <trkpt lat="47.31506" lon="4.93549">
        <ele>467.6</ele>
        <time>2013-02-16T08:06:47.000Z</time>
      </trkpt>
      <trkpt lat="47.31506" lon="4.93543">
        <ele>458.5</ele>
        <time>2013-02-16T08:06:48.000Z</time>
      </trkpt>
      <trkpt lat="47.31509" lon="4.9354">
        <ele>457.2</ele>
        <time>2013-02-16T08:06:58.000Z</time>
      </trkpt>
      <trkpt lat="47.3151" lon="4.93538">
        <ele>458.2</ele>
        <time>2013-02-16T08:06:59.000Z</time>
      </trkpt>
      <trkpt lat="47.31514" lon="4.93535">
        <ele>457.4</ele>
        <time>2013-02-16T08:07:09.000Z</time>
      </trkpt>
      <trkpt lat="47.31514" lon="4.93534">
        <ele>457.1</ele>
        <time>2013-02-16T08:07:10.000Z</time>
      </trkpt>
      <trkpt lat="47.31515" lon="4.93528">
        <ele>456.5</ele>
        <time>2013-02-16T08:07:13.000Z</time>
      </trkpt>
      <trkpt lat="47.31515" lon="4.93527">
        <ele>456.4</ele>
        <time>2013-02-16T08:07:14.000Z</time>
      </trkpt>
      <trkpt lat="47.31516" lon="4.93522">
        <ele>456.7</ele>
        <time>2013-02-16T08:07:20.000Z</time>
      </trkpt>
      <trkpt lat="47.31517" lon="4.9352">
        <ele>456.7</ele>
        <time>2013-02-16T08:07:21.000Z</time>
      </trkpt>
      <trkpt lat="47.31518" lon="4.93514">
        <ele>456.7</ele>
        <time>2013-02-16T08:07:24.000Z</time>
      </trkpt>
      <trkpt lat="47.31518" lon="4.93513">
        <ele>456.6</ele>
        <time>2013-02-16T08:07:25.000Z</time>
      </trkpt>
      <trkpt lat="47.31517" lon="4.93506">
        <ele>456.4</ele>
        <time>2013-02-16T08:07:29.000Z</time>
      </trkpt>
      <trkpt lat="47.31517" lon="4.93505">
        <ele>456.3</ele>
        <time>2013-02-16T08:07:30.000Z</time>
      </trkpt>
      <trkpt lat="47.31516" lon="4.93499">
        <ele>456</ele>
        <time>2013-02-16T08:07:33.000Z</time>
      </trkpt>
      <trkpt lat="47.31516" lon="4.93497">
        <ele>456</ele>
        <time>2013-02-16T08:07:34.000Z</time>
      </trkpt>
      <trkpt lat="47.31514" lon="4.93491">
        <ele>455.8</ele>
        <time>2013-02-16T08:07:37.000Z</time>
      </trkpt>
      <trkpt lat="47.31513" lon="4.93489">
        <ele>455.8</ele>
        <time>2013-02-16T08:07:38.000Z</time>
      </trkpt>
      <trkpt lat="47.31511" lon="4.93483">
        <ele>455.7</ele>
        <time>2013-02-16T08:07:41.000Z</time>
      </trkpt>
      <trkpt lat="47.31511" lon="4.93482">
        <ele>455.7</ele>
        <time>2013-02-16T08:07:42.000Z</time>
      </trkpt>
      <trkpt lat="47.3151" lon="4.93478">
        <ele>455.5</ele>
        <time>2013-02-16T08:07:44.000Z</time>
      </trkpt>
      <trkpt lat="47.31509" lon="4.93476">
        <ele>455.3</ele>
        <time>2013-02-16T08:07:45.000Z</time>
      </trkpt>
      <trkpt lat="47.31507" lon="4.93471">
        <ele>454.9</ele>
        <time>2013-02-16T08:07:47.000Z</time>
      </trkpt>
      <trkpt lat="47.31506" lon="4.93469">
        <ele>454.7</ele>
        <time>2013-02-16T08:07:48.000Z</time>
      </trkpt>
      <trkpt lat="47.31505" lon="4.93465">
        <ele>454.3</ele>
        <time>2013-02-16T08:07:50.000Z</time>
      </trkpt>
      <trkpt lat="47.31504" lon="4.93463">
        <ele>454</ele>
        <time>2013-02-16T08:07:51.000Z</time>
      </trkpt>
      <trkpt lat="47.31503" lon="4.93459">
        <ele>453.9</ele>
        <time>2013-02-16T08:07:53.000Z</time>
      </trkpt>
      <trkpt lat="47.31503" lon="4.93457">
        <ele>453.7</ele>
        <time>2013-02-16T08:07:54.000Z</time>
      </trkpt>
      <trkpt lat="47.31501" lon="4.93452">
        <ele>453.4</ele>
        <time>2013-02-16T08:07:56.000Z</time>
      </trkpt>
      <trkpt lat="47.315" lon="4.93449">
        <ele>453.1</ele>
        <time>2013-02-16T08:07:57.000Z</time>
      </trkpt>
      <trkpt lat="47.31498" lon="4.93444">
        <ele>452.6</ele>
        <time>2013-02-16T08:07:59.000Z</time>
      </trkpt>
      <trkpt lat="47.31498" lon="4.93442">
        <ele>452.3</ele>
        <time>2013-02-16T08:08:00.000Z</time>
      </trkpt>
      <trkpt lat="47.31496" lon="4.93437">
        <ele>451.7</ele>
        <time>2013-02-16T08:08:02.000Z</time>
      </trkpt>
      <trkpt lat="47.31495" lon="4.93433">
        <ele>451.4</ele>
        <time>2013-02-16T08:08:03.000Z</time>
      </trkpt>
      <trkpt lat="47.31492" lon="4.93428">
        <ele>450.6</ele>
        <time>2013-02-16T08:08:05.000Z</time>
      </trkpt>
      <trkpt lat="47.31492" lon="4.93426">
        <ele>450.4</ele>
        <time>2013-02-16T08:08:06.000Z</time>
      </trkpt>
      <trkpt lat="47.3149" lon="4.93421">
        <ele>450.2</ele>
        <time>2013-02-16T08:08:08.000Z</time>
      </trkpt>
      <trkpt lat="47.3149" lon="4.93419">
        <ele>450</ele>
        <time>2013-02-16T08:08:09.000Z</time>
      </trkpt>
      <trkpt lat="47.31489" lon="4.93414">
        <ele>449.5</ele>
        <time>2013-02-16T08:08:11.000Z</time>
      </trkpt>
      <trkpt lat="47.31488" lon="4.93412">
        <ele>449.2</ele>
        <time>2013-02-16T08:08:12.000Z</time>
      </trkpt>
      <trkpt lat="47.31486" lon="4.93408">
        <ele>448.7</ele>
        <time>2013-02-16T08:08:14.000Z</time>
      </trkpt>
      <trkpt lat="47.31486" lon="4.93405">
        <ele>448.4</ele>
        <time>2013-02-16T08:08:15.000Z</time>
      </trkpt>
      <trkpt lat="47.31484" lon="4.93402">
        <ele>447.9</ele>
        <time>2013-02-16T08:08:17.000Z</time>
      </trkpt>
      <trkpt lat="47.31483" lon="4.934">
        <ele>447.7</ele>
        <time>2013-02-16T08:08:18.000Z</time>
      </trkpt>
      <trkpt lat="47.3148" lon="4.93395">
        <ele>446.8</ele>
        <time>2013-02-16T08:08:22.000Z</time>
      </trkpt>
      <trkpt lat="47.31479" lon="4.93393">
        <ele>446.6</ele>
        <time>2013-02-16T08:08:23.000Z</time>
      </trkpt>
      <trkpt lat="47.31478" lon="4.93388">
        <ele>446.2</ele>
        <time>2013-02-16T08:08:25.000Z</time>
      </trkpt>
      <trkpt lat="47.31476" lon="4.93386">
        <ele>445.9</ele>
        <time>2013-02-16T08:08:26.000Z</time>
      </trkpt>
      <trkpt lat="47.31474" lon="4.93381">
        <ele>445.5</ele>
        <time>2013-02-16T08:08:28.000Z</time>
      </trkpt>
      <trkpt lat="47.31472" lon="4.93379">
        <ele>445.2</ele>
        <time>2013-02-16T08:08:29.000Z</time>
      </trkpt>
      <trkpt lat="47.31469" lon="4.93375">
        <ele>444.9</ele>
        <time>2013-02-16T08:08:31.000Z</time>
      </trkpt>
      <trkpt lat="47.31468" lon="4.93373">
        <ele>444.7</ele>
        <time>2013-02-16T08:08:32.000Z</time>
      </trkpt>
      <trkpt lat="47.31467" lon="4.9337">
        <ele>444.4</ele>
        <time>2013-02-16T08:08:33.000Z</time>
      </trkpt>
      <trkpt lat="47.31467" lon="4.93366">
        <ele>444.2</ele>
        <time>2013-02-16T08:08:34.000Z</time>
      </trkpt>
      <trkpt lat="47.31466" lon="4.93363">
        <ele>444.1</ele>
        <time>2013-02-16T08:08:35.000Z</time>
      </trkpt>
      <trkpt lat="47.31466" lon="4.9336">
        <ele>443.8</ele>
        <time>2013-02-16T08:08:36.000Z</time>
      </trkpt>
      <trkpt lat="47.31465" lon="4.93354">
        <ele>443.5</ele>
        <time>2013-02-16T08:08:38.000Z</time>
      </trkpt>
      <trkpt lat="47.31464" lon="4.93352">
        <ele>443.3</ele>
        <time>2013-02-16T08:08:39.000Z</time>
      </trkpt>
      <trkpt lat="47.31463" lon="4.93346">
        <ele>442.8</ele>
        <time>2013-02-16T08:08:43.000Z</time>
      </trkpt>
      <trkpt lat="47.31463" lon="4.93346">
        <ele>442.7</ele>
        <time>2013-02-16T08:08:44.000Z</time>
      </trkpt>
      <trkpt lat="47.31462" lon="4.9334">
        <ele>442.4</ele>
        <time>2013-02-16T08:08:53.000Z</time>
      </trkpt>
      <trkpt lat="47.31461" lon="4.93338">
        <ele>442.4</ele>
        <time>2013-02-16T08:08:54.000Z</time>
      </trkpt>
      <trkpt lat="47.31458" lon="4.93333">
        <ele>441.9</ele>
        <time>2013-02-16T08:09:05.000Z</time>
      </trkpt>
      <trkpt lat="47.31453" lon="4.9332">
        <ele>440.8</ele>
        <time>2013-02-16T08:09:06.000Z</time>
      </trkpt>
      <trkpt lat="47.31452" lon="4.93314">
        <ele>440.6</ele>
        <time>2013-02-16T08:09:08.000Z</time>
      </trkpt>
      <trkpt lat="47.31451" lon="4.93312">
        <ele>440.4</ele>
        <time>2013-02-16T08:09:09.000Z</time>
      </trkpt>
      <trkpt lat="47.3145" lon="4.93307">
        <ele>440</ele>
        <time>2013-02-16T08:09:11.000Z</time>
      </trkpt>
      <trkpt lat="47.3145" lon="4.93304">
        <ele>439.8</ele>
        <time>2013-02-16T08:09:12.000Z</time>
      </trkpt>
      <trkpt lat="47.31449" lon="4.93299">
        <ele>439.3</ele>
        <time>2013-02-16T08:09:14.000Z</time>
      </trkpt>
      <trkpt lat="47.31448" lon="4.93296">
        <ele>439</ele>
        <time>2013-02-16T08:09:15.000Z</time>
      </trkpt>
      <trkpt lat="47.31447" lon="4.93292">
        <ele>438.6</ele>
        <time>2013-02-16T08:09:16.000Z</time>
      </trkpt>
      <trkpt lat="47.31446" lon="4.9329">
        <ele>438.4</ele>
        <time>2013-02-16T08:09:17.000Z</time>
      </trkpt>
      <trkpt lat="47.31445" lon="4.93287">
        <ele>438.1</ele>
        <time>2013-02-16T08:09:18.000Z</time>
      </trkpt>
      <trkpt lat="47.31443" lon="4.93284">
        <ele>437.9</ele>
        <time>2013-02-16T08:09:19.000Z</time>
      </trkpt>
      <trkpt lat="47.31441" lon="4.93278">
        <ele>437.5</ele>
        <time>2013-02-16T08:09:21.000Z</time>
      </trkpt>
      <trkpt lat="47.31439" lon="4.93277">
        <ele>436.8</ele>
        <time>2013-02-16T08:09:22.000Z</time>
      </trkpt>
      <trkpt lat="47.31437" lon="4.93271">
        <ele>436.2</ele>
        <time>2013-02-16T08:09:24.000Z</time>
      </trkpt>
      <trkpt lat="47.31437" lon="4.93269">
        <ele>435.8</ele>
        <time>2013-02-16T08:09:25.000Z</time>
      </trkpt>
      <trkpt lat="47.31439" lon="4.93265">
        <ele>433.7</ele>
        <time>2013-02-16T08:09:28.000Z</time>
      </trkpt>
      <trkpt lat="47.3144" lon="4.93261">
        <ele>432.4</ele>
        <time>2013-02-16T08:09:29.000Z</time>
      </trkpt>
      <trkpt lat="47.3144" lon="4.93261">
        <ele>432.4</ele>
        <time>2013-02-16T08:09:33.000Z</time>
      </trkpt>
      <trkpt lat="47.31438" lon="4.933">
        <ele>441.3</ele>
        <time>2013-02-16T08:09:56.000Z</time>
      </trkpt>
      <trkpt lat="47.31438" lon="4.933">
        <ele>441.3</ele>
        <time>2013-02-16T08:10:24.000Z</time>
      </trkpt>
      <trkpt lat="47.3144" lon="4.93289">
        <ele>435.3</ele>
        <time>2013-02-16T08:10:25.000Z</time>
      </trkpt>
      <trkpt lat="47.3144" lon="4.93289">
        <ele>435.3</ele>
        <time>2013-02-16T08:10:33.000Z</time>
      </trkpt>
      <trkpt lat="47.31452" lon="4.93261">
        <ele>418.8</ele>
        <time>2013-02-16T08:10:39.000Z</time>
      </trkpt>
      <trkpt lat="47.31452" lon="4.93261">
        <ele>418.8</ele>
        <time>2013-02-16T08:10:51.000Z</time>
      </trkpt>
      <trkpt lat="47.31453" lon="4.93249">
        <ele>423.7</ele>
        <time>2013-02-16T08:10:52.000Z</time>
      </trkpt>
      <trkpt lat="47.31454" lon="4.93247">
        <ele>426.1</ele>
        <time>2013-02-16T08:11:00.000Z</time>
      </trkpt>
      <trkpt lat="47.31446" lon="4.93252">
        <ele>418.4</ele>
        <time>2013-02-16T08:11:01.000Z</time>
      </trkpt>
      <trkpt lat="47.31445" lon="4.93255">
        <ele>418.2</ele>
        <time>2013-02-16T08:11:27.000Z</time>
      </trkpt>
      <trkpt lat="47.31439" lon="4.93249">
        <ele>411.4</ele>
        <time>2013-02-16T08:11:28.000Z</time>
      </trkpt>
      <trkpt lat="47.31439" lon="4.9325">
        <ele>409</ele>
        <time>2013-02-16T08:11:33.000Z</time>
      </trkpt>
      <trkpt lat="47.31431" lon="4.9321">
        <ele>416.6</ele>
        <time>2013-02-16T08:11:41.000Z</time>
      </trkpt>
      <trkpt lat="47.31434" lon="4.93214">
        <ele>416.1</ele>
        <time>2013-02-16T08:11:48.000Z</time>
      </trkpt>
      <trkpt lat="47.31435" lon="4.93218">
        <ele>414.2</ele>
        <time>2013-02-16T08:11:49.000Z</time>
      </trkpt>
      <trkpt lat="47.31438" lon="4.93224">
        <ele>409.6</ele>
        <time>2013-02-16T08:11:50.000Z</time>
      </trkpt>
      <trkpt lat="47.3144" lon="4.93228">
        <ele>409.2</ele>
        <time>2013-02-16T08:11:53.000Z</time>
      </trkpt>
      <trkpt lat="47.31442" lon="4.93233">
        <ele>406.5</ele>
        <time>2013-02-16T08:11:54.000Z</time>
      </trkpt>
      <trkpt lat="47.31442" lon="4.93233">
        <ele>406.5</ele>
        <time>2013-02-16T08:12:03.000Z</time>
      </trkpt>
      <trkpt lat="47.31441" lon="4.93243">
        <ele>404.4</ele>
        <time>2013-02-16T08:12:04.000Z</time>
      </trkpt>
      <trkpt lat="47.31437" lon="4.93246">
        <ele>401.7</ele>
        <time>2013-02-16T08:12:33.000Z</time>
      </trkpt>
      <trkpt lat="47.31429" lon="4.93261">
        <ele>395.1</ele>
        <time>2013-02-16T08:12:48.000Z</time>
      </trkpt>
      <trkpt lat="47.31429" lon="4.93261">
        <ele>395.1</ele>
        <time>2013-02-16T08:13:14.000Z</time>
      </trkpt>
      <trkpt lat="47.31437" lon="4.93254">
        <ele>392.8</ele>
        <time>2013-02-16T08:13:15.000Z</time>
      </trkpt>
      <trkpt lat="47.31435" lon="4.9325">
        <ele>394.7</ele>
        <time>2013-02-16T08:13:24.000Z</time>
      </trkpt>
      <trkpt lat="47.31434" lon="4.93249">
        <ele>395.5</ele>
        <time>2013-02-16T08:13:25.000Z</time>
      </trkpt>
      <trkpt lat="47.31432" lon="4.93246">
        <ele>396.7</ele>
        <time>2013-02-16T08:13:29.000Z</time>
      </trkpt>
      <trkpt lat="47.31431" lon="4.93244">
        <ele>398.1</ele>
        <time>2013-02-16T08:13:30.000Z</time>
      </trkpt>
      <trkpt lat="47.3143" lon="4.93241">
        <ele>401</ele>
        <time>2013-02-16T08:13:33.000Z</time>
      </trkpt>
      <trkpt lat="47.31422" lon="4.93253">
        <ele>414.6</ele>
        <time>2013-02-16T08:13:41.000Z</time>
      </trkpt>
      <trkpt lat="47.31422" lon="4.9325">
        <ele>414.2</ele>
        <time>2013-02-16T08:13:56.000Z</time>
      </trkpt>
      <trkpt lat="47.31415" lon="4.9325">
        <ele>421.5</ele>
        <time>2013-02-16T08:13:57.000Z</time>
      </trkpt>
      <trkpt lat="47.31413" lon="4.93251">
        <ele>423.1</ele>
        <time>2013-02-16T08:14:02.000Z</time>
      </trkpt>
      <trkpt lat="47.31409" lon="4.93253">
        <ele>423.3</ele>
        <time>2013-02-16T08:14:03.000Z</time>
      </trkpt>
      <trkpt lat="47.31406" lon="4.93256">
        <ele>423.7</ele>
        <time>2013-02-16T08:14:08.000Z</time>
      </trkpt>
      <trkpt lat="47.31405" lon="4.93257">
        <ele>423.8</ele>
        <time>2013-02-16T08:14:09.000Z</time>
      </trkpt>
      <trkpt lat="47.31402" lon="4.9326">
        <ele>426</ele>
        <time>2013-02-16T08:14:15.000Z</time>
      </trkpt>
      <trkpt lat="47.31401" lon="4.93261">
        <ele>426.4</ele>
        <time>2013-02-16T08:14:16.000Z</time>
      </trkpt>
      <trkpt lat="47.31398" lon="4.93264">
        <ele>426.7</ele>
        <time>2013-02-16T08:14:20.000Z</time>
      </trkpt>
      <trkpt lat="47.31397" lon="4.93265">
        <ele>427</ele>
        <time>2013-02-16T08:14:21.000Z</time>
      </trkpt>
      <trkpt lat="47.31393" lon="4.93267">
        <ele>427.4</ele>
        <time>2013-02-16T08:14:25.000Z</time>
      </trkpt>
      <trkpt lat="47.31392" lon="4.93267">
        <ele>427.5</ele>
        <time>2013-02-16T08:14:26.000Z</time>
      </trkpt>
      <trkpt lat="47.31388" lon="4.93266">
        <ele>427.4</ele>
        <time>2013-02-16T08:14:30.000Z</time>
      </trkpt>
      <trkpt lat="47.31387" lon="4.93266">
        <ele>427.4</ele>
        <time>2013-02-16T08:14:31.000Z</time>
      </trkpt>
      <trkpt lat="47.31385" lon="4.93268">
        <ele>427.6</ele>
        <time>2013-02-16T08:14:33.000Z</time>
      </trkpt>
      <trkpt lat="47.31367" lon="4.93273">
        <ele>436.7</ele>
        <time>2013-02-16T08:14:41.000Z</time>
      </trkpt>
      <trkpt lat="47.31364" lon="4.93276">
        <ele>439.3</ele>
        <time>2013-02-16T08:14:44.000Z</time>
      </trkpt>
      <trkpt lat="47.31362" lon="4.93276">
        <ele>439.3</ele>
        <time>2013-02-16T08:14:45.000Z</time>
      </trkpt>
      <trkpt lat="47.31359" lon="4.93278">
        <ele>437.2</ele>
        <time>2013-02-16T08:14:49.000Z</time>
      </trkpt>
      <trkpt lat="47.31358" lon="4.93279">
        <ele>437.4</ele>
        <time>2013-02-16T08:14:50.000Z</time>
      </trkpt>
      <trkpt lat="47.31353" lon="4.93281">
        <ele>437.1</ele>
        <time>2013-02-16T08:14:53.000Z</time>
      </trkpt>
      <trkpt lat="47.31353" lon="4.9328">
        <ele>438.7</ele>
        <time>2013-02-16T08:14:54.000Z</time>
      </trkpt>
      <trkpt lat="47.31349" lon="4.9328">
        <ele>438.5</ele>
        <time>2013-02-16T08:14:57.000Z</time>
      </trkpt>
      <trkpt lat="47.31348" lon="4.9328">
        <ele>439.1</ele>
        <time>2013-02-16T08:14:58.000Z</time>
      </trkpt>
      <trkpt lat="47.31345" lon="4.93278">
        <ele>439.9</ele>
        <time>2013-02-16T08:15:02.000Z</time>
      </trkpt>
      <trkpt lat="47.31343" lon="4.93278">
        <ele>440.2</ele>
        <time>2013-02-16T08:15:03.000Z</time>
      </trkpt>
      <trkpt lat="47.31339" lon="4.9328">
        <ele>439.8</ele>
        <time>2013-02-16T08:15:06.000Z</time>
      </trkpt>
      <trkpt lat="47.31338" lon="4.9328">
        <ele>439.8</ele>
        <time>2013-02-16T08:15:07.000Z</time>
      </trkpt>
      <trkpt lat="47.31334" lon="4.93281">
        <ele>439.6</ele>
        <time>2013-02-16T08:15:09.000Z</time>
      </trkpt>
      <trkpt lat="47.31332" lon="4.93282">
        <ele>439.4</ele>
        <time>2013-02-16T08:15:10.000Z</time>
      </trkpt>
      <trkpt lat="47.31328" lon="4.93283">
        <ele>439.4</ele>
        <time>2013-02-16T08:15:13.000Z</time>
      </trkpt>
      <trkpt lat="47.31327" lon="4.93282">
        <ele>439.8</ele>
        <time>2013-02-16T08:15:14.000Z</time>
      </trkpt>
      <trkpt lat="47.31323" lon="4.93284">
        <ele>440.6</ele>
        <time>2013-02-16T08:15:17.000Z</time>
      </trkpt>
      <trkpt lat="47.31323" lon="4.93284">
        <ele>440.9</ele>
        <time>2013-02-16T08:15:18.000Z</time>
      </trkpt>
      <trkpt lat="47.31318" lon="4.93283">
        <ele>443.3</ele>
        <time>2013-02-16T08:15:25.000Z</time>
      </trkpt>
      <trkpt lat="47.31317" lon="4.93282">
        <ele>443.4</ele>
        <time>2013-02-16T08:15:26.000Z</time>
      </trkpt>
      <trkpt lat="47.31313" lon="4.93282">
        <ele>444.1</ele>
        <time>2013-02-16T08:15:30.000Z</time>
      </trkpt>
      <trkpt lat="47.31312" lon="4.93283">
        <ele>444.3</ele>
        <time>2013-02-16T08:15:31.000Z</time>
      </trkpt>
      <trkpt lat="47.3131" lon="4.93285">
        <ele>444.9</ele>
        <time>2013-02-16T08:15:33.000Z</time>
      </trkpt>
      <trkpt lat="47.313" lon="4.9328">
        <ele>460.8</ele>
        <time>2013-02-16T08:15:40.000Z</time>
      </trkpt>
      <trkpt lat="47.31296" lon="4.93283">
        <ele>460.1</ele>
        <time>2013-02-16T08:15:44.000Z</time>
      </trkpt>
      <trkpt lat="47.31296" lon="4.93284">
        <ele>460.1</ele>
        <time>2013-02-16T08:15:45.000Z</time>
      </trkpt>
      <trkpt lat="47.31292" lon="4.93287">
        <ele>459.6</ele>
        <time>2013-02-16T08:15:48.000Z</time>
      </trkpt>
      <trkpt lat="47.31291" lon="4.93289">
        <ele>459.1</ele>
        <time>2013-02-16T08:15:49.000Z</time>
      </trkpt>
      <trkpt lat="47.31287" lon="4.93291">
        <ele>461</ele>
        <time>2013-02-16T08:15:53.000Z</time>
      </trkpt>
      <trkpt lat="47.31287" lon="4.93292">
        <ele>461.4</ele>
        <time>2013-02-16T08:15:54.000Z</time>
      </trkpt>
      <trkpt lat="47.31285" lon="4.93297">
        <ele>463.6</ele>
        <time>2013-02-16T08:15:57.000Z</time>
      </trkpt>
      <trkpt lat="47.31284" lon="4.93299">
        <ele>464.4</ele>
        <time>2013-02-16T08:15:58.000Z</time>
      </trkpt>
      <trkpt lat="47.31282" lon="4.93302">
        <ele>469.2</ele>
        <time>2013-02-16T08:16:02.000Z</time>
      </trkpt>
      <trkpt lat="47.31281" lon="4.93303">
        <ele>470</ele>
        <time>2013-02-16T08:16:03.000Z</time>
      </trkpt>
      <trkpt lat="47.31279" lon="4.93307">
        <ele>470.2</ele>
        <time>2013-02-16T08:16:05.000Z</time>
      </trkpt>
      <trkpt lat="47.31278" lon="4.93309">
        <ele>468.9</ele>
        <time>2013-02-16T08:16:06.000Z</time>
      </trkpt>
      <trkpt lat="47.31277" lon="4.93315">
        <ele>467.8</ele>
        <time>2013-02-16T08:16:08.000Z</time>
      </trkpt>
      <trkpt lat="47.31277" lon="4.93318">
        <ele>466.9</ele>
        <time>2013-02-16T08:16:09.000Z</time>
      </trkpt>
      <trkpt lat="47.31276" lon="4.93324">
        <ele>465.8</ele>
        <time>2013-02-16T08:16:11.000Z</time>
      </trkpt>
      <trkpt lat="47.31275" lon="4.93326">
        <ele>465.6</ele>
        <time>2013-02-16T08:16:12.000Z</time>
      </trkpt>
      <trkpt lat="47.31275" lon="4.93331">
        <ele>464.6</ele>
        <time>2013-02-16T08:16:14.000Z</time>
      </trkpt>
      <trkpt lat="47.31274" lon="4.93334">
        <ele>464.5</ele>
        <time>2013-02-16T08:16:15.000Z</time>
      </trkpt>
      <trkpt lat="47.31272" lon="4.9334">
        <ele>464.5</ele>
        <time>2013-02-16T08:16:18.000Z</time>
      </trkpt>
      <trkpt lat="47.31272" lon="4.93341">
        <ele>464.4</ele>
        <time>2013-02-16T08:16:19.000Z</time>
      </trkpt>
      <trkpt lat="47.31269" lon="4.93344">
        <ele>464.4</ele>
        <time>2013-02-16T08:16:21.000Z</time>
      </trkpt>
      <trkpt lat="47.31268" lon="4.93346">
        <ele>464.4</ele>
        <time>2013-02-16T08:16:22.000Z</time>
      </trkpt>
      <trkpt lat="47.31266" lon="4.93349">
        <ele>464.6</ele>
        <time>2013-02-16T08:16:24.000Z</time>
      </trkpt>
      <trkpt lat="47.31265" lon="4.93351">
        <ele>464.4</ele>
        <time>2013-02-16T08:16:25.000Z</time>
      </trkpt>
      <trkpt lat="47.31262" lon="4.93356">
        <ele>464.5</ele>
        <time>2013-02-16T08:16:29.000Z</time>
      </trkpt>
      <trkpt lat="47.31262" lon="4.93357">
        <ele>464.4</ele>
        <time>2013-02-16T08:16:30.000Z</time>
      </trkpt>
      <trkpt lat="47.31261" lon="4.93361">
        <ele>464.9</ele>
        <time>2013-02-16T08:16:33.000Z</time>
      </trkpt>
      <trkpt lat="47.31252" lon="4.9338">
        <ele>464.7</ele>
        <time>2013-02-16T08:16:42.000Z</time>
      </trkpt>
      <trkpt lat="47.3125" lon="4.93384">
        <ele>463.7</ele>
        <time>2013-02-16T08:16:44.000Z</time>
      </trkpt>
      <trkpt lat="47.3125" lon="4.93386">
        <ele>462.8</ele>
        <time>2013-02-16T08:16:45.000Z</time>
      </trkpt>
      <trkpt lat="47.31251" lon="4.93392">
        <ele>464.6</ele>
        <time>2013-02-16T08:16:51.000Z</time>
      </trkpt>
      <trkpt lat="47.3125" lon="4.93394">
        <ele>465</ele>
        <time>2013-02-16T08:16:52.000Z</time>
      </trkpt>
      <trkpt lat="47.3125" lon="4.934">
        <ele>466.8</ele>
        <time>2013-02-16T08:16:56.000Z</time>
      </trkpt>
      <trkpt lat="47.31249" lon="4.93401">
        <ele>466.9</ele>
        <time>2013-02-16T08:16:57.000Z</time>
      </trkpt>
      <trkpt lat="47.31247" lon="4.93405">
        <ele>468.7</ele>
        <time>2013-02-16T08:17:03.000Z</time>
      </trkpt>
      <trkpt lat="47.31246" lon="4.93406">
        <ele>468.5</ele>
        <time>2013-02-16T08:17:04.000Z</time>
      </trkpt>
      <trkpt lat="47.31243" lon="4.93412">
        <ele>468.4</ele>
        <time>2013-02-16T08:17:08.000Z</time>
      </trkpt>
      <trkpt lat="47.31243" lon="4.93412">
        <ele>468.4</ele>
        <time>2013-02-16T08:17:09.000Z</time>
      </trkpt>
      <trkpt lat="47.3124" lon="4.93418">
        <ele>469.2</ele>
        <time>2013-02-16T08:17:15.000Z</time>
      </trkpt>
      <trkpt lat="47.3124" lon="4.93419">
        <ele>468.9</ele>
        <time>2013-02-16T08:17:16.000Z</time>
      </trkpt>
      <trkpt lat="47.31236" lon="4.93422">
        <ele>467.8</ele>
        <time>2013-02-16T08:17:20.000Z</time>
      </trkpt>
      <trkpt lat="47.31236" lon="4.93423">
        <ele>467.8</ele>
        <time>2013-02-16T08:17:21.000Z</time>
      </trkpt>
      <trkpt lat="47.31232" lon="4.93426">
        <ele>467.5</ele>
        <time>2013-02-16T08:17:25.000Z</time>
      </trkpt>
      <trkpt lat="47.31231" lon="4.93427">
        <ele>467.7</ele>
        <time>2013-02-16T08:17:26.000Z</time>
      </trkpt>
      <trkpt lat="47.31228" lon="4.93429">
        <ele>467.5</ele>
        <time>2013-02-16T08:17:30.000Z</time>
      </trkpt>
      <trkpt lat="47.31227" lon="4.93429">
        <ele>467.3</ele>
        <time>2013-02-16T08:17:31.000Z</time>
      </trkpt>
      <trkpt lat="47.31226" lon="4.9343">
        <ele>467.1</ele>
        <time>2013-02-16T08:17:33.000Z</time>
      </trkpt>
      <trkpt lat="47.31217" lon="4.93425">
        <ele>463.1</ele>
        <time>2013-02-16T08:17:40.000Z</time>
      </trkpt>
      <trkpt lat="47.31217" lon="4.93425">
        <ele>463.1</ele>
        <time>2013-02-16T08:17:41.000Z</time>
      </trkpt>
      <trkpt lat="47.31217" lon="4.93432">
        <ele>469.5</ele>
        <time>2013-02-16T08:17:42.000Z</time>
      </trkpt>
      <trkpt lat="47.31218" lon="4.93429">
        <ele>467.6</ele>
        <time>2013-02-16T08:18:33.000Z</time>
      </trkpt>
      <trkpt lat="47.31223" lon="4.9343">
        <ele>468.9</ele>
        <time>2013-02-16T08:18:40.000Z</time>
      </trkpt>
      <trkpt lat="47.31223" lon="4.9343">
        <ele>468.9</ele>
        <time>2013-02-16T08:19:33.000Z</time>
      </trkpt>
      <trkpt lat="47.31216" lon="4.93439">
        <ele>472.1</ele>
        <time>2013-02-16T08:19:40.000Z</time>
      </trkpt>
      <trkpt lat="47.31216" lon="4.93439">
        <ele>472.1</ele>
        <time>2013-02-16T08:20:26.000Z</time>
      </trkpt>
      <trkpt lat="47.31215" lon="4.93432">
        <ele>477.4</ele>
        <time>2013-02-16T08:20:27.000Z</time>
      </trkpt>
      <trkpt lat="47.31215" lon="4.93429">
        <ele>476.8</ele>
        <time>2013-02-16T08:21:33.000Z</time>
      </trkpt>
      <trkpt lat="47.31217" lon="4.93424">
        <ele>471.6</ele>
        <time>2013-02-16T08:21:40.000Z</time>
      </trkpt>
      <trkpt lat="47.31219" lon="4.93422">
        <ele>471.8</ele>
        <time>2013-02-16T08:22:33.000Z</time>
      </trkpt>
      <trkpt lat="47.31224" lon="4.9341">
        <ele>468.9</ele>
        <time>2013-02-16T08:22:40.000Z</time>
      </trkpt>
      <trkpt lat="47.3122" lon="4.93412">
        <ele>470.1</ele>
        <time>2013-02-16T08:23:17.000Z</time>
      </trkpt>
      <trkpt lat="47.3122" lon="4.93411">
        <ele>469.7</ele>
        <time>2013-02-16T08:23:18.000Z</time>
      </trkpt>
      <trkpt lat="47.31216" lon="4.93408">
        <ele>469.9</ele>
        <time>2013-02-16T08:23:25.000Z</time>
      </trkpt>
      <trkpt lat="47.31216" lon="4.93407">
        <ele>470</ele>
        <time>2013-02-16T08:23:26.000Z</time>
      </trkpt>
      <trkpt lat="47.31213" lon="4.93402">
        <ele>470.3</ele>
        <time>2013-02-16T08:23:30.000Z</time>
      </trkpt>
      <trkpt lat="47.31213" lon="4.93401">
        <ele>470.3</ele>
        <time>2013-02-16T08:23:31.000Z</time>
      </trkpt>
      <trkpt lat="47.31211" lon="4.93398">
        <ele>470.5</ele>
        <time>2013-02-16T08:23:33.000Z</time>
      </trkpt>
      <trkpt lat="47.31202" lon="4.93391">
        <ele>472</ele>
        <time>2013-02-16T08:23:40.000Z</time>
      </trkpt>
      <trkpt lat="47.31201" lon="4.93386">
        <ele>473.4</ele>
        <time>2013-02-16T08:23:43.000Z</time>
      </trkpt>
      <trkpt lat="47.312" lon="4.93384">
        <ele>473.9</ele>
        <time>2013-02-16T08:23:44.000Z</time>
      </trkpt>
      <trkpt lat="47.31198" lon="4.93378">
        <ele>475</ele>
        <time>2013-02-16T08:23:48.000Z</time>
      </trkpt>
      <trkpt lat="47.31198" lon="4.93376">
        <ele>474.8</ele>
        <time>2013-02-16T08:23:49.000Z</time>
      </trkpt>
      <trkpt lat="47.31197" lon="4.9337">
        <ele>474.9</ele>
        <time>2013-02-16T08:23:52.000Z</time>
      </trkpt>
      <trkpt lat="47.31197" lon="4.93368">
        <ele>475.1</ele>
        <time>2013-02-16T08:23:53.000Z</time>
      </trkpt>
      <trkpt lat="47.31195" lon="4.93364">
        <ele>475.6</ele>
        <time>2013-02-16T08:23:55.000Z</time>
      </trkpt>
      <trkpt lat="47.31195" lon="4.93362">
        <ele>476.4</ele>
        <time>2013-02-16T08:23:56.000Z</time>
      </trkpt>
      <trkpt lat="47.31196" lon="4.93356">
        <ele>475.4</ele>
        <time>2013-02-16T08:24:02.000Z</time>
      </trkpt>
      <trkpt lat="47.31195" lon="4.93355">
        <ele>475.6</ele>
        <time>2013-02-16T08:24:03.000Z</time>
      </trkpt>
      <trkpt lat="47.31192" lon="4.93351">
        <ele>476.2</ele>
        <time>2013-02-16T08:24:08.000Z</time>
      </trkpt>
      <trkpt lat="47.31191" lon="4.9335">
        <ele>476.2</ele>
        <time>2013-02-16T08:24:09.000Z</time>
      </trkpt>
      <trkpt lat="47.31189" lon="4.93344">
        <ele>476.9</ele>
        <time>2013-02-16T08:24:12.000Z</time>
      </trkpt>
      <trkpt lat="47.31189" lon="4.93342">
        <ele>477</ele>
        <time>2013-02-16T08:24:13.000Z</time>
      </trkpt>
      <trkpt lat="47.31188" lon="4.93339">
        <ele>477.1</ele>
        <time>2013-02-16T08:24:15.000Z</time>
      </trkpt>
      <trkpt lat="47.31188" lon="4.93336">
        <ele>477</ele>
        <time>2013-02-16T08:24:16.000Z</time>
      </trkpt>
      <trkpt lat="47.31186" lon="4.93329">
        <ele>476.8</ele>
        <time>2013-02-16T08:24:19.000Z</time>
      </trkpt>
      <trkpt lat="47.31186" lon="4.93327">
        <ele>476.7</ele>
        <time>2013-02-16T08:24:20.000Z</time>
      </trkpt>
      <trkpt lat="47.31184" lon="4.93322">
        <ele>476.2</ele>
        <time>2013-02-16T08:24:23.000Z</time>
      </trkpt>
      <trkpt lat="47.31183" lon="4.9332">
        <ele>476.1</ele>
        <time>2013-02-16T08:24:24.000Z</time>
      </trkpt>
      <trkpt lat="47.31181" lon="4.93314">
        <ele>476.4</ele>
        <time>2013-02-16T08:24:27.000Z</time>
      </trkpt>
      <trkpt lat="47.3118" lon="4.93311">
        <ele>476.4</ele>
        <time>2013-02-16T08:24:28.000Z</time>
      </trkpt>
      <trkpt lat="47.3118" lon="4.93305">
        <ele>476.4</ele>
        <time>2013-02-16T08:24:30.000Z</time>
      </trkpt>
      <trkpt lat="47.3118" lon="4.93303">
        <ele>476.3</ele>
        <time>2013-02-16T08:24:31.000Z</time>
      </trkpt>
      <trkpt lat="47.31179" lon="4.93299">
        <ele>476</ele>
        <time>2013-02-16T08:24:33.000Z</time>
      </trkpt>
      <trkpt lat="47.31177" lon="4.9328">
        <ele>475.6</ele>
        <time>2013-02-16T08:24:40.000Z</time>
      </trkpt>
      <trkpt lat="47.31176" lon="4.93274">
        <ele>474.6</ele>
        <time>2013-02-16T08:24:43.000Z</time>
      </trkpt>
      <trkpt lat="47.31175" lon="4.93272">
        <ele>474.6</ele>
        <time>2013-02-16T08:24:44.000Z</time>
      </trkpt>
      <trkpt lat="47.31175" lon="4.93267">
        <ele>471.4</ele>
        <time>2013-02-16T08:24:47.000Z</time>
      </trkpt>
      <trkpt lat="47.31175" lon="4.93265">
        <ele>469.7</ele>
        <time>2013-02-16T08:24:48.000Z</time>
      </trkpt>
      <trkpt lat="47.31179" lon="4.93265">
        <ele>467.6</ele>
        <time>2013-02-16T08:24:53.000Z</time>
      </trkpt>
      <trkpt lat="47.3118" lon="4.93264">
        <ele>467.7</ele>
        <time>2013-02-16T08:24:54.000Z</time>
      </trkpt>
      <trkpt lat="47.31183" lon="4.9326">
        <ele>467.5</ele>
        <time>2013-02-16T08:24:57.000Z</time>
      </trkpt>
      <trkpt lat="47.31184" lon="4.93258">
        <ele>467.4</ele>
        <time>2013-02-16T08:24:58.000Z</time>
      </trkpt>
      <trkpt lat="47.31187" lon="4.93254">
        <ele>467</ele>
        <time>2013-02-16T08:25:01.000Z</time>
      </trkpt>
      <trkpt lat="47.31188" lon="4.93252">
        <ele>466.4</ele>
        <time>2013-02-16T08:25:02.000Z</time>
      </trkpt>
      <trkpt lat="47.31189" lon="4.93246">
        <ele>466.5</ele>
        <time>2013-02-16T08:25:05.000Z</time>
      </trkpt>
      <trkpt lat="47.3119" lon="4.93244">
        <ele>466.7</ele>
        <time>2013-02-16T08:25:06.000Z</time>
      </trkpt>
      <trkpt lat="47.31193" lon="4.93241">
        <ele>467</ele>
        <time>2013-02-16T08:25:09.000Z</time>
      </trkpt>
      <trkpt lat="47.31195" lon="4.93239">
        <ele>466.8</ele>
        <time>2013-02-16T08:25:10.000Z</time>
      </trkpt>
      <trkpt lat="47.31198" lon="4.93235">
        <ele>466.4</ele>
        <time>2013-02-16T08:25:13.000Z</time>
      </trkpt>
      <trkpt lat="47.31199" lon="4.93234">
        <ele>466</ele>
        <time>2013-02-16T08:25:14.000Z</time>
      </trkpt>
      <trkpt lat="47.31203" lon="4.93233">
        <ele>465.6</ele>
        <time>2013-02-16T08:25:16.000Z</time>
      </trkpt>
      <trkpt lat="47.31204" lon="4.93232">
        <ele>465.3</ele>
        <time>2013-02-16T08:25:17.000Z</time>
      </trkpt>
      <trkpt lat="47.31208" lon="4.93231">
        <ele>465</ele>
        <time>2013-02-16T08:25:19.000Z</time>
      </trkpt>
      <trkpt lat="47.31209" lon="4.9323">
        <ele>465.1</ele>
        <time>2013-02-16T08:25:20.000Z</time>
      </trkpt>
      <trkpt lat="47.31213" lon="4.93229">
        <ele>464.7</ele>
        <time>2013-02-16T08:25:22.000Z</time>
      </trkpt>
      <trkpt lat="47.31214" lon="4.93228">
        <ele>464.5</ele>
        <time>2013-02-16T08:25:23.000Z</time>
      </trkpt>
      <trkpt lat="47.31217" lon="4.93226">
        <ele>464.1</ele>
        <time>2013-02-16T08:25:25.000Z</time>
      </trkpt>
      <trkpt lat="47.31219" lon="4.93225">
        <ele>463.9</ele>
        <time>2013-02-16T08:25:26.000Z</time>
      </trkpt>
      <trkpt lat="47.31223" lon="4.93222">
        <ele>463.5</ele>
        <time>2013-02-16T08:25:29.000Z</time>
      </trkpt>
      <trkpt lat="47.31224" lon="4.93221">
        <ele>463.3</ele>
        <time>2013-02-16T08:25:30.000Z</time>
      </trkpt>
      <trkpt lat="47.31228" lon="4.93219">
        <ele>462.7</ele>
        <time>2013-02-16T08:25:33.000Z</time>
      </trkpt>
      <trkpt lat="47.31241" lon="4.93218">
        <ele>461.1</ele>
        <time>2013-02-16T08:25:40.000Z</time>
      </trkpt>
      <trkpt lat="47.31243" lon="4.93217">
        <ele>459.8</ele>
        <time>2013-02-16T08:25:42.000Z</time>
      </trkpt>
      <trkpt lat="47.31245" lon="4.93217">
        <ele>459.2</ele>
        <time>2013-02-16T08:25:43.000Z</time>
      </trkpt>
      <trkpt lat="47.3125" lon="4.93215">
        <ele>460.9</ele>
        <time>2013-02-16T08:25:46.000Z</time>
      </trkpt>
      <trkpt lat="47.31251" lon="4.93214">
        <ele>460.4</ele>
        <time>2013-02-16T08:25:47.000Z</time>
      </trkpt>
      <trkpt lat="47.31255" lon="4.93212">
        <ele>460.3</ele>
        <time>2013-02-16T08:25:50.000Z</time>
      </trkpt>
      <trkpt lat="47.31256" lon="4.93212">
        <ele>460.3</ele>
        <time>2013-02-16T08:25:51.000Z</time>
      </trkpt>
      <trkpt lat="47.3126" lon="4.9321">
        <ele>460.5</ele>
        <time>2013-02-16T08:25:54.000Z</time>
      </trkpt>
      <trkpt lat="47.31261" lon="4.93209">
        <ele>460.1</ele>
        <time>2013-02-16T08:25:55.000Z</time>
      </trkpt>
      <trkpt lat="47.31264" lon="4.93208">
        <ele>458.5</ele>
        <time>2013-02-16T08:25:57.000Z</time>
      </trkpt>
      <trkpt lat="47.31266" lon="4.93207">
        <ele>457.8</ele>
        <time>2013-02-16T08:25:58.000Z</time>
      </trkpt>
      <trkpt lat="47.31269" lon="4.93205">
        <ele>456.5</ele>
        <time>2013-02-16T08:26:00.000Z</time>
      </trkpt>
      <trkpt lat="47.31271" lon="4.93205">
        <ele>455.7</ele>
        <time>2013-02-16T08:26:01.000Z</time>
      </trkpt>
      <trkpt lat="47.31274" lon="4.93203">
        <ele>454.7</ele>
        <time>2013-02-16T08:26:03.000Z</time>
      </trkpt>
      <trkpt lat="47.31275" lon="4.93202">
        <ele>454.8</ele>
        <time>2013-02-16T08:26:04.000Z</time>
      </trkpt>
      <trkpt lat="47.31278" lon="4.93201">
        <ele>454.6</ele>
        <time>2013-02-16T08:26:06.000Z</time>
      </trkpt>
      <trkpt lat="47.3128" lon="4.93201">
        <ele>454.5</ele>
        <time>2013-02-16T08:26:07.000Z</time>
      </trkpt>
      <trkpt lat="47.31283" lon="4.93201">
        <ele>454.6</ele>
        <time>2013-02-16T08:26:09.000Z</time>
      </trkpt>
      <trkpt lat="47.31285" lon="4.932">
        <ele>454.2</ele>
        <time>2013-02-16T08:26:10.000Z</time>
      </trkpt>
      <trkpt lat="47.31288" lon="4.93198">
        <ele>454.4</ele>
        <time>2013-02-16T08:26:13.000Z</time>
      </trkpt>
      <trkpt lat="47.31289" lon="4.93197">
        <ele>454.6</ele>
        <time>2013-02-16T08:26:14.000Z</time>
      </trkpt>
      <trkpt lat="47.31293" lon="4.93196">
        <ele>455.3</ele>
        <time>2013-02-16T08:26:17.000Z</time>
      </trkpt>
      <trkpt lat="47.31294" lon="4.93196">
        <ele>455.2</ele>
        <time>2013-02-16T08:26:18.000Z</time>
      </trkpt>
      <trkpt lat="47.31297" lon="4.93194">
        <ele>455.2</ele>
        <time>2013-02-16T08:26:21.000Z</time>
      </trkpt>
      <trkpt lat="47.31298" lon="4.93193">
        <ele>455.2</ele>
        <time>2013-02-16T08:26:22.000Z</time>
      </trkpt>
      <trkpt lat="47.31301" lon="4.93189">
        <ele>455.2</ele>
        <time>2013-02-16T08:26:25.000Z</time>
      </trkpt>
      <trkpt lat="47.31302" lon="4.93188">
        <ele>455.1</ele>
        <time>2013-02-16T08:26:26.000Z</time>
      </trkpt>
      <trkpt lat="47.31305" lon="4.93183">
        <ele>455.2</ele>
        <time>2013-02-16T08:26:30.000Z</time>
      </trkpt>
      <trkpt lat="47.31305" lon="4.93182">
        <ele>455.1</ele>
        <time>2013-02-16T08:26:31.000Z</time>
      </trkpt>
      <trkpt lat="47.31305" lon="4.9318">
        <ele>455</ele>
        <time>2013-02-16T08:26:33.000Z</time>
      </trkpt>
      <trkpt lat="47.31314" lon="4.93161">
        <ele>459</ele>
        <time>2013-02-16T08:26:41.000Z</time>
      </trkpt>
      <trkpt lat="47.31312" lon="4.93157">
        <ele>460.2</ele>
        <time>2013-02-16T08:26:44.000Z</time>
      </trkpt>
      <trkpt lat="47.31311" lon="4.93155">
        <ele>461.5</ele>
        <time>2013-02-16T08:26:45.000Z</time>
      </trkpt>
      <trkpt lat="47.3131" lon="4.93149">
        <ele>461.1</ele>
        <time>2013-02-16T08:26:48.000Z</time>
      </trkpt>
      <trkpt lat="47.3131" lon="4.93146">
        <ele>461.6</ele>
        <time>2013-02-16T08:26:49.000Z</time>
      </trkpt>
      <trkpt lat="47.31307" lon="4.93143">
        <ele>459.3</ele>
        <time>2013-02-16T08:26:51.000Z</time>
      </trkpt>
      <trkpt lat="47.31306" lon="4.93141">
        <ele>459.7</ele>
        <time>2013-02-16T08:26:52.000Z</time>
      </trkpt>
      <trkpt lat="47.31304" lon="4.93136">
        <ele>459.9</ele>
        <time>2013-02-16T08:26:54.000Z</time>
      </trkpt>
      <trkpt lat="47.31303" lon="4.93135">
        <ele>459.8</ele>
        <time>2013-02-16T08:26:55.000Z</time>
      </trkpt>
      <trkpt lat="47.31302" lon="4.9313">
        <ele>459.2</ele>
        <time>2013-02-16T08:26:57.000Z</time>
      </trkpt>
      <trkpt lat="47.31302" lon="4.93127">
        <ele>458.5</ele>
        <time>2013-02-16T08:26:58.000Z</time>
      </trkpt>
      <trkpt lat="47.31302" lon="4.93122">
        <ele>458.2</ele>
        <time>2013-02-16T08:27:00.000Z</time>
      </trkpt>
      <trkpt lat="47.31302" lon="4.9312">
        <ele>458.4</ele>
        <time>2013-02-16T08:27:01.000Z</time>
      </trkpt>
      <trkpt lat="47.31301" lon="4.93115">
        <ele>458.7</ele>
        <time>2013-02-16T08:27:03.000Z</time>
      </trkpt>
      <trkpt lat="47.31301" lon="4.93113">
        <ele>458.1</ele>
        <time>2013-02-16T08:27:04.000Z</time>
      </trkpt>
      <trkpt lat="47.31301" lon="4.93107">
        <ele>456.1</ele>
        <time>2013-02-16T08:27:07.000Z</time>
      </trkpt>
      <trkpt lat="47.31301" lon="4.93104">
        <ele>455.6</ele>
        <time>2013-02-16T08:27:08.000Z</time>
      </trkpt>
      <trkpt lat="47.31301" lon="4.93098">
        <ele>454.1</ele>
        <time>2013-02-16T08:27:11.000Z</time>
      </trkpt>
      <trkpt lat="47.31301" lon="4.93096">
        <ele>453.6</ele>
        <time>2013-02-16T08:27:12.000Z</time>
      </trkpt>
      <trkpt lat="47.31301" lon="4.93089">
        <ele>453.7</ele>
        <time>2013-02-16T08:27:15.000Z</time>
      </trkpt>
      <trkpt lat="47.31301" lon="4.93086">
        <ele>453.5</ele>
        <time>2013-02-16T08:27:16.000Z</time>
      </trkpt>
      <trkpt lat="47.31302" lon="4.9308">
        <ele>452.7</ele>
        <time>2013-02-16T08:27:19.000Z</time>
      </trkpt>
      <trkpt lat="47.31302" lon="4.93077">
        <ele>452.7</ele>
        <time>2013-02-16T08:27:20.000Z</time>
      </trkpt>
      <trkpt lat="47.31302" lon="4.93072">
        <ele>452.1</ele>
        <time>2013-02-16T08:27:23.000Z</time>
      </trkpt>
      <trkpt lat="47.31302" lon="4.9307">
        <ele>451.7</ele>
        <time>2013-02-16T08:27:24.000Z</time>
      </trkpt>
      <trkpt lat="47.313" lon="4.93064">
        <ele>451.4</ele>
        <time>2013-02-16T08:27:27.000Z</time>
      </trkpt>
      <trkpt lat="47.313" lon="4.93062">
        <ele>451.4</ele>
        <time>2013-02-16T08:27:28.000Z</time>
      </trkpt>
      <trkpt lat="47.31298" lon="4.93057">
        <ele>451</ele>
        <time>2013-02-16T08:27:30.000Z</time>
      </trkpt>
      <trkpt lat="47.31298" lon="4.93055">
        <ele>450.5</ele>
        <time>2013-02-16T08:27:31.000Z</time>
      </trkpt>
      <trkpt lat="47.31298" lon="4.93053">
        <ele>450.3</ele>
        <time>2013-02-16T08:27:33.000Z</time>
      </trkpt>
      <trkpt lat="47.31297" lon="4.93033">
        <ele>443.7</ele>
        <time>2013-02-16T08:27:40.000Z</time>
      </trkpt>
      <trkpt lat="47.31296" lon="4.93027">
        <ele>445.7</ele>
        <time>2013-02-16T08:27:41.000Z</time>
      </trkpt>
      <trkpt lat="47.31296" lon="4.93024">
        <ele>446</ele>
        <time>2013-02-16T08:27:42.000Z</time>
      </trkpt>
      <trkpt lat="47.31296" lon="4.93019">
        <ele>445.9</ele>
        <time>2013-02-16T08:27:46.000Z</time>
      </trkpt>
      <trkpt lat="47.31295" lon="4.93018">
        <ele>446</ele>
        <time>2013-02-16T08:27:47.000Z</time>
      </trkpt>
      <trkpt lat="47.31293" lon="4.93014">
        <ele>447.2</ele>
        <time>2013-02-16T08:27:49.000Z</time>
      </trkpt>
      <trkpt lat="47.31291" lon="4.93012">
        <ele>447.6</ele>
        <time>2013-02-16T08:27:50.000Z</time>
      </trkpt>
      <trkpt lat="47.31289" lon="4.93011">
        <ele>447.6</ele>
        <time>2013-02-16T08:27:52.000Z</time>
      </trkpt>
      <trkpt lat="47.31287" lon="4.9301">
        <ele>447.8</ele>
        <time>2013-02-16T08:27:53.000Z</time>
      </trkpt>
      <trkpt lat="47.31283" lon="4.93005">
        <ele>448.5</ele>
        <time>2013-02-16T08:27:56.000Z</time>
      </trkpt>
      <trkpt lat="47.31282" lon="4.93004">
        <ele>447.9</ele>
        <time>2013-02-16T08:27:57.000Z</time>
      </trkpt>
      <trkpt lat="47.31279" lon="4.93001">
        <ele>447.5</ele>
        <time>2013-02-16T08:28:00.000Z</time>
      </trkpt>
      <trkpt lat="47.31278" lon="4.93">
        <ele>447</ele>
        <time>2013-02-16T08:28:01.000Z</time>
      </trkpt>
      <trkpt lat="47.31275" lon="4.92996">
        <ele>447.3</ele>
        <time>2013-02-16T08:28:04.000Z</time>
      </trkpt>
      <trkpt lat="47.31274" lon="4.92995">
        <ele>446.5</ele>
        <time>2013-02-16T08:28:05.000Z</time>
      </trkpt>
      <trkpt lat="47.3127" lon="4.92994">
        <ele>446.6</ele>
        <time>2013-02-16T08:28:08.000Z</time>
      </trkpt>
      <trkpt lat="47.31268" lon="4.92993">
        <ele>446.5</ele>
        <time>2013-02-16T08:28:09.000Z</time>
      </trkpt>
      <trkpt lat="47.31265" lon="4.92991">
        <ele>445.9</ele>
        <time>2013-02-16T08:28:12.000Z</time>
      </trkpt>
      <trkpt lat="47.31264" lon="4.9299">
        <ele>445.6</ele>
        <time>2013-02-16T08:28:13.000Z</time>
      </trkpt>
      <trkpt lat="47.3126" lon="4.9299">
        <ele>445.1</ele>
        <time>2013-02-16T08:28:15.000Z</time>
      </trkpt>
      <trkpt lat="47.31258" lon="4.92991">
        <ele>445.1</ele>
        <time>2013-02-16T08:28:16.000Z</time>
      </trkpt>
      <trkpt lat="47.31254" lon="4.9299">
        <ele>445.2</ele>
        <time>2013-02-16T08:28:18.000Z</time>
      </trkpt>
      <trkpt lat="47.31253" lon="4.9299">
        <ele>445</ele>
        <time>2013-02-16T08:28:19.000Z</time>
      </trkpt>
      <trkpt lat="47.3125" lon="4.92988">
        <ele>444.5</ele>
        <time>2013-02-16T08:28:21.000Z</time>
      </trkpt>
      <trkpt lat="47.31248" lon="4.92988">
        <ele>444.3</ele>
        <time>2013-02-16T08:28:22.000Z</time>
      </trkpt>
      <trkpt lat="47.31245" lon="4.92985">
        <ele>443.5</ele>
        <time>2013-02-16T08:28:25.000Z</time>
      </trkpt>
      <trkpt lat="47.31243" lon="4.92984">
        <ele>443.2</ele>
        <time>2013-02-16T08:28:26.000Z</time>
      </trkpt>
      <trkpt lat="47.31239" lon="4.92983">
        <ele>443.1</ele>
        <time>2013-02-16T08:28:29.000Z</time>
      </trkpt>
      <trkpt lat="47.31238" lon="4.92982">
        <ele>443</ele>
        <time>2013-02-16T08:28:30.000Z</time>
      </trkpt>
      <trkpt lat="47.31235" lon="4.92982">
        <ele>442.7</ele>
        <time>2013-02-16T08:28:32.000Z</time>
      </trkpt>
      <trkpt lat="47.31233" lon="4.92981">
        <ele>442.7</ele>
        <time>2013-02-16T08:28:33.000Z</time>
      </trkpt>
      <trkpt lat="47.31221" lon="4.92954">
        <ele>446.9</ele>
        <time>2013-02-16T08:28:41.000Z</time>
      </trkpt>
      <trkpt lat="47.3122" lon="4.92948">
        <ele>439.3</ele>
        <time>2013-02-16T08:28:48.000Z</time>
      </trkpt>
      <trkpt lat="47.31222" lon="4.92945">
        <ele>440</ele>
        <time>2013-02-16T08:28:49.000Z</time>
      </trkpt>
      <trkpt lat="47.31223" lon="4.92941">
        <ele>440.5</ele>
        <time>2013-02-16T08:28:51.000Z</time>
      </trkpt>
      <trkpt lat="47.31224" lon="4.92939">
        <ele>440.5</ele>
        <time>2013-02-16T08:28:52.000Z</time>
      </trkpt>
      <trkpt lat="47.31225" lon="4.92935">
        <ele>440.1</ele>
        <time>2013-02-16T08:28:54.000Z</time>
      </trkpt>
      <trkpt lat="47.31225" lon="4.92932">
        <ele>439.7</ele>
        <time>2013-02-16T08:28:55.000Z</time>
      </trkpt>
      <trkpt lat="47.31226" lon="4.92927">
        <ele>438.6</ele>
        <time>2013-02-16T08:28:57.000Z</time>
      </trkpt>
      <trkpt lat="47.31227" lon="4.92924">
        <ele>437.9</ele>
        <time>2013-02-16T08:28:58.000Z</time>
      </trkpt>
      <trkpt lat="47.31229" lon="4.9292">
        <ele>437.5</ele>
        <time>2013-02-16T08:28:59.000Z</time>
      </trkpt>
      <trkpt lat="47.31229" lon="4.92916">
        <ele>435.8</ele>
        <time>2013-02-16T08:29:00.000Z</time>
      </trkpt>
      <trkpt lat="47.3123" lon="4.92912">
        <ele>434.4</ele>
        <time>2013-02-16T08:29:01.000Z</time>
      </trkpt>
      <trkpt lat="47.31231" lon="4.92908">
        <ele>432.4</ele>
        <time>2013-02-16T08:29:02.000Z</time>
      </trkpt>
      <trkpt lat="47.31232" lon="4.92903">
        <ele>431.3</ele>
        <time>2013-02-16T08:29:04.000Z</time>
      </trkpt>
      <trkpt lat="47.31232" lon="4.929">
        <ele>432.3</ele>
        <time>2013-02-16T08:29:05.000Z</time>
      </trkpt>
      <trkpt lat="47.31233" lon="4.92895">
        <ele>432</ele>
        <time>2013-02-16T08:29:07.000Z</time>
      </trkpt>
      <trkpt lat="47.31234" lon="4.92892">
        <ele>432.6</ele>
        <time>2013-02-16T08:29:08.000Z</time>
      </trkpt>
      <trkpt lat="47.31237" lon="4.92888">
        <ele>432.1</ele>
        <time>2013-02-16T08:29:10.000Z</time>
      </trkpt>
      <trkpt lat="47.31239" lon="4.92885">
        <ele>432.4</ele>
        <time>2013-02-16T08:29:11.000Z</time>
      </trkpt>
      <trkpt lat="47.31241" lon="4.92881">
        <ele>432.3</ele>
        <time>2013-02-16T08:29:12.000Z</time>
      </trkpt>
      <trkpt lat="47.31242" lon="4.92877">
        <ele>432.3</ele>
        <time>2013-02-16T08:29:13.000Z</time>
      </trkpt>
      <trkpt lat="47.31244" lon="4.92875">
        <ele>431.8</ele>
        <time>2013-02-16T08:29:14.000Z</time>
      </trkpt>
      <trkpt lat="47.31246" lon="4.92872">
        <ele>431.3</ele>
        <time>2013-02-16T08:29:15.000Z</time>
      </trkpt>
      <trkpt lat="47.31247" lon="4.92869">
        <ele>430.9</ele>
        <time>2013-02-16T08:29:16.000Z</time>
      </trkpt>
      <trkpt lat="47.31249" lon="4.92866">
        <ele>430.9</ele>
        <time>2013-02-16T08:29:17.000Z</time>
      </trkpt>
      <trkpt lat="47.31249" lon="4.92863">
        <ele>431.1</ele>
        <time>2013-02-16T08:29:18.000Z</time>
      </trkpt>
      <trkpt lat="47.31251" lon="4.9286">
        <ele>430.8</ele>
        <time>2013-02-16T08:29:19.000Z</time>
      </trkpt>
      <trkpt lat="47.31254" lon="4.92856">
        <ele>430</ele>
        <time>2013-02-16T08:29:21.000Z</time>
      </trkpt>
      <trkpt lat="47.31255" lon="4.92855">
        <ele>429.8</ele>
        <time>2013-02-16T08:29:22.000Z</time>
      </trkpt>
      <trkpt lat="47.31259" lon="4.92853">
        <ele>429</ele>
        <time>2013-02-16T08:29:25.000Z</time>
      </trkpt>
      <trkpt lat="47.3126" lon="4.92852">
        <ele>428.6</ele>
        <time>2013-02-16T08:29:26.000Z</time>
      </trkpt>
      <trkpt lat="47.31263" lon="4.92849">
        <ele>427.9</ele>
        <time>2013-02-16T08:29:28.000Z</time>
      </trkpt>
      <trkpt lat="47.31265" lon="4.92847">
        <ele>427.7</ele>
        <time>2013-02-16T08:29:29.000Z</time>
      </trkpt>
      <trkpt lat="47.31266" lon="4.92843">
        <ele>427.7</ele>
        <time>2013-02-16T08:29:31.000Z</time>
      </trkpt>
      <trkpt lat="47.31267" lon="4.92842">
        <ele>427.5</ele>
        <time>2013-02-16T08:29:32.000Z</time>
      </trkpt>
      <trkpt lat="47.31269" lon="4.9284">
        <ele>427.3</ele>
        <time>2013-02-16T08:29:33.000Z</time>
      </trkpt>
      <trkpt lat="47.31276" lon="4.92817">
        <ele>425.9</ele>
        <time>2013-02-16T08:29:42.000Z</time>
      </trkpt>
      <trkpt lat="47.31277" lon="4.92813">
        <ele>425.4</ele>
        <time>2013-02-16T08:29:44.000Z</time>
      </trkpt>
      <trkpt lat="47.31278" lon="4.92811">
        <ele>424.6</ele>
        <time>2013-02-16T08:29:45.000Z</time>
      </trkpt>
      <trkpt lat="47.31279" lon="4.92808">
        <ele>422.7</ele>
        <time>2013-02-16T08:29:47.000Z</time>
      </trkpt>
      <trkpt lat="47.31281" lon="4.92805">
        <ele>423.4</ele>
        <time>2013-02-16T08:29:48.000Z</time>
      </trkpt>
      <trkpt lat="47.31284" lon="4.928">
        <ele>420.3</ele>
        <time>2013-02-16T08:29:51.000Z</time>
      </trkpt>
      <trkpt lat="47.31285" lon="4.92799">
        <ele>420.2</ele>
        <time>2013-02-16T08:29:52.000Z</time>
      </trkpt>
      <trkpt lat="47.31289" lon="4.92798">
        <ele>419.5</ele>
        <time>2013-02-16T08:29:54.000Z</time>
      </trkpt>
      <trkpt lat="47.3129" lon="4.92796">
        <ele>419.2</ele>
        <time>2013-02-16T08:29:55.000Z</time>
      </trkpt>
      <trkpt lat="47.31292" lon="4.92792">
        <ele>419.9</ele>
        <time>2013-02-16T08:29:57.000Z</time>
      </trkpt>
      <trkpt lat="47.31293" lon="4.9279">
        <ele>420</ele>
        <time>2013-02-16T08:29:58.000Z</time>
      </trkpt>
      <trkpt lat="47.31295" lon="4.92789">
        <ele>418.8</ele>
        <time>2013-02-16T08:29:59.000Z</time>
      </trkpt>
      <trkpt lat="47.31297" lon="4.92787">
        <ele>418.8</ele>
        <time>2013-02-16T08:30:00.000Z</time>
      </trkpt>
      <trkpt lat="47.31301" lon="4.92785">
        <ele>419.9</ele>
        <time>2013-02-16T08:30:02.000Z</time>
      </trkpt>
      <trkpt lat="47.31302" lon="4.92785">
        <ele>418.9</ele>
        <time>2013-02-16T08:30:03.000Z</time>
      </trkpt>
      <trkpt lat="47.31305" lon="4.92783">
        <ele>419.9</ele>
        <time>2013-02-16T08:30:05.000Z</time>
      </trkpt>
      <trkpt lat="47.31306" lon="4.92782">
        <ele>420.2</ele>
        <time>2013-02-16T08:30:06.000Z</time>
      </trkpt>
      <trkpt lat="47.31309" lon="4.92778">
        <ele>419.3</ele>
        <time>2013-02-16T08:30:10.000Z</time>
      </trkpt>
      <trkpt lat="47.3131" lon="4.92777">
        <ele>419.2</ele>
        <time>2013-02-16T08:30:11.000Z</time>
      </trkpt>
      <trkpt lat="47.31314" lon="4.92775">
        <ele>419</ele>
        <time>2013-02-16T08:30:14.000Z</time>
      </trkpt>
      <trkpt lat="47.31315" lon="4.92775">
        <ele>419.1</ele>
        <time>2013-02-16T08:30:15.000Z</time>
      </trkpt>
      <trkpt lat="47.31317" lon="4.92772">
        <ele>418.6</ele>
        <time>2013-02-16T08:30:17.000Z</time>
      </trkpt>
      <trkpt lat="47.31319" lon="4.92771">
        <ele>418</ele>
        <time>2013-02-16T08:30:18.000Z</time>
      </trkpt>
      <trkpt lat="47.31322" lon="4.92769">
        <ele>417.7</ele>
        <time>2013-02-16T08:30:20.000Z</time>
      </trkpt>
      <trkpt lat="47.31323" lon="4.92768">
        <ele>417.5</ele>
        <time>2013-02-16T08:30:21.000Z</time>
      </trkpt>
      <trkpt lat="47.31326" lon="4.92766">
        <ele>417.2</ele>
        <time>2013-02-16T08:30:24.000Z</time>
      </trkpt>
      <trkpt lat="47.31328" lon="4.92765">
        <ele>416.9</ele>
        <time>2013-02-16T08:30:25.000Z</time>
      </trkpt>
      <trkpt lat="47.31331" lon="4.92765">
        <ele>416.7</ele>
        <time>2013-02-16T08:30:27.000Z</time>
      </trkpt>
      <trkpt lat="47.31333" lon="4.92765">
        <ele>416.6</ele>
        <time>2013-02-16T08:30:28.000Z</time>
      </trkpt>
      <trkpt lat="47.31336" lon="4.92763">
        <ele>415.9</ele>
        <time>2013-02-16T08:30:31.000Z</time>
      </trkpt>
      <trkpt lat="47.31337" lon="4.92762">
        <ele>415.8</ele>
        <time>2013-02-16T08:30:32.000Z</time>
      </trkpt>
      <trkpt lat="47.31338" lon="4.92761">
        <ele>416</ele>
        <time>2013-02-16T08:30:33.000Z</time>
      </trkpt>
      <trkpt lat="47.31357" lon="4.92759">
        <ele>415.3</ele>
        <time>2013-02-16T08:30:41.000Z</time>
      </trkpt>
      <trkpt lat="47.31358" lon="4.92755">
        <ele>413.8</ele>
        <time>2013-02-16T08:30:46.000Z</time>
      </trkpt>
      <trkpt lat="47.31359" lon="4.92752">
        <ele>413.2</ele>
        <time>2013-02-16T08:30:47.000Z</time>
      </trkpt>
      <trkpt lat="47.31362" lon="4.92751">
        <ele>411.4</ele>
        <time>2013-02-16T08:30:49.000Z</time>
      </trkpt>
      <trkpt lat="47.31364" lon="4.9275">
        <ele>410.9</ele>
        <time>2013-02-16T08:30:50.000Z</time>
      </trkpt>
      <trkpt lat="47.31368" lon="4.92749">
        <ele>411.7</ele>
        <time>2013-02-16T08:30:53.000Z</time>
      </trkpt>
      <trkpt lat="47.31369" lon="4.92748">
        <ele>411.4</ele>
        <time>2013-02-16T08:30:54.000Z</time>
      </trkpt>
      <trkpt lat="47.31372" lon="4.92748">
        <ele>411.8</ele>
        <time>2013-02-16T08:30:58.000Z</time>
      </trkpt>
      <trkpt lat="47.31373" lon="4.92748">
        <ele>411.8</ele>
        <time>2013-02-16T08:30:59.000Z</time>
      </trkpt>
      <trkpt lat="47.31377" lon="4.92746">
        <ele>413.5</ele>
        <time>2013-02-16T08:31:02.000Z</time>
      </trkpt>
      <trkpt lat="47.31378" lon="4.92745">
        <ele>414</ele>
        <time>2013-02-16T08:31:03.000Z</time>
      </trkpt>
      <trkpt lat="47.31381" lon="4.92743">
        <ele>412</ele>
        <time>2013-02-16T08:31:05.000Z</time>
      </trkpt>
      <trkpt lat="47.31383" lon="4.92742">
        <ele>411.1</ele>
        <time>2013-02-16T08:31:06.000Z</time>
      </trkpt>
      <trkpt lat="47.31385" lon="4.9274">
        <ele>409.1</ele>
        <time>2013-02-16T08:31:08.000Z</time>
      </trkpt>
      <trkpt lat="47.31387" lon="4.92739">
        <ele>408.7</ele>
        <time>2013-02-16T08:31:09.000Z</time>
      </trkpt>
      <trkpt lat="47.3139" lon="4.92737">
        <ele>407.3</ele>
        <time>2013-02-16T08:31:12.000Z</time>
      </trkpt>
      <trkpt lat="47.31392" lon="4.92736">
        <ele>406.8</ele>
        <time>2013-02-16T08:31:13.000Z</time>
      </trkpt>
      <trkpt lat="47.31395" lon="4.92735">
        <ele>405.9</ele>
        <time>2013-02-16T08:31:15.000Z</time>
      </trkpt>
      <trkpt lat="47.31396" lon="4.92735">
        <ele>405.6</ele>
        <time>2013-02-16T08:31:16.000Z</time>
      </trkpt>
      <trkpt lat="47.314" lon="4.92733">
        <ele>404.9</ele>
        <time>2013-02-16T08:31:19.000Z</time>
      </trkpt>
      <trkpt lat="47.31401" lon="4.92732">
        <ele>404.2</ele>
        <time>2013-02-16T08:31:20.000Z</time>
      </trkpt>
      <trkpt lat="47.31405" lon="4.92731">
        <ele>403.2</ele>
        <time>2013-02-16T08:31:23.000Z</time>
      </trkpt>
      <trkpt lat="47.31406" lon="4.92731">
        <ele>403</ele>
        <time>2013-02-16T08:31:24.000Z</time>
      </trkpt>
      <trkpt lat="47.3141" lon="4.92729">
        <ele>402.3</ele>
        <time>2013-02-16T08:31:26.000Z</time>
      </trkpt>
      <trkpt lat="47.31411" lon="4.92729">
        <ele>402.2</ele>
        <time>2013-02-16T08:31:27.000Z</time>
      </trkpt>
      <trkpt lat="47.31415" lon="4.92729">
        <ele>401.5</ele>
        <time>2013-02-16T08:31:30.000Z</time>
      </trkpt>
      <trkpt lat="47.31416" lon="4.9273">
        <ele>400.9</ele>
        <time>2013-02-16T08:31:31.000Z</time>
      </trkpt>
      <trkpt lat="47.31418" lon="4.92728">
        <ele>400.5</ele>
        <time>2013-02-16T08:31:33.000Z</time>
      </trkpt>
      <trkpt lat="47.31436" lon="4.92722">
        <ele>399.8</ele>
        <time>2013-02-16T08:31:41.000Z</time>
      </trkpt>
      <trkpt lat="47.31439" lon="4.92723">
        <ele>396.8</ele>
        <time>2013-02-16T08:31:43.000Z</time>
      </trkpt>
      <trkpt lat="47.31441" lon="4.92723">
        <ele>396.2</ele>
        <time>2013-02-16T08:31:44.000Z</time>
      </trkpt>
      <trkpt lat="47.31444" lon="4.92723">
        <ele>398.3</ele>
        <time>2013-02-16T08:31:47.000Z</time>
      </trkpt>
      <trkpt lat="47.31445" lon="4.92723">
        <ele>396.7</ele>
        <time>2013-02-16T08:31:48.000Z</time>
      </trkpt>
      <trkpt lat="47.31449" lon="4.92722">
        <ele>396.3</ele>
        <time>2013-02-16T08:31:50.000Z</time>
      </trkpt>
      <trkpt lat="47.31451" lon="4.92722">
        <ele>396.4</ele>
        <time>2013-02-16T08:31:51.000Z</time>
      </trkpt>
      <trkpt lat="47.31455" lon="4.9272">
        <ele>396.9</ele>
        <time>2013-02-16T08:31:54.000Z</time>
      </trkpt>
      <trkpt lat="47.31456" lon="4.92719">
        <ele>396.8</ele>
        <time>2013-02-16T08:31:55.000Z</time>
      </trkpt>
      <trkpt lat="47.3146" lon="4.92718">
        <ele>395</ele>
        <time>2013-02-16T08:31:58.000Z</time>
      </trkpt>
      <trkpt lat="47.31461" lon="4.92717">
        <ele>395</ele>
        <time>2013-02-16T08:31:59.000Z</time>
      </trkpt>
      <trkpt lat="47.31464" lon="4.92715">
        <ele>393.2</ele>
        <time>2013-02-16T08:32:01.000Z</time>
      </trkpt>
      <trkpt lat="47.31466" lon="4.92714">
        <ele>391.8</ele>
        <time>2013-02-16T08:32:02.000Z</time>
      </trkpt>
      <trkpt lat="47.3147" lon="4.92711">
        <ele>390.6</ele>
        <time>2013-02-16T08:32:04.000Z</time>
      </trkpt>
      <trkpt lat="47.31471" lon="4.92709">
        <ele>389.6</ele>
        <time>2013-02-16T08:32:05.000Z</time>
      </trkpt>
      <trkpt lat="47.31475" lon="4.92708">
        <ele>388.9</ele>
        <time>2013-02-16T08:32:07.000Z</time>
      </trkpt>
      <trkpt lat="47.31476" lon="4.92707">
        <ele>388.9</ele>
        <time>2013-02-16T08:32:08.000Z</time>
      </trkpt>
      <trkpt lat="47.3148" lon="4.92705">
        <ele>387.7</ele>
        <time>2013-02-16T08:32:12.000Z</time>
      </trkpt>
      <trkpt lat="47.31481" lon="4.92704">
        <ele>387.2</ele>
        <time>2013-02-16T08:32:13.000Z</time>
      </trkpt>
      <trkpt lat="47.31485" lon="4.92701">
        <ele>386.8</ele>
        <time>2013-02-16T08:32:15.000Z</time>
      </trkpt>
      <trkpt lat="47.31487" lon="4.927">
        <ele>386.5</ele>
        <time>2013-02-16T08:32:16.000Z</time>
      </trkpt>
      <trkpt lat="47.31489" lon="4.92698">
        <ele>386</ele>
        <time>2013-02-16T08:32:18.000Z</time>
      </trkpt>
      <trkpt lat="47.31491" lon="4.92698">
        <ele>386</ele>
        <time>2013-02-16T08:32:19.000Z</time>
      </trkpt>
      <trkpt lat="47.31494" lon="4.92696">
        <ele>385.2</ele>
        <time>2013-02-16T08:32:21.000Z</time>
      </trkpt>
      <trkpt lat="47.31496" lon="4.92695">
        <ele>384.9</ele>
        <time>2013-02-16T08:32:22.000Z</time>
      </trkpt>
      <trkpt lat="47.31499" lon="4.92694">
        <ele>384.1</ele>
        <time>2013-02-16T08:32:24.000Z</time>
      </trkpt>
      <trkpt lat="47.31501" lon="4.92693">
        <ele>383.8</ele>
        <time>2013-02-16T08:32:25.000Z</time>
      </trkpt>
      <trkpt lat="47.31504" lon="4.92693">
        <ele>382.8</ele>
        <time>2013-02-16T08:32:27.000Z</time>
      </trkpt>
      <trkpt lat="47.31506" lon="4.92693">
        <ele>382.2</ele>
        <time>2013-02-16T08:32:28.000Z</time>
      </trkpt>
      <trkpt lat="47.31509" lon="4.92691">
        <ele>381</ele>
        <time>2013-02-16T08:32:30.000Z</time>
      </trkpt>
      <trkpt lat="47.31511" lon="4.9269">
        <ele>380.5</ele>
        <time>2013-02-16T08:32:31.000Z</time>
      </trkpt>
      <trkpt lat="47.31515" lon="4.92689">
        <ele>379.6</ele>
        <time>2013-02-16T08:32:33.000Z</time>
      </trkpt>
      <trkpt lat="47.31528" lon="4.92695">
        <ele>377.9</ele>
        <time>2013-02-16T08:32:39.000Z</time>
      </trkpt>
      <trkpt lat="47.3153" lon="4.92691">
        <ele>376.3</ele>
        <time>2013-02-16T08:32:42.000Z</time>
      </trkpt>
      <trkpt lat="47.31532" lon="4.9269">
        <ele>377</ele>
        <time>2013-02-16T08:32:43.000Z</time>
      </trkpt>
      <trkpt lat="47.31535" lon="4.92688">
        <ele>374.1</ele>
        <time>2013-02-16T08:32:45.000Z</time>
      </trkpt>
      <trkpt lat="47.31538" lon="4.92687">
        <ele>373.6</ele>
        <time>2013-02-16T08:32:46.000Z</time>
      </trkpt>
      <trkpt lat="47.31541" lon="4.92685">
        <ele>374.7</ele>
        <time>2013-02-16T08:32:49.000Z</time>
      </trkpt>
      <trkpt lat="47.31543" lon="4.92684">
        <ele>374.5</ele>
        <time>2013-02-16T08:32:50.000Z</time>
      </trkpt>
      <trkpt lat="47.31547" lon="4.92683">
        <ele>376.6</ele>
        <time>2013-02-16T08:32:52.000Z</time>
      </trkpt>
      <trkpt lat="47.31548" lon="4.92682">
        <ele>377</ele>
        <time>2013-02-16T08:32:53.000Z</time>
      </trkpt>
      <trkpt lat="47.31552" lon="4.92681">
        <ele>376</ele>
        <time>2013-02-16T08:32:56.000Z</time>
      </trkpt>
      <trkpt lat="47.31554" lon="4.92681">
        <ele>376</ele>
        <time>2013-02-16T08:32:57.000Z</time>
      </trkpt>
      <trkpt lat="47.31556" lon="4.92681">
        <ele>376.8</ele>
        <time>2013-02-16T08:32:58.000Z</time>
      </trkpt>
      <trkpt lat="47.31559" lon="4.92682">
        <ele>377.2</ele>
        <time>2013-02-16T08:32:59.000Z</time>
      </trkpt>
      <trkpt lat="47.31561" lon="4.92682">
        <ele>377.3</ele>
        <time>2013-02-16T08:33:00.000Z</time>
      </trkpt>
      <trkpt lat="47.31563" lon="4.92683">
        <ele>379</ele>
        <time>2013-02-16T08:33:01.000Z</time>
      </trkpt>
      <trkpt lat="47.31567" lon="4.92683">
        <ele>379.4</ele>
        <time>2013-02-16T08:33:03.000Z</time>
      </trkpt>
      <trkpt lat="47.31569" lon="4.92683">
        <ele>377.7</ele>
        <time>2013-02-16T08:33:04.000Z</time>
      </trkpt>
      <trkpt lat="47.31571" lon="4.92683">
        <ele>375.5</ele>
        <time>2013-02-16T08:33:06.000Z</time>
      </trkpt>
      <trkpt lat="47.31573" lon="4.92683">
        <ele>375.5</ele>
        <time>2013-02-16T08:33:07.000Z</time>
      </trkpt>
      <trkpt lat="47.31576" lon="4.92686">
        <ele>374.4</ele>
        <time>2013-02-16T08:33:09.000Z</time>
      </trkpt>
      <trkpt lat="47.31577" lon="4.92685">
        <ele>374.3</ele>
        <time>2013-02-16T08:33:10.000Z</time>
      </trkpt>
      <trkpt lat="47.31581" lon="4.92685">
        <ele>373.7</ele>
        <time>2013-02-16T08:33:12.000Z</time>
      </trkpt>
      <trkpt lat="47.31584" lon="4.92686">
        <ele>373.4</ele>
        <time>2013-02-16T08:33:13.000Z</time>
      </trkpt>
      <trkpt lat="47.31588" lon="4.92686">
        <ele>373</ele>
        <time>2013-02-16T08:33:15.000Z</time>
      </trkpt>
      <trkpt lat="47.3159" lon="4.92686">
        <ele>372.8</ele>
        <time>2013-02-16T08:33:16.000Z</time>
      </trkpt>
      <trkpt lat="47.31593" lon="4.92685">
        <ele>372.6</ele>
        <time>2013-02-16T08:33:18.000Z</time>
      </trkpt>
      <trkpt lat="47.31595" lon="4.92685">
        <ele>372.3</ele>
        <time>2013-02-16T08:33:19.000Z</time>
      </trkpt>
      <trkpt lat="47.31598" lon="4.92686">
        <ele>371.7</ele>
        <time>2013-02-16T08:33:21.000Z</time>
      </trkpt>
      <trkpt lat="47.31599" lon="4.92687">
        <ele>371.2</ele>
        <time>2013-02-16T08:33:22.000Z</time>
      </trkpt>
      <trkpt lat="47.31604" lon="4.92686">
        <ele>371.4</ele>
        <time>2013-02-16T08:33:26.000Z</time>
      </trkpt>
      <trkpt lat="47.31605" lon="4.92687">
        <ele>371.5</ele>
        <time>2013-02-16T08:33:27.000Z</time>
      </trkpt>
      <trkpt lat="47.31608" lon="4.92688">
        <ele>371.2</ele>
        <time>2013-02-16T08:33:29.000Z</time>
      </trkpt>
      <trkpt lat="47.3161" lon="4.92688">
        <ele>370.9</ele>
        <time>2013-02-16T08:33:30.000Z</time>
      </trkpt>
      <trkpt lat="47.31613" lon="4.92689">
        <ele>370.4</ele>
        <time>2013-02-16T08:33:32.000Z</time>
      </trkpt>
      <trkpt lat="47.31615" lon="4.92688">
        <ele>370.3</ele>
        <time>2013-02-16T08:33:33.000Z</time>
      </trkpt>
      <trkpt lat="47.31634" lon="4.92685">
        <ele>354.8</ele>
        <time>2013-02-16T08:33:42.000Z</time>
      </trkpt>
      <trkpt lat="47.31636" lon="4.92687">
        <ele>355.4</ele>
        <time>2013-02-16T08:33:48.000Z</time>
      </trkpt>
      <trkpt lat="47.3164" lon="4.9269">
        <ele>352.1</ele>
        <time>2013-02-16T08:33:49.000Z</time>
      </trkpt>
      <trkpt lat="47.31644" lon="4.92693">
        <ele>350.1</ele>
        <time>2013-02-16T08:33:53.000Z</time>
      </trkpt>
      <trkpt lat="47.31646" lon="4.92695">
        <ele>350.3</ele>
        <time>2013-02-16T08:33:54.000Z</time>
      </trkpt>
      <trkpt lat="47.31648" lon="4.92697">
        <ele>350.4</ele>
        <time>2013-02-16T08:33:57.000Z</time>
      </trkpt>
      <trkpt lat="47.3165" lon="4.92699">
        <ele>352</ele>
        <time>2013-02-16T08:33:58.000Z</time>
      </trkpt>
      <trkpt lat="47.31654" lon="4.92702">
        <ele>355.9</ele>
        <time>2013-02-16T08:34:02.000Z</time>
      </trkpt>
      <trkpt lat="47.31655" lon="4.92702">
        <ele>356</ele>
        <time>2013-02-16T08:34:03.000Z</time>
      </trkpt>
      <trkpt lat="47.31658" lon="4.92704">
        <ele>355.3</ele>
        <time>2013-02-16T08:34:06.000Z</time>
      </trkpt>
      <trkpt lat="47.3166" lon="4.92704">
        <ele>355.6</ele>
        <time>2013-02-16T08:34:07.000Z</time>
      </trkpt>
      <trkpt lat="47.31664" lon="4.92706">
        <ele>355.1</ele>
        <time>2013-02-16T08:34:10.000Z</time>
      </trkpt>
      <trkpt lat="47.31665" lon="4.92706">
        <ele>354.7</ele>
        <time>2013-02-16T08:34:11.000Z</time>
      </trkpt>
      <trkpt lat="47.31668" lon="4.92707">
        <ele>355.5</ele>
        <time>2013-02-16T08:34:13.000Z</time>
      </trkpt>
      <trkpt lat="47.3167" lon="4.92707">
        <ele>355.6</ele>
        <time>2013-02-16T08:34:14.000Z</time>
      </trkpt>
      <trkpt lat="47.31673" lon="4.92706">
        <ele>355.3</ele>
        <time>2013-02-16T08:34:16.000Z</time>
      </trkpt>
      <trkpt lat="47.31674" lon="4.92706">
        <ele>355.4</ele>
        <time>2013-02-16T08:34:17.000Z</time>
      </trkpt>
      <trkpt lat="47.31677" lon="4.92704">
        <ele>354.8</ele>
        <time>2013-02-16T08:34:19.000Z</time>
      </trkpt>
      <trkpt lat="47.31678" lon="4.92703">
        <ele>355.1</ele>
        <time>2013-02-16T08:34:20.000Z</time>
      </trkpt>
      <trkpt lat="47.31681" lon="4.92702">
        <ele>355.2</ele>
        <time>2013-02-16T08:34:22.000Z</time>
      </trkpt>
      <trkpt lat="47.31683" lon="4.92702">
        <ele>355.4</ele>
        <time>2013-02-16T08:34:23.000Z</time>
      </trkpt>
      <trkpt lat="47.31686" lon="4.92702">
        <ele>355.4</ele>
        <time>2013-02-16T08:34:25.000Z</time>
      </trkpt>
      <trkpt lat="47.31688" lon="4.92702">
        <ele>355.2</ele>
        <time>2013-02-16T08:34:26.000Z</time>
      </trkpt>
      <trkpt lat="47.31693" lon="4.92701">
        <ele>355.4</ele>
        <time>2013-02-16T08:34:28.000Z</time>
      </trkpt>
      <trkpt lat="47.31695" lon="4.92701">
        <ele>355.3</ele>
        <time>2013-02-16T08:34:29.000Z</time>
      </trkpt>
      <trkpt lat="47.31698" lon="4.92699">
        <ele>354.7</ele>
        <time>2013-02-16T08:34:30.000Z</time>
      </trkpt>
      <trkpt lat="47.31701" lon="4.92699">
        <ele>354.3</ele>
        <time>2013-02-16T08:34:31.000Z</time>
      </trkpt>
      <trkpt lat="47.31703" lon="4.92699">
        <ele>353.9</ele>
        <time>2013-02-16T08:34:32.000Z</time>
      </trkpt>
      <trkpt lat="47.31706" lon="4.92703">
        <ele>353.4</ele>
        <time>2013-02-16T08:34:33.000Z</time>
      </trkpt>
      <trkpt lat="47.31725" lon="4.92722">
        <ele>343.2</ele>
        <time>2013-02-16T08:34:42.000Z</time>
      </trkpt>
      <trkpt lat="47.31728" lon="4.92722">
        <ele>342</ele>
        <time>2013-02-16T08:34:44.000Z</time>
      </trkpt>
      <trkpt lat="47.31731" lon="4.92722">
        <ele>341.5</ele>
        <time>2013-02-16T08:34:45.000Z</time>
      </trkpt>
      <trkpt lat="47.31735" lon="4.92723">
        <ele>341.4</ele>
        <time>2013-02-16T08:34:50.000Z</time>
      </trkpt>
      <trkpt lat="47.31738" lon="4.92722">
        <ele>341.5</ele>
        <time>2013-02-16T08:34:51.000Z</time>
      </trkpt>
      <trkpt lat="47.31741" lon="4.92719">
        <ele>339.2</ele>
        <time>2013-02-16T08:34:53.000Z</time>
      </trkpt>
      <trkpt lat="47.31743" lon="4.92718">
        <ele>339.6</ele>
        <time>2013-02-16T08:34:54.000Z</time>
      </trkpt>
      <trkpt lat="47.31747" lon="4.92715">
        <ele>340.3</ele>
        <time>2013-02-16T08:34:56.000Z</time>
      </trkpt>
      <trkpt lat="47.31748" lon="4.92714">
        <ele>339.9</ele>
        <time>2013-02-16T08:34:57.000Z</time>
      </trkpt>
      <trkpt lat="47.31752" lon="4.92713">
        <ele>339.3</ele>
        <time>2013-02-16T08:34:59.000Z</time>
      </trkpt>
      <trkpt lat="47.31753" lon="4.92712">
        <ele>339.5</ele>
        <time>2013-02-16T08:35:00.000Z</time>
      </trkpt>
      <trkpt lat="47.31757" lon="4.9271">
        <ele>339.7</ele>
        <time>2013-02-16T08:35:02.000Z</time>
      </trkpt>
      <trkpt lat="47.31759" lon="4.92709">
        <ele>340.2</ele>
        <time>2013-02-16T08:35:03.000Z</time>
      </trkpt>
      <trkpt lat="47.31763" lon="4.92706">
        <ele>340.5</ele>
        <time>2013-02-16T08:35:05.000Z</time>
      </trkpt>
      <trkpt lat="47.31764" lon="4.92706">
        <ele>340.1</ele>
        <time>2013-02-16T08:35:06.000Z</time>
      </trkpt>
      <trkpt lat="47.31768" lon="4.92704">
        <ele>340.2</ele>
        <time>2013-02-16T08:35:08.000Z</time>
      </trkpt>
      <trkpt lat="47.31769" lon="4.92703">
        <ele>340.3</ele>
        <time>2013-02-16T08:35:09.000Z</time>
      </trkpt>
      <trkpt lat="47.31773" lon="4.92701">
        <ele>340.7</ele>
        <time>2013-02-16T08:35:11.000Z</time>
      </trkpt>
      <trkpt lat="47.31774" lon="4.92699">
        <ele>340.9</ele>
        <time>2013-02-16T08:35:12.000Z</time>
      </trkpt>
      <trkpt lat="47.31777" lon="4.92698">
        <ele>340.9</ele>
        <time>2013-02-16T08:35:13.000Z</time>
      </trkpt>
      <trkpt lat="47.31779" lon="4.92696">
        <ele>340.6</ele>
        <time>2013-02-16T08:35:14.000Z</time>
      </trkpt>
      <trkpt lat="47.31781" lon="4.92695">
        <ele>340.5</ele>
        <time>2013-02-16T08:35:15.000Z</time>
      </trkpt>
      <trkpt lat="47.31783" lon="4.92694">
        <ele>340.1</ele>
        <time>2013-02-16T08:35:16.000Z</time>
      </trkpt>
      <trkpt lat="47.31786" lon="4.92692">
        <ele>339.1</ele>
        <time>2013-02-16T08:35:17.000Z</time>
      </trkpt>
      <trkpt lat="47.31789" lon="4.9269">
        <ele>338.6</ele>
        <time>2013-02-16T08:35:18.000Z</time>
      </trkpt>
      <trkpt lat="47.31791" lon="4.92688">
        <ele>338</ele>
        <time>2013-02-16T08:35:19.000Z</time>
      </trkpt>
      <trkpt lat="47.31793" lon="4.92686">
        <ele>337.4</ele>
        <time>2013-02-16T08:35:20.000Z</time>
      </trkpt>
      <trkpt lat="47.31796" lon="4.92684">
        <ele>337.1</ele>
        <time>2013-02-16T08:35:21.000Z</time>
      </trkpt>
      <trkpt lat="47.31799" lon="4.92684">
        <ele>336.8</ele>
        <time>2013-02-16T08:35:22.000Z</time>
      </trkpt>
      <trkpt lat="47.31801" lon="4.92683">
        <ele>336.4</ele>
        <time>2013-02-16T08:35:23.000Z</time>
      </trkpt>
      <trkpt lat="47.31804" lon="4.92682">
        <ele>336</ele>
        <time>2013-02-16T08:35:24.000Z</time>
      </trkpt>
      <trkpt lat="47.31807" lon="4.9268">
        <ele>335.8</ele>
        <time>2013-02-16T08:35:25.000Z</time>
      </trkpt>
      <trkpt lat="47.31811" lon="4.92678">
        <ele>335.1</ele>
        <time>2013-02-16T08:35:26.000Z</time>
      </trkpt>
      <trkpt lat="47.31814" lon="4.92676">
        <ele>334.6</ele>
        <time>2013-02-16T08:35:27.000Z</time>
      </trkpt>
      <trkpt lat="47.31816" lon="4.92675">
        <ele>334.1</ele>
        <time>2013-02-16T08:35:28.000Z</time>
      </trkpt>
      <trkpt lat="47.31818" lon="4.92673">
        <ele>333.3</ele>
        <time>2013-02-16T08:35:29.000Z</time>
      </trkpt>
      <trkpt lat="47.3182" lon="4.92672">
        <ele>332.9</ele>
        <time>2013-02-16T08:35:30.000Z</time>
      </trkpt>
      <trkpt lat="47.31824" lon="4.9267">
        <ele>332.6</ele>
        <time>2013-02-16T08:35:32.000Z</time>
      </trkpt>
      <trkpt lat="47.31826" lon="4.92669">
        <ele>332.3</ele>
        <time>2013-02-16T08:35:33.000Z</time>
      </trkpt>
      <trkpt lat="47.31843" lon="4.92664">
        <ele>326.7</ele>
        <time>2013-02-16T08:35:40.000Z</time>
      </trkpt>
      <trkpt lat="47.31846" lon="4.92667">
        <ele>328.8</ele>
        <time>2013-02-16T08:35:45.000Z</time>
      </trkpt>
      <trkpt lat="47.31847" lon="4.92668">
        <ele>329.4</ele>
        <time>2013-02-16T08:35:46.000Z</time>
      </trkpt>
      <trkpt lat="47.3185" lon="4.92671">
        <ele>329.9</ele>
        <time>2013-02-16T08:35:50.000Z</time>
      </trkpt>
      <trkpt lat="47.31851" lon="4.92673">
        <ele>327.4</ele>
        <time>2013-02-16T08:35:51.000Z</time>
      </trkpt>
      <trkpt lat="47.31852" lon="4.92668">
        <ele>325.4</ele>
        <time>2013-02-16T08:35:56.000Z</time>
      </trkpt>
      <trkpt lat="47.31852" lon="4.92666">
        <ele>324.6</ele>
        <time>2013-02-16T08:35:57.000Z</time>
      </trkpt>
      <trkpt lat="47.31854" lon="4.92661">
        <ele>318.6</ele>
        <time>2013-02-16T08:36:02.000Z</time>
      </trkpt>
      <trkpt lat="47.31854" lon="4.9266">
        <ele>318.3</ele>
        <time>2013-02-16T08:36:03.000Z</time>
      </trkpt>
      <trkpt lat="47.31858" lon="4.92659">
        <ele>316.5</ele>
        <time>2013-02-16T08:36:33.000Z</time>
      </trkpt>
      <trkpt lat="47.31869" lon="4.92659">
        <ele>326.1</ele>
        <time>2013-02-16T08:36:40.000Z</time>
      </trkpt>
      <trkpt lat="47.31869" lon="4.92659">
        <ele>326.1</ele>
        <time>2013-02-16T08:37:07.000Z</time>
      </trkpt>
      <trkpt lat="47.31861" lon="4.92662">
        <ele>319.9</ele>
        <time>2013-02-16T08:37:08.000Z</time>
      </trkpt>
      <trkpt lat="47.31861" lon="4.92662">
        <ele>319.6</ele>
        <time>2013-02-16T08:37:41.000Z</time>
      </trkpt>
    </trkseg>
  </trk>
</gpx>